GFSGBSN_850_spd_000.txt.gz
Wind_Speed
17 16 17 18 18 18 18 18 19 20 20 20 18 20 21 20 19 20 20 20 20 20 22 23 22 21 21 12 26 20 15 14 13 16 30 25 19 11 6 6 5 6 4 14 18 22 25
20 21 21 20 19 19 20 19 18 20 22 22 22 20 21 23 22 20 20 20 21 21 22 24 25 23 16 7 15 10 10 9 11 17 30 24 14 13 8 5 5 4 4 15 20 17 16
20 20 20 21 22 22 22 21 20 20 20 21 23 25 22 22 23 24 22 21 22 21 23 24 25 23 19 33 20 24 19 7 8 18 27 27 8 7 4 1 4 9 6 9 6 8 5
22 22 21 20 21 21 22 24 25 22 22 21 21 23 26 26 25 23 23 22 22 23 23 24 22 19 13 19 15 16 11 8 6 11 17 14 15 5 5 2 4 3 5 6 4 8 14
22 23 24 23 22 21 22 22 23 25 24 25 23 22 23 24 26 27 22 23 23 23 21 18 13 10 13 9 7 5 9 10 8 7 10 12 10 5 3 5 4 3 7 4 3 8 7
25 25 24 24 25 25 24 24 23 24 25 25 26 25 24 23 24 27 24 22 20 16 14 11 12 6 13 11 4 14 6 8 7 10 13 9 6 3 3 4 6 6 6 3 7 9 8
26 27 27 26 27 27 26 25 25 24 25 25 26 27 26 23 24 24 24 16 7 4 7 9 12 15 21 17 23 14 7 5 12 6 6 7 4 7 10 9 8 8 7 17 1 3 3
27 26 26 26 26 27 28 28 26 25 24 24 25 27 27 21 23 22 13 6 3 5 14 28 34 36 40 35 18 32 17 7 6 6 2 3 9 9 8 6 8 10 7 10 2 4 5
28 27 27 26 26 27 27 27 27 27 26 25 24 26 28 24 21 12 14 7 2 12 5 23 17 16 15 20 24 34 16 8 5 7 4 6 4 11 8 5 7 5 10 6 15 5 3
26 26 27 27 26 25 25 25 27 27 28 27 25 24 27 27 13 14 9 5 10 14 3 8 5 3 4 8 7 35 21 15 5 12 7 6 7 9 9 11 8 7 8 8 9 9 7
27 26 25 26 27 27 26 26 27 27 27 28 26 23 25 25 24 14 9 15 13 2 5 4 3 3 5 10 3 13 24 17 9 6 6 7 5 8 5 8 9 9 8 11 8 8 5
27 27 26 26 26 28 27 28 29 29 29 28 29 23 28 24 23 12 5 5 2 4 7 6 3 1 4 4 5 3 17 15 15 6 3 10 6 8 12 5 10 9 7 6 4 4 2
27 28 27 26 26 26 26 27 28 30 30 29 30 25 25 26 22 20 13 7 2 4 4 4 2 3 3 5 6 3 8 7 7 7 7 2 7 4 4 5 1 6 6 2 2 2 6
26 27 26 25 25 27 25 27 28 30 32 31 32 28 24 22 18 19 8 3 5 5 9 5 4 4 2 5 5 6 5 5 3 5 4 6 6 8 4 8 8 6 9 6 6 5 5
26 25 25 26 27 25 28 28 29 30 33 33 32 29 20 12 11 10 11 4 8 7 5 2 5 2 3 4 4 3 4 9 10 10 11 7 8 4 4 5 10 4 4 7 7 2 2
27 27 25 25 26 27 28 29 28 30 33 33 33 31 9 8 6 15 3 7 7 6 3 3 2 3 1 3 6 6 3 4 6 11 6 8 1 9 7 3 4 10 9 3 3 5 5
25 25 25 25 25 25 27 28 28 29 33 31 26 13 7 7 10 11 4 7 7 16 7 4 4 2 1 2 5 3 6 5 5 5 9 7 5 7 7 12 15 3 4 5 6 5 7
27 27 25 24 23 24 24 25 26 26 32 26 14 4 8 11 1 1 3 6 4 4 5 4 1 5 6 6 5 6 8 9 6 6 5 10 10 10 12 4 6 11 11 9 7 6 3
28 29 26 26 24 22 22 23 24 24 24 29 18 9 4 11 3 3 5 5 3 3 4 2 4 6 4 6 4 8 8 10 23 7 7 6 5 10 7 5 1 5 5 6 5 4 8
29 23 26 27 22 20 20 20 20 24 19 19 7 4 4 6 2 2 5 5 4 6 6 6 5 4 3 5 6 6 4 3 4 3 23 17 6 11 17 15 5 5 7 7 7 5 6
28 25 26 28 18 16 18 18 19 21 18 13 4 4 2 4 2 3 2 4 4 4 3 4 4 7 9 7 7 8 10 13 4 5 6 3 12 9 20 9 7 8 7 9 8 7 7
28 26 23 23 19 19 18 18 17 18 19 6 4 4 7 8 12 4 2 3 3 4 3 6 6 8 9 9 11 9 9 7 5 3 5 4 6 6 17 13 11 9 8 9 7 3 7
27 26 24 20 18 19 19 16 14 14 15 6 4 6 6 6 4 2 3 1 6 11 11 16 9 7 11 8 12 19 17 12 7 7 2 3 1 3 11 7 6 5 16 9 6 6 9
26 27 26 24 22 19 18 17 15 13 11 10 8 6 5 5 4 4 8 10 14 9 8 18 19 5 6 28 27 14 10 11 8 5 7 3 1 4 13 4 5 12 4 12 11 3 5
24 24 24 24 24 22 21 18 12 14 13 12 9 5 5 6 9 12 9 5 14 17 6 10 18 18 23 13 3 3 2 2 2 7 3 4 2 3 4 6 4 1 3 4 7 4 4
25 25 25 23 22 19 21 18 15 16 13 13 11 12 11 6 6 13 3 9 6 4 5 6 16 19 6 2 2 6 6 6 3 4 2 5 5 4 2 6 8 4 3 3 4 1 7
27 24 25 22 19 19 18 15 15 15 12 15 14 10 7 9 20 21 8 5 7 4 3 6 12 9 11 1 2 3 5 1 7 13 2 5 4 1 1 2 5 4 9 6 5 3 6
23 24 20 19 17 17 17 17 15 13 12 15 16 11 15 12 29 30 28 20 16 11 3 9 10 2 3 2 2 3 1 1 1 12 14 6 2 4 2 3 1 18 9 6 8 19 22
21 18 17 17 17 18 16 15 13 12 12 13 16 10 13 18 17 19 29 30 28 23 17 9 6 6 3 1 2 3 2 2 2 4 6 7 5 3 2 1 7 16 5 20 21 30 29

GFSGBSN_850_spd_003.txt.gz
Wind_Speed
17 18 17 17 17 17 17 18 19 18 18 18 17 16 17 19 19 20 20 20 19 18 18 19 19 20 20 12 23 19 13 10 11 14 30 25 22 12 9 8 9 9 10 11 12 19 18
19 18 18 19 19 19 19 18 18 19 20 20 21 19 19 18 19 20 20 20 21 21 20 19 20 21 16 11 13 7 9 11 9 15 25 30 17 16 11 7 11 6 7 6 13 15 16
21 21 21 22 22 22 21 22 21 19 19 20 22 23 22 21 19 19 19 21 22 22 22 21 20 20 17 32 20 21 17 16 10 14 24 32 12 17 7 5 5 6 4 8 9 19 8
22 22 21 21 21 22 24 25 24 24 22 21 20 21 23 24 23 22 19 20 22 23 22 22 19 15 12 18 14 11 9 8 8 10 17 28 15 6 5 3 4 4 5 6 9 16 11
24 24 24 23 22 20 20 21 23 23 25 25 24 23 21 22 23 25 21 20 21 21 21 19 13 7 11 7 2 7 6 6 9 13 14 23 19 7 5 6 5 4 8 9 10 13 9
25 25 25 25 25 25 25 22 21 21 22 23 25 27 25 23 23 23 21 19 19 17 14 12 11 5 11 6 7 6 3 10 8 13 12 8 6 9 4 10 14 12 9 8 10 12 9
28 27 25 24 23 24 25 25 24 23 22 22 22 24 27 23 25 23 18 11 6 4 7 9 11 18 20 14 13 9 5 3 11 10 9 7 9 16 18 16 10 14 14 14 9 11 12
27 28 28 28 26 25 25 25 25 24 24 24 23 25 24 21 24 19 9 10 3 3 13 25 31 34 34 21 12 22 17 5 9 10 7 5 16 12 14 14 9 13 17 16 7 11 12
29 29 28 28 28 27 26 26 26 26 26 25 24 25 27 21 20 7 17 2 2 10 5 14 11 12 8 13 13 25 17 14 7 11 11 13 6 10 11 12 13 12 17 15 15 9 3
28 28 28 27 28 29 29 26 25 26 26 26 24 23 27 24 9 15 5 3 13 12 4 6 4 3 4 6 7 17 23 15 5 15 10 9 10 14 13 17 15 19 15 15 15 12 13
28 28 28 28 28 27 29 29 30 29 27 27 26 22 25 24 20 12 7 9 9 1 6 2 3 2 5 7 6 7 21 17 13 9 8 9 11 15 19 19 14 11 9 16 15 16 8
29 29 29 28 28 28 29 28 29 30 30 28 28 23 27 23 20 10 1 8 1 3 8 3 3 3 2 7 3 5 14 11 14 11 5 14 3 14 14 14 17 10 10 5 5 9 10
28 26 28 28 28 29 30 28 29 29 31 30 28 24 22 25 18 15 10 3 4 6 2 4 3 2 7 3 4 7 15 15 12 15 16 14 16 7 10 16 15 14 11 6 8 7 9
26 29 28 27 27 28 29 29 30 29 30 31 31 27 22 18 16 14 7 3 10 6 13 0 3 4 4 2 4 10 12 18 18 15 12 14 14 20 15 17 14 21 21 12 15 10 12
28 30 27 26 26 26 28 29 30 29 30 32 31 28 18 10 9 8 10 10 8 9 4 3 2 5 6 1 4 7 11 18 20 20 15 12 17 6 13 8 18 11 14 18 18 1 6
30 30 28 27 26 25 25 25 28 30 30 29 30 29 12 6 9 15 6 13 9 7 3 3 7 4 3 1 3 2 7 7 12 19 19 12 7 20 12 17 15 13 13 11 7 19 19
31 30 28 27 28 27 25 25 26 28 30 27 24 13 5 5 11 10 7 8 12 15 8 9 10 8 4 2 4 3 3 2 6 16 21 18 14 7 12 20 24 11 11 4 6 8 15
28 29 29 31 26 28 24 21 23 25 28 26 12 4 5 11 4 4 6 4 3 6 14 15 6 7 9 7 8 6 7 7 5 10 11 14 11 14 21 3 13 21 21 20 13 12 6
32 30 27 25 26 26 23 18 19 21 24 26 14 9 7 13 5 6 4 5 5 7 7 7 14 13 8 6 6 10 9 9 13 2 9 9 7 12 15 18 14 11 20 22 18 14 18
28 30 26 25 24 25 16 17 18 19 20 21 6 4 3 5 3 2 4 5 5 4 7 7 6 7 6 7 8 6 4 4 3 6 8 11 8 11 15 19 16 14 13 19 20 16 16
27 26 26 26 22 23 16 15 16 17 15 16 3 3 4 4 1 8 3 4 8 5 3 4 5 12 10 9 14 16 15 17 17 14 4 7 6 16 23 25 24 22 21 17 20 25 18
29 28 28 25 22 19 16 16 15 13 12 10 4 4 6 9 14 7 4 3 4 4 3 8 6 10 8 6 11 13 12 14 11 3 5 2 1 2 16 22 24 26 24 18 22 23 19
24 24 23 22 23 22 20 16 15 12 10 4 5 6 5 8 5 4 4 4 3 7 7 14 10 9 10 10 5 15 17 18 9 4 4 5 2 6 8 10 16 22 25 21 14 14 16
25 24 22 22 23 23 22 18 15 15 11 11 9 6 5 5 6 6 8 14 16 13 10 19 18 9 5 11 23 22 19 20 15 15 10 3 4 2 7 2 9 14 19 24 24 21 15
26 25 23 25 25 23 20 19 18 13 13 13 11 7 5 6 8 12 14 10 15 16 15 19 18 16 17 9 6 7 9 8 12 11 11 6 6 3 5 5 11 8 7 9 15 18 7
26 24 22 26 24 22 19 18 16 16 13 15 14 11 8 5 6 10 6 8 7 8 8 6 9 13 3 4 5 5 9 11 8 11 11 15 13 6 3 9 8 3 6 6 3 13 6
25 23 23 21 19 18 17 17 14 14 14 15 16 13 10 9 20 20 11 10 7 5 5 6 10 5 4 3 7 7 8 3 9 12 8 5 3 4 9 9 8 5 14 5 10 6 8
23 22 20 19 16 15 15 15 13 14 13 14 16 13 17 9 28 28 24 20 15 10 4 11 9 2 3 3 3 2 3 2 4 8 10 8 8 5 5 6 8 23 10 5 7 12 20
23 20 17 16 16 15 13 14 14 13 11 11 15 14 14 19 20 21 23 23 27 25 11 5 6 9 4 3 2 3 2 1 1 7 5 6 6 7 5 5 16 15 6 9 19 22 21

GFSGBSN_850_spd_006.txt.gz
Wind_Speed
18 18 19 19 19 18 18 19 20 19 19 19 18 18 18 19 19 19 18 17 17 17 17 19 18 18 19 11 18 17 16 10 8 12 21 23 22 21 16 12 11 12 12 10 11 9 12
21 19 18 17 17 17 18 18 18 18 19 20 19 20 20 19 19 19 20 21 18 18 17 18 19 18 15 17 10 10 6 7 4 18 21 24 20 23 12 13 11 5 8 10 11 10 13
24 23 23 23 21 20 19 19 19 18 18 19 20 21 22 22 22 20 20 21 23 20 20 18 18 17 15 23 13 19 17 10 11 17 19 27 21 21 16 11 15 10 11 5 9 13 10
25 25 24 22 21 22 22 22 21 21 20 20 19 20 21 23 23 23 20 21 22 22 21 19 16 12 11 12 15 13 11 12 10 15 19 17 27 18 21 9 8 14 13 12 10 16 10
26 25 25 25 24 24 23 23 21 21 21 22 23 22 19 19 20 23 22 21 22 21 20 17 10 5 9 8 6 5 9 11 11 13 10 15 21 21 20 15 15 15 14 13 11 15 7
26 26 26 25 25 25 25 25 24 23 22 21 22 24 22 20 20 19 18 19 18 18 14 9 9 6 11 6 10 3 6 12 13 17 12 20 17 15 15 17 17 18 17 11 13 15 12
26 27 27 27 25 23 24 25 26 26 25 23 23 24 23 22 21 19 12 10 7 5 7 12 9 16 9 6 7 6 7 16 12 20 14 22 19 21 23 22 20 18 15 13 15 14 17
27 27 27 27 28 28 27 25 25 24 25 25 24 26 24 20 21 14 9 7 3 4 15 21 30 31 28 15 12 22 17 18 17 18 18 16 23 22 23 22 24 21 18 17 14 9 15
27 26 27 27 28 28 28 27 27 27 27 26 24 26 26 22 16 4 11 2 2 9 9 13 14 13 11 21 19 19 30 25 20 21 21 19 19 21 20 22 24 23 21 18 16 11 15
28 27 27 27 26 27 28 29 28 28 27 27 23 25 26 24 7 14 3 4 12 8 6 6 7 7 9 8 9 15 34 30 18 23 21 20 19 23 17 24 22 24 23 18 14 12 13
26 26 27 27 27 27 27 28 29 29 29 27 26 23 25 23 19 8 7 7 8 1 6 8 9 7 8 10 4 7 24 32 22 19 21 20 23 21 23 23 25 24 22 19 18 15 18
27 26 27 27 27 27 27 27 26 27 28 29 26 21 26 21 19 10 5 4 0 7 9 7 9 12 11 13 5 5 17 26 22 20 17 23 19 20 21 22 22 20 18 13 17 15 18
28 28 29 29 28 27 26 27 28 27 27 27 28 24 20 22 10 10 8 3 6 10 4 10 10 14 11 7 9 11 18 22 19 20 20 20 21 17 20 22 23 22 18 11 15 15 15
27 28 30 32 28 26 27 27 28 29 30 29 28 27 21 21 16 15 9 8 14 5 18 4 5 11 13 9 9 15 17 20 25 22 14 18 20 26 17 28 26 28 26 16 24 15 14
27 27 29 29 29 29 31 29 29 30 32 31 28 24 20 12 10 14 15 15 10 16 10 14 14 15 16 14 7 10 19 20 24 25 23 19 25 23 25 18 27 29 26 26 25 20 16
27 26 26 28 31 32 31 31 28 28 31 33 30 22 16 10 12 13 11 25 21 16 10 13 17 12 14 17 13 13 16 16 20 25 22 15 14 23 22 21 26 29 22 24 21 26 24
26 28 30 31 32 28 27 30 27 25 29 30 17 10 5 9 11 16 15 23 23 31 19 18 19 20 14 15 15 11 8 11 16 20 21 22 13 14 22 27 27 21 24 21 23 23 20
27 28 31 27 27 24 23 26 19 21 27 17 10 5 4 5 11 14 17 20 19 19 30 25 18 21 20 16 16 14 12 9 11 17 25 22 15 15 17 27 29 26 26 26 18 27 21
29 25 24 25 23 24 24 22 18 18 18 19 10 14 10 11 8 13 16 17 18 23 22 23 28 22 18 18 20 17 17 14 12 11 15 20 19 14 19 18 16 27 32 29 27 21 26
26 26 26 25 25 24 22 21 16 15 16 13 9 4 8 11 19 13 17 14 19 20 21 25 21 21 23 23 19 10 13 14 12 18 7 9 19 22 17 21 20 25 26 30 30 23 24
25 25 25 25 25 24 21 17 15 14 14 9 9 5 2 5 7 7 13 15 15 15 15 18 22 22 20 20 21 21 17 10 10 9 6 9 16 17 22 22 20 24 28 28 31 32 29
24 23 23 23 22 20 19 19 18 15 13 9 8 7 6 14 17 14 12 13 14 15 9 16 17 21 21 20 19 17 21 18 17 14 15 13 12 13 21 23 25 23 26 28 27 28 30
25 24 23 22 22 22 21 20 17 15 14 8 9 10 9 11 8 7 11 11 8 9 12 18 15 11 8 8 8 11 12 15 14 12 14 15 13 10 17 18 22 24 27 27 29 27 25
27 27 25 23 21 22 23 21 18 17 19 18 10 8 5 10 10 7 10 12 14 13 15 22 18 14 3 11 16 18 20 21 19 20 18 10 13 13 12 2 14 15 19 23 25 28 24
27 25 25 23 20 24 22 21 18 16 20 19 17 11 6 7 14 13 15 15 15 17 17 20 21 20 18 16 7 11 13 17 23 22 21 18 15 11 12 14 8 14 7 17 22 24 27
26 24 22 21 20 21 21 18 16 15 17 19 19 18 9 5 8 10 11 12 10 9 12 14 12 15 12 7 10 15 16 16 17 18 21 19 16 14 9 15 17 2 9 14 13 15 24
25 23 20 19 17 17 16 16 14 12 12 16 18 18 18 7 22 19 16 13 10 11 7 6 7 8 8 9 12 12 16 18 16 20 18 16 16 20 11 11 10 10 13 5 8 7 22
24 22 21 17 16 15 14 14 14 13 12 15 20 19 20 10 26 28 26 25 15 15 7 8 8 6 5 5 10 10 10 11 15 18 24 18 16 11 6 11 15 8 1 2 14 18 10
22 19 17 14 13 14 13 13 13 12 14 13 12 10 16 20 18 24 26 24 24 29 25 10 8 7 3 4 3 5 4 2 12 13 6 14 15 9 10 7 5 6 2 1 8 3 5

GFSGBSN_850_spd_009.txt.gz
Wind_Speed
21 20 20 20 20 20 20 19 19 18 17 17 17 17 17 19 19 20 20 21 20 20 21 20 19 16 17 11 19 18 16 17 10 14 21 23 25 23 20 18 16 11 11 6 6 9 9
25 23 22 21 20 21 21 20 20 21 20 20 20 19 19 19 19 20 20 21 21 20 20 21 20 18 16 20 11 7 7 6 10 16 22 23 23 23 21 23 17 13 13 11 6 11 11
27 26 25 24 21 20 21 20 19 19 20 21 21 22 22 21 21 20 20 22 22 21 20 20 19 17 14 23 8 9 12 11 11 15 20 25 25 21 23 20 21 15 12 14 10 9 11
27 27 28 27 25 24 23 22 21 21 21 22 21 21 22 22 23 23 21 21 21 21 20 18 16 11 13 11 13 17 15 15 15 17 20 19 24 26 22 22 26 18 18 16 14 13 13
25 25 26 27 27 26 25 25 25 24 23 23 23 23 24 22 21 22 23 22 20 19 19 17 9 6 16 10 11 11 16 17 16 15 17 19 18 27 22 18 17 18 17 21 13 16 14
25 25 26 27 27 27 28 27 26 26 27 27 26 23 26 24 23 21 19 19 18 19 16 9 10 8 19 14 10 9 10 15 17 16 16 20 19 18 20 19 18 19 21 20 20 17 13
24 24 25 27 28 29 30 29 28 28 26 27 28 26 26 24 23 21 16 9 9 5 14 18 13 13 6 9 9 11 11 14 18 20 18 24 18 23 26 26 23 23 21 19 15 24 19
30 30 29 28 28 28 28 29 30 29 28 26 28 28 26 25 21 14 10 8 7 8 16 24 34 35 31 19 17 20 13 17 20 19 21 17 24 24 24 26 24 28 23 19 14 17 21
29 29 29 28 28 28 29 29 29 29 29 28 26 28 27 23 15 5 13 7 3 13 10 22 31 33 33 29 33 26 26 25 18 22 23 24 21 24 25 25 27 25 25 19 17 27 22
28 26 27 27 28 28 27 27 28 28 29 29 27 26 27 25 6 11 5 3 9 11 7 13 10 12 18 18 18 29 29 33 25 23 24 25 21 25 28 28 26 25 25 24 19 12 12
27 26 28 30 33 29 28 26 27 27 27 28 28 24 27 18 18 9 7 8 10 5 7 9 12 12 20 21 14 21 27 33 26 22 18 25 25 24 29 30 29 26 24 24 23 17 23
26 25 25 27 31 30 30 30 29 29 29 29 27 26 24 14 14 15 13 9 6 7 14 9 11 14 19 23 16 12 20 32 30 22 23 25 25 26 23 27 23 24 23 24 23 18 18
24 24 25 26 28 28 30 32 34 32 31 30 28 25 23 22 11 3 5 6 7 12 3 11 16 19 21 18 20 14 18 25 23 24 23 23 28 23 25 24 25 29 24 16 19 18 19
24 25 27 26 27 28 33 35 31 31 32 33 32 27 20 18 13 14 8 9 16 12 28 1 17 20 24 19 19 20 17 21 28 24 17 21 20 29 22 28 28 32 28 20 24 18 18
26 26 25 25 26 28 30 28 26 29 28 30 32 22 19 15 16 15 18 16 14 22 18 19 13 20 24 23 19 20 22 22 25 26 25 19 25 18 29 26 27 30 29 28 27 24 20
25 25 25 27 28 31 27 25 26 30 29 30 28 23 22 12 14 16 14 30 23 32 15 16 24 20 21 24 20 20 20 22 24 27 26 20 18 22 24 26 26 34 24 27 22 28 26
26 27 28 29 27 26 25 25 26 28 28 22 19 11 6 4 9 19 17 25 28 46 38 27 23 25 27 24 26 25 24 23 21 24 26 25 19 16 23 30 30 20 27 23 26 24 21
27 26 25 23 25 24 24 25 24 24 25 17 16 7 3 4 13 15 19 27 31 31 32 30 24 27 25 25 22 20 20 25 21 20 27 25 16 16 22 24 25 29 28 32 19 29 21
27 27 27 26 25 25 24 22 21 19 18 17 14 21 22 18 14 15 22 29 31 31 31 31 28 30 26 27 24 23 20 20 10 16 20 21 19 17 22 21 23 28 29 31 33 23 26
25 24 22 22 22 22 22 21 18 16 15 12 12 7 18 21 23 21 23 26 24 29 26 26 26 26 27 31 26 23 25 22 21 15 2 10 21 23 18 22 19 25 30 31 29 23 23
27 26 25 24 23 23 22 19 17 16 14 10 10 13 13 11 12 10 15 21 19 21 28 27 23 31 28 29 26 27 26 20 28 23 20 17 20 23 26 25 19 23 27 28 32 31 28
29 28 26 25 23 22 20 19 18 15 16 14 9 10 13 20 25 20 18 20 20 19 17 24 23 23 26 26 24 25 27 24 20 24 22 21 19 19 22 24 24 25 22 28 29 31 33
30 28 27 26 26 23 22 19 17 14 16 11 13 17 13 12 17 15 13 21 26 14 11 23 13 17 20 14 20 22 23 26 24 18 23 22 18 18 21 22 21 23 28 26 24 26 27
28 28 26 24 24 22 21 20 21 15 17 19 22 15 11 12 11 14 19 8 23 17 15 21 14 11 21 32 30 21 18 14 10 17 19 20 21 16 18 17 20 18 18 26 28 27 27
28 27 26 24 22 21 20 20 20 17 16 20 22 18 7 9 15 14 16 11 18 27 22 19 24 16 21 29 13 9 9 11 17 17 18 17 15 18 16 16 10 11 11 5 11 18 26
27 27 25 23 20 18 18 18 17 14 14 18 19 21 12 4 11 2 12 11 11 14 16 19 14 12 10 10 10 12 13 13 19 23 22 22 16 13 14 23 24 11 10 8 5 12 14
27 26 24 21 18 17 17 16 14 13 14 16 19 19 17 9 21 24 16 8 15 10 9 11 4 5 12 6 9 14 14 20 21 28 17 22 20 22 18 16 16 4 7 2 10 7 14
25 23 20 18 15 15 15 14 14 12 13 13 13 14 18 8 21 29 29 29 27 21 10 12 6 5 3 7 10 13 15 19 20 22 25 23 21 19 19 22 24 5 8 12 6 13 16
21 18 17 13 13 13 14 13 10 11 12 12 16 15 12 20 19 22 26 27 23 25 25 20 11 2 4 5 2 5 4 8 17 16 25 24 21 17 13 14 9 9 10 3 8 10 10

GFSGBSN_850_spd_012.txt.gz
Wind_Speed
25 25 24 23 22 22 22 22 21 20 20 21 21 21 20 20 21 21 22 22 21 21 20 19 19 19 18 12 27 19 16 15 16 11 22 23 25 24 20 18 22 16 21 17 6 9 11
26 25 25 24 24 23 23 23 23 23 23 23 22 22 22 22 22 22 22 22 23 21 20 20 18 18 15 19 10 11 11 12 11 15 21 24 22 22 24 22 21 20 13 14 13 9 14
28 28 27 26 25 25 24 23 23 24 23 23 24 24 23 23 24 24 23 22 23 22 21 19 18 17 15 32 11 9 8 13 10 15 20 23 23 22 24 20 25 26 19 9 11 11 9
27 28 28 29 29 29 29 27 25 24 24 24 24 24 24 23 24 26 26 23 23 21 21 20 16 13 14 20 16 21 17 17 15 16 17 19 21 24 24 22 24 22 20 16 18 17 11
26 26 26 27 28 29 29 29 29 28 27 26 25 25 24 24 24 24 24 23 24 21 20 19 11 7 17 10 19 19 19 21 18 17 18 18 21 24 23 19 18 21 18 21 21 13 17
28 27 27 26 27 27 28 29 30 30 29 28 28 27 26 25 24 25 22 19 20 20 16 12 13 9 25 19 14 15 15 20 20 18 19 20 21 16 18 17 16 19 21 19 18 18 18
28 29 31 31 31 30 30 30 30 31 31 31 29 29 28 25 23 22 19 13 11 6 7 17 12 16 15 14 17 15 13 18 20 20 18 23 16 20 24 24 23 22 20 22 15 10 17
28 29 29 29 29 31 31 31 31 31 30 31 32 31 30 26 21 13 10 8 13 12 18 25 36 36 35 16 14 19 16 17 21 18 20 19 23 24 23 25 26 27 26 24 14 21 20
27 28 28 28 29 30 30 27 29 31 32 32 32 32 31 27 14 6 13 17 12 14 13 25 39 41 42 33 29 24 23 23 16 22 22 23 22 23 24 25 27 27 26 23 20 20 22
29 29 27 28 29 30 33 32 32 32 30 31 31 31 31 30 4 8 9 7 10 13 7 11 21 26 35 35 36 36 31 29 20 22 23 24 24 24 26 27 27 26 26 27 25 15 12
29 28 28 28 30 30 30 32 33 33 31 30 28 27 29 17 22 16 10 12 15 8 7 4 17 6 18 36 6 36 39 34 27 24 19 23 25 26 26 28 28 26 26 26 25 12 18
26 26 26 27 29 28 28 31 33 32 30 29 28 25 25 17 14 11 11 15 10 7 11 7 12 12 18 26 30 11 34 36 32 27 25 25 25 27 26 22 27 25 25 25 22 19 17
25 26 27 27 27 27 29 31 31 32 32 33 29 25 20 21 20 9 5 8 6 11 8 14 16 15 21 21 27 17 23 27 22 24 25 25 26 25 24 25 25 28 23 16 17 17 16
28 28 27 27 27 28 30 32 30 31 34 35 30 29 21 18 16 8 8 8 16 12 28 16 15 19 21 22 25 24 22 22 27 26 18 21 20 27 22 28 24 26 26 16 21 17 19
28 26 25 27 29 31 30 28 28 30 34 36 32 26 25 16 16 14 17 15 11 19 19 20 23 20 23 25 24 26 27 23 25 29 25 20 24 19 30 23 26 26 25 27 26 23 17
29 28 28 29 28 26 26 27 27 29 31 31 31 28 22 13 16 21 14 29 17 25 25 22 23 22 26 25 27 27 27 27 25 28 28 24 18 23 22 24 28 29 18 23 20 25 25
27 27 27 26 26 27 26 26 26 27 28 26 21 16 20 7 14 19 17 24 26 42 40 29 29 30 28 25 28 28 28 24 27 25 27 26 22 19 24 26 26 18 22 23 20 21 17
27 27 27 26 26 26 27 26 25 25 26 19 18 9 2 7 14 16 18 27 32 31 41 31 29 33 31 30 28 28 30 27 24 21 29 26 17 19 25 24 27 29 27 27 17 21 19
27 27 27 27 26 26 24 22 21 21 19 17 16 25 25 25 15 16 24 30 31 28 29 32 32 31 29 30 28 30 29 27 29 27 25 20 21 16 24 23 23 30 27 24 24 21 24
29 29 29 28 26 25 24 22 20 18 16 11 10 6 20 22 31 24 23 26 27 33 24 28 27 24 32 32 29 29 28 29 24 22 7 14 18 27 18 21 18 24 29 28 26 18 20
29 30 29 28 27 25 24 22 18 16 15 9 7 8 18 12 18 21 13 23 18 24 28 25 22 21 19 21 29 29 30 30 27 23 14 15 17 21 28 28 25 26 27 27 26 24 23
30 29 28 28 27 25 23 21 19 15 13 11 6 12 15 22 27 24 19 17 25 23 23 19 19 20 21 19 14 18 22 27 25 25 19 21 17 18 22 24 27 26 26 27 28 29 27
30 30 29 28 26 25 22 20 18 15 14 10 11 17 11 13 16 16 18 20 19 23 18 25 19 11 21 17 29 37 36 36 29 23 21 20 16 16 20 24 24 24 28 22 21 24 24
30 30 28 28 27 24 21 19 17 15 18 16 15 15 6 8 14 17 26 21 17 23 11 24 25 6 14 26 36 30 30 25 24 24 25 21 20 16 17 18 24 19 19 25 24 22 20
30 30 28 26 25 22 19 18 17 16 16 19 19 17 7 4 16 19 27 12 17 27 16 24 33 23 10 7 8 12 13 17 20 26 24 20 16 15 15 19 18 21 16 9 17 19 16
29 28 26 24 23 20 16 16 16 16 12 16 19 20 12 5 10 23 19 23 16 14 14 19 28 12 9 3 2 3 5 11 17 22 13 15 8 12 13 18 25 18 17 7 8 6 9
30 26 23 21 18 16 14 15 16 15 13 16 19 15 18 6 24 23 18 14 14 5 8 18 14 10 10 4 3 3 5 10 12 18 14 12 8 13 13 14 19 6 9 14 12 5 6
25 22 19 17 14 12 13 14 15 15 12 13 15 11 19 11 23 28 30 29 24 23 10 9 10 7 8 8 6 6 7 10 14 13 15 10 10 12 11 9 8 22 12 19 3 3 4
22 20 17 15 15 14 13 15 12 10 11 12 15 11 14 21 21 29 24 29 31 27 23 17 9 13 7 3 2 3 8 8 13 10 15 13 15 11 11 9 6 10 9 8 6 5 7

GFSGBSN_850_spd_015.txt.gz
Wind_Speed
25 25 24 25 25 25 25 25 24 24 23 23 23 23 22 22 21 22 23 23 23 22 21 20 20 18 16 9 28 15 15 12 10 13 15 26 23 22 12 16 22 13 14 25 26 24 28
28 27 26 26 26 26 26 26 26 25 25 25 25 25 23 24 23 23 22 22 23 24 22 21 20 18 14 11 18 7 16 22 19 15 17 22 16 24 17 19 14 23 20 21 16 34 26
27 27 27 28 28 28 29 28 27 27 27 26 26 26 25 25 26 25 24 23 21 22 22 21 20 19 19 36 9 8 14 13 9 16 15 20 25 23 19 12 29 24 14 16 13 6 12
26 26 26 27 27 28 29 29 30 31 30 29 29 28 26 24 25 26 26 25 23 21 20 20 18 17 17 28 22 15 24 19 16 11 14 17 17 25 23 20 22 13 9 6 10 10 10
26 26 27 28 29 30 30 29 29 30 32 33 32 32 29 26 26 26 25 22 21 21 19 18 12 10 18 12 17 23 21 21 19 17 21 13 19 25 19 7 7 7 9 11 13 9 7
29 29 29 28 28 29 30 32 30 30 30 31 30 31 32 28 25 26 25 19 14 16 11 8 10 6 22 21 16 14 18 27 24 20 19 20 20 7 8 7 10 9 7 11 14 10 16
28 29 30 30 29 29 30 32 31 31 31 32 33 33 31 29 24 23 22 15 10 4 3 9 9 14 28 19 14 18 22 20 21 24 11 21 7 16 12 14 11 14 14 16 19 10 9
29 29 29 28 28 29 30 30 29 31 32 32 32 33 33 29 24 13 11 11 14 18 18 24 34 43 42 24 16 20 23 21 20 14 9 10 18 11 12 11 17 20 19 19 15 10 10
28 29 27 28 29 30 30 30 32 34 33 29 30 31 32 30 15 5 10 15 18 19 10 23 36 32 44 38 34 27 27 24 10 13 14 17 9 17 18 17 18 21 20 17 11 8 7
25 27 27 28 29 31 30 30 31 34 34 33 29 28 29 33 6 9 7 11 8 17 5 8 9 13 23 33 14 40 34 23 14 16 15 12 17 19 22 21 19 18 22 22 20 14 7
27 27 28 29 29 30 30 31 33 34 33 33 30 28 26 21 26 18 15 10 12 14 6 6 9 9 15 29 11 33 39 28 18 17 9 17 16 20 19 22 19 20 14 21 22 15 7
27 28 29 29 29 29 30 32 34 35 34 34 32 28 27 23 22 16 11 6 11 2 9 7 10 8 13 24 18 4 42 39 25 15 14 17 17 17 18 15 21 15 14 16 18 13 11
28 28 28 27 28 30 32 34 33 32 33 34 33 30 25 25 24 11 14 8 2 7 8 7 6 11 14 13 21 23 20 26 22 16 19 16 20 21 16 17 13 18 8 12 10 12 8
27 28 29 29 30 30 30 30 31 32 33 35 36 30 26 24 23 5 4 3 11 9 13 18 8 13 14 14 17 21 14 22 24 17 7 14 17 23 14 19 15 15 15 12 12 12 9
29 29 28 29 29 28 28 30 31 31 32 35 37 32 24 18 10 8 13 9 6 9 9 13 18 12 16 15 12 18 18 20 21 23 19 14 16 9 23 20 17 11 18 15 5 8 6
27 27 27 28 29 29 29 29 30 31 32 32 34 31 25 3 8 22 11 16 7 12 23 20 9 8 12 16 16 17 20 19 22 27 22 11 7 18 19 22 17 19 7 12 14 14 17
28 28 28 28 29 29 29 28 28 29 29 28 23 14 5 11 16 19 16 12 17 29 29 11 16 25 24 25 19 22 17 23 25 23 25 23 15 18 10 17 22 13 16 11 7 12 12
28 29 29 29 29 29 28 28 27 27 28 24 12 5 13 24 9 9 14 16 24 25 32 25 20 25 26 26 28 25 24 20 17 26 21 22 15 15 24 18 21 21 10 12 9 6 4
29 29 29 29 29 28 27 26 24 24 21 23 14 20 19 10 5 8 12 20 24 22 21 22 25 22 20 24 24 22 25 29 30 20 23 13 17 10 14 13 17 20 19 11 17 5 12
30 30 30 29 28 28 27 25 23 21 19 15 8 5 11 27 13 13 15 12 15 23 20 25 19 19 17 20 18 19 24 21 30 24 25 11 14 27 17 12 6 8 22 20 15 14 16
30 30 30 29 28 28 27 23 21 17 15 11 5 5 15 7 13 20 15 6 16 14 12 18 13 17 21 14 23 18 14 18 23 26 14 5 18 16 21 16 16 24 16 24 22 18 14
30 31 30 29 28 27 26 22 18 14 13 11 5 6 8 18 19 17 17 15 16 19 11 15 18 11 18 11 17 19 21 15 12 16 15 14 10 9 10 8 24 20 18 19 24 23 19
31 30 29 28 28 26 26 21 16 12 14 8 9 12 8 5 10 9 11 18 18 17 7 10 19 12 15 16 11 26 31 32 25 26 23 10 6 4 9 7 6 15 26 19 11 17 16
29 29 29 28 27 25 24 21 16 11 15 16 17 15 6 7 9 13 20 23 18 21 15 15 21 12 22 27 24 28 27 27 25 25 18 18 16 8 6 6 9 4 10 9 14 10 11
29 30 29 26 24 23 20 19 15 11 10 16 19 18 5 5 12 17 18 18 17 25 16 22 19 17 20 18 5 8 10 17 24 22 18 14 11 6 6 10 3 8 9 5 7 13 8
29 28 27 22 21 19 18 16 14 13 13 15 16 14 12 3 7 16 16 20 13 8 11 16 28 23 13 3 1 3 4 4 8 10 13 13 10 8 3 7 19 3 6 6 3 2 4
27 26 25 22 19 17 16 14 14 15 12 14 17 12 12 7 19 14 12 11 16 9 4 11 10 13 15 5 3 3 1 7 6 8 6 5 2 6 6 8 4 5 4 5 6 5 4
25 24 23 21 20 20 17 15 17 15 12 12 16 11 16 15 26 28 30 27 22 21 9 9 7 4 4 6 4 4 4 4 6 7 9 5 4 1 1 4 4 6 7 5 5 6 6
25 24 22 21 21 21 19 18 16 16 14 15 17 12 16 22 21 32 28 29 33 33 30 9 6 2 5 4 3 1 4 2 3 4 3 3 4 5 5 2 2 4 9 5 8 3 5

GFSGBSN_850_spd_018.txt.gz
Wind_Speed
25 24 23 23 22 22 22 22 23 24 24 25 25 25 24 23 23 23 23 23 22 21 21 20 20 18 16 12 28 13 11 2 10 18 18 19 19 17 6 7 6 8 9 23 26 25 9
27 26 25 25 26 27 27 27 26 25 24 24 24 24 25 25 24 24 24 22 22 22 22 21 19 18 14 11 17 6 11 19 18 18 16 18 17 26 8 11 7 9 13 16 25 28 17
27 27 26 27 27 28 29 30 29 28 28 27 26 25 25 25 25 26 26 24 23 22 22 21 20 18 20 37 8 7 6 11 10 19 22 17 21 15 4 8 14 15 7 11 13 31 4
26 27 28 27 27 27 27 29 29 28 28 29 30 30 28 26 26 25 25 24 24 23 20 20 19 16 19 24 19 22 25 23 17 19 15 10 14 24 19 18 12 5 2 5 7 10 17
27 28 29 29 28 28 28 28 29 29 30 29 29 30 30 28 26 25 25 23 22 19 17 15 13 10 17 13 19 18 26 24 21 16 21 12 16 22 11 4 5 4 6 6 12 13 12
27 28 28 27 27 28 28 28 29 30 33 33 30 31 30 27 25 24 23 19 13 10 5 4 8 6 17 15 5 8 22 28 24 20 24 21 12 5 1 4 6 6 4 6 7 4 7
27 27 26 26 27 28 30 30 30 31 33 33 32 32 32 28 24 22 17 11 10 3 15 15 17 18 24 13 12 12 19 29 24 17 8 13 4 12 9 7 6 5 6 8 14 5 6
23 25 26 27 27 28 30 30 30 33 34 34 32 32 33 30 27 14 7 9 13 16 18 23 32 42 44 36 12 11 23 23 14 11 6 4 12 7 8 7 9 10 12 18 12 7 5
26 26 27 28 28 28 29 29 31 34 35 35 33 32 34 32 21 4 9 5 14 19 7 16 31 31 32 30 24 32 11 30 9 9 9 12 8 13 10 11 10 14 15 19 10 6 1
26 26 27 29 30 29 30 31 33 35 35 35 34 33 34 35 7 22 9 9 12 10 4 8 7 10 18 14 11 42 28 28 6 18 12 8 14 12 18 14 11 10 12 19 10 2 4
26 27 28 29 29 30 31 32 34 34 33 34 32 31 31 26 30 26 19 12 8 2 5 3 5 3 14 19 10 25 40 23 15 9 8 8 17 17 15 16 16 13 9 14 13 9 2
26 26 27 28 28 29 30 31 31 32 33 34 34 29 28 27 29 16 17 10 2 4 8 7 6 7 8 8 3 4 25 25 9 8 10 11 15 13 15 13 18 14 6 9 3 9 7
26 27 26 27 27 28 29 31 32 33 34 36 36 34 23 30 27 19 17 8 3 5 4 4 5 7 3 8 7 2 20 16 14 7 11 10 17 7 8 9 9 8 7 6 6 7 11
25 26 26 27 28 29 30 31 32 33 34 36 37 35 29 25 29 19 6 3 6 5 9 7 10 12 5 4 7 7 7 17 14 5 4 11 12 14 8 17 10 9 13 9 10 4 5
26 27 28 28 28 29 29 30 31 32 34 35 37 34 28 18 8 6 4 4 7 6 6 12 11 4 7 8 13 7 14 16 15 18 12 8 12 3 19 11 15 11 7 13 6 3 1
27 27 28 28 29 29 29 29 30 31 33 33 34 26 23 13 11 8 2 5 6 3 12 9 3 3 10 13 9 17 5 7 13 23 22 11 4 9 21 15 20 11 7 4 1 12 15
27 27 27 28 28 28 28 27 28 28 30 30 28 14 12 7 22 8 6 7 6 30 14 8 14 14 16 11 9 10 10 15 7 9 22 20 8 10 3 11 15 8 10 2 4 6 10
28 28 28 27 27 27 27 27 25 25 26 27 12 4 23 22 7 2 5 6 13 18 32 12 10 18 16 16 17 10 12 9 26 17 9 12 14 16 23 10 11 21 13 11 8 9 6
29 29 28 28 27 26 25 25 24 21 19 22 17 13 20 19 4 6 10 9 8 11 8 7 5 7 8 5 6 8 8 12 24 14 8 10 6 10 7 8 2 7 14 16 6 4 16
30 29 28 28 26 26 25 24 25 19 16 15 7 4 7 10 9 9 8 7 11 14 9 4 5 4 7 2 2 6 12 10 31 23 23 14 7 12 19 21 6 6 12 14 19 13 13
29 29 28 27 26 26 25 23 22 16 13 10 3 4 7 4 6 9 9 8 10 10 11 7 4 10 4 4 6 5 4 12 12 7 14 8 6 7 15 19 20 11 11 19 20 23 20
29 29 29 28 26 25 24 21 19 13 12 9 4 4 6 12 11 6 4 3 8 12 8 7 5 11 3 3 10 16 11 4 4 7 11 6 5 8 8 16 25 22 19 21 18 21 21
28 29 28 28 26 23 22 20 17 12 11 7 9 10 9 6 5 3 3 7 14 17 9 11 15 8 11 13 15 14 21 19 14 6 5 4 4 9 6 7 20 14 31 20 13 13 14
27 29 28 28 25 21 21 19 16 10 12 12 14 13 5 6 5 6 11 19 16 12 8 16 15 6 7 26 25 23 25 23 23 16 18 8 9 4 6 6 18 10 18 16 9 7 9
27 28 27 26 25 22 20 18 15 13 10 14 14 15 4 5 8 13 11 10 17 19 13 14 14 15 20 12 4 6 5 5 12 17 22 18 13 4 4 3 6 5 3 10 9 9 8
27 26 25 24 23 23 22 19 16 13 12 13 17 15 13 3 6 10 8 12 9 7 5 6 14 16 9 2 3 4 4 7 4 4 23 22 20 11 4 3 9 6 5 7 7 2 4
27 26 24 23 21 22 23 20 17 17 13 13 17 13 13 9 13 11 6 5 6 5 4 11 8 7 4 3 5 4 4 5 6 8 4 2 9 13 15 7 8 4 8 2 9 7 3
26 26 25 23 23 22 22 21 19 17 15 15 16 11 14 14 25 26 28 25 18 14 8 9 8 1 2 3 4 3 4 5 4 5 8 4 2 3 3 6 6 23 12 9 5 7 6
26 27 26 26 25 23 22 19 16 16 14 13 17 10 13 17 26 37 41 39 36 37 23 11 7 5 5 3 2 4 4 4 6 4 8 6 4 4 4 1 11 18 7 7 16 18 14

GFSGBSN_850_spd_021.txt.gz
Wind_Speed
23 23 23 23 23 23 23 23 23 22 22 23 23 23 23 23 23 23 22 22 22 21 20 19 20 15 14 10 26 8 4 5 16 28 31 24 21 22 6 6 13 14 14 21 33 27 24
24 25 25 25 24 24 24 25 26 25 24 24 24 24 23 23 24 23 24 23 22 21 22 20 19 17 14 11 16 8 22 21 12 25 28 28 15 21 6 8 7 9 19 19 20 20 25
24 25 26 25 25 26 26 27 27 28 28 29 26 26 28 25 23 23 22 23 22 22 22 22 19 17 21 36 9 6 15 17 25 22 25 24 22 15 10 5 14 9 5 6 10 13 11
24 25 26 25 25 26 27 28 28 28 29 32 30 29 29 29 27 26 22 19 21 23 20 19 18 17 15 13 15 30 22 15 12 22 25 21 18 24 9 4 8 2 2 3 4 5 13
24 23 24 25 26 27 27 29 29 29 31 31 30 30 31 30 30 28 23 20 20 17 13 10 10 11 13 11 17 22 31 31 23 21 23 19 18 12 10 4 4 4 5 6 6 6 6
22 23 24 25 26 27 28 29 30 32 34 35 33 33 32 33 31 30 22 17 8 6 2 2 6 5 14 8 3 3 14 28 24 27 23 13 13 4 2 4 8 5 4 5 4 4 8
23 24 25 26 27 28 29 29 31 33 34 35 35 35 35 34 37 26 15 5 6 2 6 10 6 10 14 11 10 5 11 29 22 16 8 10 5 8 10 6 6 4 3 6 5 3 4
25 25 26 27 28 28 29 31 32 33 34 34 34 35 36 35 32 13 23 7 12 12 18 21 29 39 41 32 10 9 14 21 12 8 6 3 14 8 9 7 8 7 7 12 2 7 5
25 26 26 27 29 29 30 31 32 33 34 34 34 34 35 33 20 20 18 7 16 21 7 15 24 23 22 30 20 28 24 26 6 9 9 11 6 10 9 6 7 5 9 11 8 2 1
25 25 26 27 27 28 29 30 31 32 34 35 33 32 33 34 9 27 5 18 16 13 4 8 6 7 14 12 10 42 26 24 5 18 8 7 10 10 9 8 10 9 6 10 3 3 3
24 25 25 26 26 27 28 30 31 32 33 35 35 31 30 28 30 28 16 16 11 0 6 3 4 6 15 15 3 19 37 19 11 8 9 10 14 17 13 18 8 10 5 7 4 5 1
24 25 26 27 27 28 29 30 31 32 33 35 35 33 31 29 34 12 22 15 3 3 9 6 3 3 4 5 4 9 25 12 14 5 4 11 8 14 11 9 13 5 2 4 3 3 4
26 27 28 29 29 30 30 31 31 32 33 36 37 34 29 32 28 24 18 9 3 5 5 5 5 5 3 4 4 4 16 14 10 11 15 6 19 5 7 8 6 5 7 4 4 4 10
27 27 28 29 29 30 30 31 31 32 34 36 37 34 28 16 18 9 4 3 6 4 6 5 6 9 2 10 3 6 11 17 15 4 6 11 6 15 5 10 10 8 11 6 7 4 7
27 28 29 29 29 29 29 30 31 31 32 33 35 33 30 9 20 12 4 4 7 5 3 8 7 6 5 6 8 8 6 16 18 11 9 9 10 3 15 7 15 7 10 12 3 2 3
28 28 28 28 28 29 29 29 29 29 30 30 32 31 14 18 27 10 3 4 5 4 6 5 3 4 5 8 7 8 6 3 9 3 5 8 2 7 12 8 8 15 9 4 2 11 12
28 28 28 27 27 27 27 27 27 28 28 27 26 16 12 23 15 5 3 6 6 17 8 7 4 4 2 4 4 3 5 6 12 12 9 2 4 5 6 9 19 5 9 3 7 7 10
29 29 29 28 27 27 25 25 25 27 27 25 14 4 19 24 9 5 4 13 15 13 15 3 4 3 3 4 3 3 5 7 19 11 6 6 3 14 12 8 20 14 18 8 5 11 5
28 28 27 26 26 25 24 24 23 23 21 22 20 9 11 12 4 4 7 8 11 13 7 5 5 5 5 4 3 3 5 8 23 12 6 7 4 2 6 5 0 9 9 19 9 4 21
26 26 26 26 26 24 23 22 22 20 17 14 8 4 6 5 6 3 5 4 11 14 10 11 3 3 4 4 4 4 5 3 18 13 10 3 3 3 7 6 0 8 12 16 17 10 16
26 26 28 26 26 25 20 20 19 17 14 9 3 3 2 4 5 5 7 5 6 8 6 14 3 7 3 1 2 2 4 8 11 10 6 4 2 4 7 15 18 15 13 23 19 22 16
25 25 26 26 25 22 19 19 17 14 13 5 4 3 3 6 8 7 5 4 4 6 5 8 7 12 7 4 4 5 3 2 4 6 7 5 3 6 6 10 13 17 19 25 24 22 16
26 27 26 25 24 21 20 17 15 13 12 4 6 11 8 4 4 3 3 3 6 14 9 5 9 11 7 3 11 17 17 14 8 3 2 2 1 5 6 9 14 11 29 21 20 15 17
28 28 26 24 23 21 20 18 15 12 11 9 12 13 6 4 6 7 7 14 15 13 12 21 19 7 8 22 20 15 17 23 21 15 17 4 4 2 4 7 8 11 12 17 20 8 9
27 26 25 24 23 22 20 20 16 12 9 14 14 12 5 4 10 10 12 9 16 16 16 15 23 13 18 14 4 5 5 2 13 22 20 18 5 3 3 3 10 16 8 12 10 12 7
24 24 25 25 23 22 20 19 17 14 12 15 15 13 12 6 6 12 5 10 10 6 4 5 11 23 8 3 2 5 4 4 4 5 21 18 18 9 5 4 6 2 13 22 5 17 11
25 24 24 24 24 23 22 20 16 15 13 14 16 11 13 11 15 20 9 4 7 4 4 8 7 5 3 1 3 4 5 4 5 4 4 8 8 15 9 5 8 7 24 15 7 13 7
26 26 26 27 26 26 25 22 19 16 15 15 17 12 15 14 26 27 29 21 17 12 6 6 9 2 2 2 4 4 4 5 5 6 5 12 10 8 6 7 9 18 14 7 12 23 2
27 27 29 30 30 30 28 24 20 18 16 15 19 13 15 17 25 28 33 35 34 35 22 12 9 5 3 2 1 3 3 3 3 4 7 8 7 10 8 8 4 4 9 22 19 9 12

GFSGBSN_850_spd_024.txt.gz
Wind_Speed
23 23 24 23 23 23 24 25 24 24 24 25 25 24 23 25 25 24 24 23 21 19 18 18 18 15 14 11 27 12 5 1 20 33 35 31 31 12 7 6 10 8 8 13 23 10 16
25 24 25 24 24 24 25 26 26 26 27 27 25 25 25 26 26 26 26 26 26 22 19 18 18 16 15 8 13 8 19 13 16 34 30 34 22 24 3 4 8 6 18 22 14 13 10
24 22 22 23 25 25 26 27 26 26 28 29 28 28 29 28 29 28 27 27 26 23 21 19 17 17 20 30 9 7 13 24 13 30 32 32 15 22 9 4 12 15 7 6 10 11 9
22 24 24 25 26 26 26 27 27 29 31 31 31 30 31 32 32 32 28 28 21 21 20 17 14 17 14 9 22 31 11 19 25 20 27 28 27 16 5 3 5 2 1 2 2 8 7
24 24 24 25 26 26 27 28 29 30 31 32 32 33 33 32 33 35 23 22 16 15 13 9 8 12 10 11 21 23 33 21 23 19 21 14 24 11 6 3 4 3 5 6 4 10 3
24 25 26 26 27 27 28 29 31 31 31 32 33 34 34 34 34 24 25 16 8 7 3 3 5 4 15 6 3 11 22 32 23 24 15 15 9 4 3 5 11 5 4 4 4 3 6
25 25 26 27 28 28 29 30 31 32 32 33 33 35 34 33 32 21 23 7 7 2 6 11 4 7 3 9 7 7 13 27 18 20 8 10 5 13 10 6 5 6 4 3 3 2 4
25 26 26 27 28 28 29 30 32 33 34 34 34 35 36 31 31 18 11 11 12 12 16 21 30 40 29 6 3 14 15 19 13 7 9 4 20 10 9 9 8 6 6 7 4 7 2
25 26 26 27 28 29 30 31 32 33 34 34 34 34 36 32 22 19 5 14 18 20 6 15 20 20 26 31 20 22 22 16 6 9 17 18 6 11 12 7 9 6 11 5 4 2 1
25 26 27 28 29 30 30 31 32 33 34 35 35 34 35 37 12 27 4 14 19 12 3 7 5 5 12 11 8 35 29 20 5 21 8 8 6 13 8 12 10 8 8 7 7 4 4
26 27 28 29 30 30 31 32 33 34 35 35 34 33 33 34 31 24 12 17 14 2 6 1 2 7 12 10 0 13 32 17 10 9 9 10 13 15 12 9 8 10 7 8 5 6 2
27 28 29 30 30 31 32 33 33 34 35 35 34 32 37 31 23 20 23 14 1 3 9 4 4 1 4 5 3 5 18 9 10 6 1 9 6 13 11 7 9 7 4 5 5 4 5
28 29 30 30 31 31 32 32 33 34 36 36 33 32 34 14 26 22 20 6 3 5 6 5 4 5 5 4 3 4 10 13 11 7 9 5 16 3 6 7 4 5 8 2 2 3 10
29 30 31 31 30 31 32 32 32 33 34 34 33 32 21 14 23 24 8 3 5 2 4 4 5 7 3 8 4 5 9 16 5 5 6 9 6 16 5 9 9 8 9 6 8 5 6
29 30 30 30 30 30 31 30 31 32 34 34 32 29 15 21 24 19 8 1 4 3 6 10 8 4 4 5 2 4 4 2 7 2 7 8 9 3 7 5 16 6 11 9 4 1 2
27 28 28 28 28 28 28 28 29 31 33 33 34 24 19 24 24 6 4 4 5 8 14 6 4 6 5 6 5 6 5 8 10 7 4 3 2 7 16 6 8 10 8 4 2 6 6
26 27 28 28 28 28 27 26 27 29 32 30 25 12 16 23 10 6 3 5 6 16 17 4 5 6 4 4 5 4 5 6 12 9 7 6 3 2 7 10 20 3 6 3 6 6 6
26 25 26 27 27 27 26 25 26 27 29 28 13 4 17 17 8 4 3 6 11 13 19 5 5 6 4 5 4 4 4 4 15 10 4 1 2 7 6 2 5 21 11 8 6 11 4
25 25 26 27 26 27 26 24 24 24 24 25 18 6 11 14 4 4 7 6 4 9 9 8 5 4 4 4 3 5 4 5 17 9 4 6 2 2 4 5 1 4 13 7 13 3 16
24 25 25 25 25 24 23 22 22 22 20 18 9 5 7 8 6 3 6 5 6 8 4 10 6 7 6 6 5 4 6 5 11 7 7 3 1 4 3 1 3 6 5 8 16 12 18
25 25 25 24 24 24 22 21 20 19 17 13 4 2 3 4 4 5 5 4 7 7 7 4 5 9 5 3 5 3 5 5 4 7 4 4 0 2 2 12 7 11 14 12 10 22 15
25 26 26 25 24 23 22 21 19 18 16 8 4 3 3 7 9 8 3 3 3 5 4 6 1 11 12 3 3 3 6 2 4 5 4 4 2 2 4 9 10 12 13 14 14 10 10
25 25 25 25 23 22 21 19 18 17 16 5 6 9 7 4 3 2 3 4 4 12 11 12 6 11 8 8 9 16 17 16 11 4 3 3 3 2 4 6 12 15 9 15 9 8 12
25 25 26 25 24 22 21 19 17 15 15 10 12 13 6 3 3 4 8 14 13 12 10 20 17 9 5 21 21 16 18 19 16 13 13 2 1 4 4 4 7 4 9 9 14 17 17
24 24 25 25 24 24 23 21 18 15 14 15 14 10 5 5 9 12 15 13 13 14 12 14 23 15 16 8 4 6 3 2 9 18 14 15 5 3 4 6 13 19 4 5 0 8 11
23 24 25 25 26 25 24 23 20 16 13 15 15 12 12 7 6 14 8 13 5 7 6 4 13 12 5 2 0 3 4 4 4 4 13 10 12 2 1 6 7 3 1 8 4 5 6
23 24 26 27 28 28 28 28 24 19 16 16 17 14 11 10 19 16 7 6 4 5 3 8 6 8 1 1 3 4 5 3 4 3 4 6 7 15 11 6 6 5 6 6 5 5 19
27 28 28 29 30 30 28 27 26 20 18 18 21 15 15 13 26 27 24 20 18 11 4 4 7 2 1 3 3 3 4 4 4 6 5 7 8 6 8 6 15 1 1 2 5 18 23
30 32 33 33 33 31 28 28 28 21 18 17 23 20 13 19 24 33 37 38 34 34 19 10 8 3 4 2 3 2 3 2 4 5 6 8 8 4 9 7 8 6 7 7 7 15 17

GFSGBSN_850_spd_027.txt.gz
Wind_Speed
21 20 21 22 23 23 23 23 23 23 23 23 23 23 24 24 24 24 24 26 25 23 21 20 17 16 14 10 26 9 3 2 18 29 31 30 31 17 12 10 7 15 10 8 12 14 13
22 21 22 23 23 24 24 24 24 24 25 25 25 25 26 26 26 25 26 29 27 23 20 19 20 17 14 9 10 12 20 13 16 31 30 27 22 16 9 7 13 5 10 12 10 15 11
22 21 22 23 24 24 25 26 26 26 27 27 28 28 29 28 27 27 28 23 26 22 17 17 18 18 19 27 12 10 15 19 12 32 34 33 14 21 7 4 11 11 12 11 13 9 8
24 24 24 24 25 26 26 27 27 27 28 29 29 29 30 30 29 29 23 26 23 16 13 14 16 17 13 9 29 15 16 19 19 27 26 29 17 19 5 1 2 5 4 5 1 10 6
24 25 25 26 26 26 26 27 28 28 29 29 30 31 29 30 30 26 25 21 15 12 7 6 9 13 8 11 23 28 19 22 27 29 19 20 16 11 6 8 6 6 10 8 7 9 3
25 25 26 27 27 28 29 29 30 30 30 31 31 32 31 30 30 22 21 16 11 11 4 3 4 6 13 5 8 19 33 23 26 24 14 9 11 12 10 12 14 10 10 9 12 3 8
25 26 27 28 29 29 30 31 31 32 31 31 32 34 34 30 29 21 18 8 7 3 7 10 4 6 5 6 6 15 36 28 18 21 13 22 13 22 23 18 15 8 16 10 5 7 9
25 26 26 27 27 28 30 31 31 32 32 32 33 33 36 33 25 15 10 7 10 12 15 18 24 34 23 3 4 14 34 23 18 17 16 9 25 21 16 15 17 16 18 16 8 9 4
25 26 27 29 30 31 31 32 32 33 33 33 34 33 34 35 18 22 9 5 14 22 7 13 14 13 18 28 9 20 34 21 23 23 27 24 6 19 19 16 18 22 23 19 13 2 4
26 27 28 29 30 30 31 32 33 34 34 33 33 34 34 34 13 22 4 10 19 16 5 6 5 5 10 12 10 24 30 22 11 26 22 21 20 22 22 25 22 22 17 15 15 9 14
27 28 29 30 30 31 31 32 33 34 34 34 33 34 32 26 19 20 22 18 13 1 6 4 4 6 8 12 1 13 34 17 20 20 17 18 23 19 25 24 23 17 12 16 15 14 10
26 27 28 28 29 29 30 31 32 34 34 33 33 32 28 18 19 24 25 14 2 4 9 1 4 3 5 11 3 4 17 20 14 10 21 20 10 25 16 19 21 13 12 7 4 9 15
27 27 28 29 30 30 31 32 33 35 35 35 34 31 15 17 23 23 24 5 4 6 7 5 4 6 4 2 5 5 18 25 17 16 17 21 14 10 18 17 17 20 15 7 10 11 15
26 27 28 29 30 31 31 32 32 34 35 35 33 27 12 19 21 21 18 3 8 4 6 11 9 15 3 4 1 2 15 22 20 17 15 18 16 23 16 17 15 25 21 9 13 13 11
26 28 28 29 29 30 30 30 31 33 34 35 33 24 15 25 24 19 6 5 5 9 9 13 14 4 1 3 4 3 5 19 19 9 12 17 18 6 20 12 22 14 23 22 6 1 4
27 27 26 27 28 28 29 29 31 33 34 35 34 21 18 27 18 8 2 2 3 11 14 8 5 7 6 9 4 2 3 6 5 3 5 6 6 13 18 21 22 15 17 10 13 12 12
25 26 26 27 28 28 28 28 28 30 33 33 25 9 20 21 11 6 3 5 5 10 15 7 9 7 7 7 7 4 6 7 9 8 5 1 5 3 14 19 22 9 17 10 11 9 7
25 25 25 25 25 25 25 27 27 28 29 30 16 3 19 17 9 4 4 11 9 11 11 5 6 6 5 6 5 4 3 6 17 9 3 5 2 12 15 12 21 24 19 21 11 11 12
23 23 24 24 23 24 25 25 26 25 26 27 13 5 11 16 5 7 10 7 7 11 10 7 6 9 5 5 3 6 6 6 15 12 6 5 3 10 12 11 8 18 23 21 21 10 15
23 24 25 25 23 22 23 24 24 23 23 21 7 4 6 7 4 6 9 6 8 13 4 7 6 6 7 3 3 3 4 4 10 10 9 4 1 7 13 7 4 4 6 19 23 16 19
24 24 24 26 26 23 21 20 22 22 20 15 6 2 2 5 6 10 11 5 11 9 8 9 1 8 8 4 5 5 8 7 4 11 7 4 1 4 5 8 8 10 12 12 15 21 23
22 23 24 25 25 24 21 19 20 20 19 11 5 3 3 11 10 8 6 2 7 7 10 9 6 10 9 5 8 7 10 5 3 6 6 6 1 3 8 9 8 14 15 14 16 19 17
21 22 23 23 24 24 23 21 18 19 16 6 6 8 6 5 4 5 3 6 10 15 8 5 7 10 12 11 11 15 16 17 15 10 5 5 3 3 6 6 14 16 23 19 17 15 16
22 23 24 23 24 24 23 21 18 16 16 13 10 10 6 4 4 6 12 15 15 14 11 22 21 11 6 14 19 16 15 17 17 17 14 4 2 3 6 4 10 8 3 7 14 14 20
23 24 25 26 27 27 25 23 20 16 15 15 13 10 5 4 10 13 13 12 14 17 14 16 15 6 12 10 5 6 3 4 10 17 16 17 8 4 5 12 16 19 8 2 3 13 7
25 26 28 29 29 30 29 27 23 21 16 16 15 11 12 7 6 10 9 12 11 8 9 8 10 7 4 2 2 3 3 3 3 3 4 14 14 7 5 8 12 3 15 10 4 14 4
27 28 30 31 32 32 31 30 24 23 18 18 19 14 12 9 16 14 8 8 4 4 5 8 5 4 3 3 4 5 5 4 5 6 4 6 8 16 14 11 9 11 7 4 10 1 6
29 31 32 34 34 33 32 31 28 24 21 17 21 19 14 11 22 23 22 19 17 11 6 5 8 3 3 4 3 4 4 4 5 9 6 9 7 7 11 12 21 10 16 18 6 9 14
32 33 35 36 35 35 34 30 28 27 22 16 21 20 17 18 23 32 30 31 30 30 22 11 10 2 2 2 1 2 4 3 5 5 9 11 14 8 10 10 13 15 18 21 15 17 17

GFSGBSN_850_spd_030.txt.gz
Wind_Speed
20 20 21 21 22 22 22 22 23 23 23 23 23 23 23 23 23 24 24 25 24 22 21 20 20 16 11 10 18 8 8 1 18 29 29 30 29 27 18 17 12 17 9 6 11 9 8
21 21 22 22 23 23 24 24 24 24 25 25 25 26 27 25 25 26 28 25 24 21 19 19 19 15 10 16 11 12 20 13 22 29 29 29 29 23 14 12 16 8 17 11 11 12 11
22 22 23 23 23 24 24 24 25 25 25 26 27 28 29 29 27 28 28 24 25 19 16 17 17 15 14 23 13 10 14 18 23 28 31 29 19 25 9 13 13 13 11 12 15 13 9
23 23 24 25 25 26 26 26 26 27 27 27 29 29 30 30 29 28 26 24 23 16 11 11 13 12 12 11 20 13 15 18 20 21 23 24 13 27 13 3 7 15 17 14 17 18 14
23 24 25 26 26 27 28 28 28 28 28 29 31 32 31 32 32 26 25 23 20 16 9 4 7 10 8 13 19 22 19 21 23 19 20 20 18 22 22 14 13 13 14 19 13 13 9
24 25 26 27 27 27 27 28 28 29 30 30 31 33 32 32 33 23 21 22 17 13 4 1 3 7 12 6 10 24 20 16 27 22 19 21 19 16 17 17 18 18 18 17 17 13 14
23 24 25 25 26 26 27 28 28 29 30 31 32 33 34 32 31 16 23 14 8 4 7 11 3 7 1 5 9 18 32 23 24 27 19 25 19 25 27 23 18 18 19 19 17 15 12
23 24 25 25 26 27 28 28 29 29 31 32 33 33 32 31 24 20 13 5 8 8 18 20 27 30 20 3 11 17 34 25 28 27 23 17 26 23 22 21 20 21 19 20 15 10 8
23 25 26 27 28 28 29 30 30 31 32 33 33 33 33 32 16 20 10 8 13 14 9 15 16 21 19 25 14 25 39 36 27 28 31 26 13 23 22 22 22 23 24 21 17 12 15
24 25 27 28 28 28 29 29 30 31 32 32 32 31 31 29 10 19 6 19 16 10 6 7 8 6 15 17 14 22 39 39 19 29 28 27 21 21 24 26 23 24 24 20 19 16 15
24 25 26 26 26 27 28 29 30 30 30 31 31 29 28 22 18 11 20 22 14 2 6 7 7 7 8 21 7 27 33 37 23 23 26 22 27 22 27 27 25 21 18 17 20 17 18
25 25 26 26 27 28 30 32 33 34 33 32 31 27 21 17 13 17 24 20 2 6 10 5 6 7 9 17 9 12 29 33 29 23 25 27 17 24 22 18 21 15 16 13 16 17 20
25 24 25 27 29 30 32 32 32 32 33 33 31 24 14 15 16 25 22 8 7 9 5 5 6 4 8 10 19 13 27 31 21 23 29 26 28 18 19 21 20 22 17 9 11 15 19
23 25 27 27 28 29 30 31 32 33 34 33 31 21 10 15 22 23 13 8 12 3 12 18 11 17 12 6 11 18 19 25 32 26 16 20 21 30 25 28 19 27 23 10 16 14 16
24 24 24 26 27 27 28 29 30 32 33 33 28 13 9 19 20 15 11 9 7 12 13 14 19 10 10 6 5 11 20 22 32 28 25 21 26 29 20 21 25 24 25 27 4 3 8
22 23 24 25 24 25 27 28 29 30 31 31 24 9 11 22 16 9 8 6 9 11 18 13 14 6 7 5 8 7 14 6 17 32 1 15 18 19 26 26 24 21 25 21 14 15 18
22 23 22 22 23 24 26 28 29 30 31 29 15 8 14 19 11 9 5 8 12 15 14 10 14 13 11 10 9 5 3 8 8 4 8 15 14 22 22 25 24 22 16 22 18 17 11
21 22 22 22 23 24 25 27 28 30 32 23 14 6 16 17 4 5 6 8 13 12 15 12 10 12 13 11 10 4 4 10 10 6 12 11 10 11 24 24 26 28 24 27 14 23 18
21 21 22 22 23 23 24 26 26 28 29 21 14 7 13 14 6 7 9 8 8 12 11 12 10 12 13 14 5 3 2 4 12 10 2 2 13 15 16 19 23 30 29 25 24 15 21
20 21 22 23 23 23 23 24 24 25 24 17 10 5 7 6 4 11 11 11 10 8 6 17 9 14 17 14 11 5 4 5 10 10 9 6 13 21 19 18 17 25 29 28 27 19 18
21 22 22 23 24 23 22 22 22 22 21 13 7 6 6 7 10 13 12 12 11 9 11 12 5 11 10 7 10 10 7 11 2 9 9 7 12 7 12 4 5 12 27 29 30 27 25
21 21 22 22 23 24 23 22 21 21 20 7 8 5 5 15 12 11 5 6 10 12 12 10 9 11 7 9 10 9 12 9 6 8 9 6 3 5 13 10 8 11 14 15 20 23 25
22 22 23 23 24 25 25 23 20 18 17 6 5 6 4 7 10 9 7 10 14 14 9 6 13 14 14 7 12 15 17 18 16 12 9 6 6 6 14 9 10 15 22 20 19 19 17
22 24 24 25 26 26 26 25 22 17 20 14 10 7 4 5 6 10 14 16 13 13 12 19 17 14 8 15 18 21 21 21 15 14 12 8 7 8 6 7 15 10 8 19 25 21 21
23 25 26 27 27 28 28 27 26 22 19 18 17 9 5 4 11 14 12 10 14 14 18 14 15 9 11 14 10 9 11 10 14 15 14 13 9 7 11 13 10 7 5 7 11 16 18
25 26 28 29 30 30 29 27 27 24 20 19 19 18 10 5 6 8 15 14 11 10 11 9 6 10 9 7 5 7 5 2 3 7 14 14 12 9 8 16 16 4 16 10 5 10 11
28 29 29 31 32 31 30 29 27 25 21 18 21 21 14 9 14 8 6 8 9 9 7 11 9 7 6 8 6 6 8 4 8 12 8 13 13 15 14 13 9 13 7 4 13 5 8
30 31 32 32 32 31 30 29 26 24 23 16 20 18 21 9 19 19 17 18 16 14 8 6 8 6 4 3 4 5 7 6 10 13 11 10 12 13 15 18 23 12 12 13 12 15 14
32 33 32 33 32 31 31 30 26 29 20 14 19 20 18 21 14 20 24 24 25 25 21 7 8 7 3 3 3 3 4 3 8 10 10 15 13 12 12 13 13 13 16 18 16 22 21

GFSGBSN_850_spd_033.txt.gz
Wind_Speed
20 21 21 21 21 21 21 21 22 22 23 24 25 26 26 26 26 27 27 26 25 22 23 20 18 12 9 12 21 14 8 6 17 30 30 30 31 29 23 20 16 18 17 12 4 5 5
21 21 21 21 22 22 22 22 22 23 24 25 26 27 27 28 28 29 29 26 24 24 22 19 16 13 11 19 10 16 12 14 16 31 31 31 30 30 25 21 19 16 19 12 11 12 10
22 22 22 23 23 23 23 23 24 24 25 26 28 28 29 29 30 30 30 27 24 23 18 16 13 12 15 24 9 10 16 19 19 29 30 29 26 27 25 16 19 23 8 16 15 14 9
21 21 22 23 23 24 24 25 25 26 27 28 29 29 30 31 31 30 29 27 23 23 18 12 7 10 13 6 22 13 16 20 20 24 24 24 27 26 28 18 8 19 19 17 20 18 16
22 22 23 23 24 24 25 26 27 28 29 30 32 33 33 32 32 31 23 26 25 19 13 4 3 10 12 11 18 24 20 25 24 23 23 22 26 21 27 18 14 17 18 23 20 22 16
21 22 23 24 25 25 25 26 27 28 29 30 31 32 32 33 33 27 27 21 24 14 8 2 6 7 17 12 14 22 24 25 27 23 23 23 23 18 20 20 20 22 23 21 22 17 18
21 23 23 24 25 25 26 27 27 28 29 30 30 31 31 31 29 25 27 18 9 4 10 16 7 16 4 9 8 21 28 25 28 26 19 29 20 26 29 27 24 22 21 23 22 17 22
22 23 24 25 25 26 27 27 28 30 31 31 31 31 30 29 21 25 19 16 10 12 19 27 37 35 29 11 13 20 30 28 30 26 25 19 27 26 25 27 25 27 25 23 21 14 13
21 22 23 24 25 26 26 26 27 28 28 29 29 29 30 26 16 18 11 18 16 15 11 22 33 33 30 31 19 28 40 38 29 30 29 27 20 27 26 26 27 28 27 23 19 21 17
21 22 22 24 25 26 26 28 29 30 29 29 29 27 25 24 9 17 10 22 18 12 7 9 10 10 28 25 22 29 40 42 21 33 31 29 25 25 27 27 26 26 26 23 20 19 18
21 22 23 23 24 26 28 29 30 31 31 31 30 28 22 18 12 13 20 22 18 5 7 13 10 7 12 29 9 35 37 45 27 26 29 31 28 23 27 27 25 25 20 25 23 22 20
21 21 22 24 26 28 30 31 31 31 30 29 28 25 20 12 12 15 22 20 7 8 10 7 7 10 14 26 28 27 36 43 40 25 27 30 25 24 22 23 23 21 16 19 22 19 21
20 21 22 24 25 27 28 29 29 29 29 28 26 21 13 10 15 21 19 12 8 11 1 9 11 10 12 17 24 17 32 32 29 29 29 28 32 24 22 22 24 18 19 12 16 18 20
21 22 24 25 24 23 25 25 27 29 29 29 25 17 9 10 18 17 15 12 14 19 15 21 19 22 20 19 22 24 27 26 35 30 19 22 24 33 21 28 24 26 25 15 21 18 17
21 22 24 25 24 23 23 26 28 30 30 30 23 10 4 17 17 13 14 12 12 13 18 19 26 20 18 22 7 25 27 28 30 34 31 25 32 31 31 24 27 23 25 27 22 23 14
21 22 22 23 24 24 25 26 28 31 31 30 20 15 4 21 15 10 10 15 13 12 17 16 20 16 22 15 9 16 23 24 26 34 30 28 18 31 31 26 29 27 25 23 17 18 16
21 22 22 23 24 26 26 27 29 30 32 26 17 13 9 19 10 13 9 11 17 19 15 13 20 21 18 19 25 17 20 8 10 14 33 32 20 18 25 29 27 26 22 24 20 18 13
20 22 23 23 24 25 28 29 29 30 32 25 15 7 17 17 16 2 7 9 8 13 15 14 15 19 18 13 18 20 16 10 13 14 15 22 14 20 31 28 26 27 28 27 17 24 17
20 21 22 24 24 25 26 29 30 29 29 25 16 16 6 15 7 9 9 13 9 12 9 9 12 13 19 17 8 14 11 9 12 11 8 8 14 16 21 25 28 31 31 24 27 18 21
20 20 22 23 24 25 25 26 29 27 26 19 12 5 13 12 10 12 13 15 14 6 8 13 7 8 16 17 16 11 10 12 8 9 16 10 16 23 17 24 23 28 28 30 24 19 18
20 21 21 22 24 25 26 25 26 26 24 14 9 6 7 7 11 12 13 13 12 7 10 14 1 7 8 8 17 9 11 15 11 3 11 6 15 20 26 17 8 28 31 31 30 24 24
21 22 22 23 25 26 26 26 25 23 21 11 10 8 11 19 9 14 12 13 10 13 14 15 8 15 11 12 12 15 13 13 5 13 11 11 12 18 24 23 6 13 20 33 30 28 25
23 23 24 25 26 27 27 26 25 21 18 9 14 15 8 10 11 8 11 13 13 17 12 10 10 13 15 9 16 20 13 21 17 14 13 12 10 8 15 20 11 17 20 19 23 27 24
24 24 24 26 27 28 28 27 26 22 16 17 20 16 7 6 8 11 13 17 15 13 15 19 19 14 19 18 18 23 24 21 19 15 14 13 10 8 10 17 23 13 16 16 15 15 13
26 26 26 27 28 29 29 28 26 24 17 19 23 13 6 5 10 15 11 12 15 15 17 19 20 13 15 16 14 15 14 13 17 16 14 13 10 7 10 13 5 16 15 20 22 21 17
27 28 29 30 30 30 29 28 26 24 18 20 21 15 14 6 7 4 15 22 9 10 14 6 14 11 12 8 8 11 10 9 13 15 16 14 12 11 9 14 18 7 13 3 3 11 15
31 31 31 30 30 29 29 28 27 24 18 18 23 17 16 7 17 20 7 10 11 9 8 15 11 11 8 5 7 7 12 4 9 8 19 13 12 15 14 10 11 6 5 7 13 5 1
32 31 31 30 30 29 28 28 27 23 16 17 20 17 17 11 24 26 25 20 15 13 7 10 11 9 8 3 5 4 8 3 11 14 11 11 15 14 15 18 21 12 6 6 8 9 15
32 31 31 30 29 28 27 27 25 21 18 13 18 16 14 22 13 15 20 26 25 21 15 6 13 16 3 3 3 5 7 4 11 11 15 14 13 10 15 12 9 11 12 17 4 6 11

GFSGBSN_850_spd_036.txt.gz
Wind_Speed
19 19 19 20 20 20 21 21 22 23 24 25 26 27 27 28 29 29 29 29 26 24 22 21 16 12 11 11 21 11 14 4 19 26 27 28 30 30 23 21 23 19 19 24 12 20 30
19 20 20 21 21 22 22 23 24 24 25 26 27 28 28 29 30 30 31 30 26 24 21 18 14 11 14 18 14 18 10 13 18 28 30 29 29 29 26 25 21 20 22 23 34 19 7
21 21 22 22 23 23 24 24 24 25 26 26 27 27 28 29 30 30 29 28 25 24 21 17 14 10 15 29 7 10 16 16 19 26 31 29 29 28 30 21 28 24 17 17 16 13 10
22 23 23 23 24 24 25 25 26 27 28 29 29 29 29 30 31 30 28 29 26 24 21 14 9 9 14 6 18 18 16 21 19 20 27 24 27 26 29 25 21 20 18 17 17 17 13
21 21 22 23 23 24 25 26 27 28 28 29 30 31 30 31 31 29 28 25 27 21 17 5 2 8 12 8 23 24 21 24 22 22 23 25 25 29 25 21 19 21 17 22 19 19 17
21 22 23 24 25 26 26 27 28 29 30 30 31 30 29 29 28 27 27 27 21 15 11 3 8 9 18 14 14 24 27 23 26 24 24 28 25 20 21 19 21 19 21 18 21 22 23
22 24 24 25 27 27 28 29 30 30 31 31 31 31 29 26 22 24 25 23 31 2 11 23 12 19 14 7 6 18 29 26 29 29 23 29 18 25 30 25 24 21 21 24 19 22 26
23 23 24 25 26 27 27 28 28 29 30 31 31 31 29 24 17 20 17 22 17 17 28 27 38 42 41 28 20 19 28 32 29 26 25 22 28 26 26 25 27 27 25 24 21 23 17
22 22 23 24 25 25 26 28 29 31 32 33 34 32 30 24 13 18 13 20 20 20 15 29 40 38 46 34 32 24 35 39 28 30 29 27 19 26 26 26 27 28 27 24 22 21 17
22 23 24 24 23 24 27 30 32 34 35 34 34 34 29 28 9 15 18 24 21 18 8 10 13 11 37 30 34 33 35 38 26 31 30 27 30 29 27 27 26 27 28 26 25 21 17
21 23 24 25 27 30 31 31 33 34 34 34 32 31 25 15 18 13 24 24 20 9 7 9 8 4 9 33 6 40 36 40 31 26 30 29 26 28 28 29 28 25 24 24 26 22 18
21 23 25 28 31 32 32 32 32 32 32 32 31 30 24 12 15 18 24 23 14 6 9 11 14 24 10 28 34 13 45 42 38 27 28 31 32 25 25 23 26 24 23 23 23 18 18
21 23 25 27 28 29 29 30 31 32 32 33 31 23 12 9 10 23 21 17 6 8 16 17 29 28 28 22 24 30 30 31 27 29 27 28 34 29 26 21 25 23 21 13 16 17 16
22 23 24 26 28 29 29 30 32 33 35 37 34 11 11 8 17 20 17 12 10 12 20 25 25 28 22 20 23 26 25 27 33 31 18 22 25 35 26 29 24 27 25 15 21 18 16
21 22 24 26 27 29 30 32 34 36 37 38 30 17 12 6 19 16 16 10 7 14 15 19 24 20 20 28 23 25 30 29 30 34 31 24 29 28 33 24 27 23 26 24 20 20 16
20 22 23 24 25 28 31 32 34 36 38 39 30 22 16 9 18 12 11 14 13 11 17 20 20 21 23 26 24 25 15 27 27 32 31 30 18 30 32 28 29 31 22 21 17 21 20
20 21 22 23 24 27 30 33 35 37 40 38 20 16 6 17 14 17 11 11 16 23 19 18 20 20 21 13 21 24 11 21 25 18 30 31 25 22 28 31 28 22 21 24 19 17 15
19 21 22 23 24 25 28 32 35 35 39 38 15 9 19 15 20 10 9 11 17 17 25 16 18 17 7 11 16 13 18 12 34 25 18 19 23 22 27 28 31 28 28 25 13 22 15
20 21 22 24 25 25 26 29 33 34 33 37 19 25 10 17 8 11 14 15 18 7 12 13 20 16 18 12 10 10 17 22 35 26 12 12 14 19 25 23 30 33 30 27 22 18 19
20 21 22 24 25 26 26 27 29 32 30 26 14 8 18 15 17 19 17 14 13 20 5 3 18 15 14 19 11 4 15 14 32 28 18 8 10 20 18 22 18 28 30 28 27 18 16
22 23 24 25 25 26 26 26 27 27 27 14 11 6 12 7 15 17 15 15 8 16 6 32 14 2 15 14 13 8 14 23 20 23 22 8 14 16 23 25 16 27 26 30 31 21 22
23 24 24 26 26 26 26 26 26 25 24 10 7 7 9 21 19 18 17 10 12 18 14 18 15 15 16 14 9 14 12 15 9 18 18 18 6 12 20 22 20 20 31 30 29 29 23
24 25 25 27 27 27 26 26 25 23 16 7 8 10 8 10 15 10 11 16 19 18 16 17 17 13 18 17 16 19 20 21 18 20 16 11 11 9 18 16 20 19 14 26 24 24 24
25 25 26 27 28 29 27 26 24 21 14 14 13 15 5 5 11 11 16 22 19 13 16 18 19 17 24 24 22 22 22 23 22 15 16 11 12 9 11 13 16 12 11 15 13 24 23
27 28 28 29 28 28 27 26 24 21 15 16 17 18 5 4 14 18 13 16 24 24 17 16 22 10 20 21 13 14 15 15 17 18 14 11 9 7 5 7 8 12 15 18 13 10 7
30 29 30 30 29 28 27 26 24 21 17 17 20 20 14 6 7 17 10 15 13 11 12 11 12 17 14 9 8 12 11 8 11 16 14 11 10 7 8 8 11 5 17 4 11 11 12
30 30 31 30 29 28 26 25 24 21 17 16 21 20 18 8 18 20 12 7 9 12 10 16 17 19 14 1 6 6 12 9 7 16 12 12 9 11 9 6 8 16 20 8 9 5 20
31 31 30 30 28 27 25 24 23 21 15 14 20 17 19 12 22 23 22 22 20 15 4 17 9 9 10 5 1 3 6 4 8 8 6 12 12 11 12 15 15 16 9 7 9 16 19
32 31 29 28 27 26 25 24 23 20 15 14 17 15 11 20 16 22 19 24 21 21 19 6 13 17 4 5 5 5 11 7 14 7 3 8 7 7 10 13 13 12 12 9 11 8 13

GFSGBSN_850_spd_039.txt.gz
Wind_Speed
21 21 22 22 22 23 24 24 25 25 26 26 26 27 27 27 28 28 28 27 26 24 23 20 16 12 9 9 26 9 5 4 17 27 28 26 27 25 19 20 23 18 11 23 15 18 27
22 22 23 23 24 25 26 26 26 27 28 28 28 27 28 28 28 28 27 27 27 25 22 21 17 11 11 9 15 8 19 11 14 32 29 27 20 26 17 23 17 21 19 17 14 28 15
22 22 23 24 24 25 27 27 27 28 29 29 29 29 29 29 29 29 26 25 25 26 21 20 18 13 16 32 8 7 21 15 14 27 31 30 27 24 28 12 32 26 11 14 20 24 11
23 23 23 24 25 26 26 28 29 29 30 31 31 31 30 30 29 28 26 27 24 28 20 17 13 10 15 11 11 20 24 19 12 17 26 25 26 29 29 22 23 17 16 15 22 19 24
22 22 23 24 25 26 27 28 29 30 31 32 32 31 30 29 28 25 25 28 29 30 11 10 1 5 16 7 19 26 24 26 16 19 19 21 25 31 26 15 13 10 12 9 13 15 9
22 23 24 25 26 26 27 28 30 31 32 33 34 33 31 28 25 20 22 29 35 11 17 14 4 9 14 10 10 21 26 23 26 19 24 24 20 14 14 11 16 10 7 11 12 16 12
23 23 24 25 26 27 27 28 30 31 33 34 35 35 32 28 23 19 23 30 29 7 16 23 28 31 55 14 15 20 25 26 24 28 16 25 10 21 22 18 11 11 17 11 12 15 11
22 23 25 27 27 27 27 28 30 33 35 36 35 36 34 28 21 17 20 26 22 23 31 33 42 43 46 40 22 16 25 26 24 20 17 12 23 18 14 15 19 18 21 17 15 17 10
23 24 25 26 26 27 28 31 35 37 39 40 37 36 35 29 16 15 16 26 26 27 13 29 24 26 36 26 28 42 20 35 16 22 24 23 13 19 19 20 23 22 18 17 14 13 17
23 24 24 25 27 29 32 34 34 36 38 39 39 35 33 31 11 19 18 31 30 23 5 9 5 8 12 20 11 38 34 32 20 23 23 26 20 24 26 23 21 19 18 21 20 14 7
22 22 25 27 29 32 33 34 34 34 35 37 36 33 31 17 21 19 29 34 25 20 5 12 20 15 49 14 8 19 37 29 26 21 20 25 24 24 26 26 21 15 17 21 22 15 8
21 23 26 27 29 30 31 33 34 36 36 37 37 32 24 11 11 19 23 28 26 2 6 9 24 24 30 28 23 30 16 33 27 22 23 24 20 23 25 20 17 16 10 11 16 14 13
22 24 25 26 28 30 30 32 35 37 38 38 39 33 11 9 12 20 26 26 4 3 12 12 23 22 23 21 19 23 17 19 19 19 25 18 28 22 17 20 20 18 12 7 9 13 13
21 23 24 25 28 30 31 32 35 39 41 42 38 25 11 11 11 17 23 10 5 8 13 19 17 20 16 20 23 28 29 12 21 22 5 20 19 31 23 21 16 22 21 6 8 8 10
21 22 23 25 27 29 32 34 35 39 42 43 37 26 11 14 9 16 16 4 5 9 13 15 23 15 22 22 16 26 22 13 16 21 23 13 28 14 28 15 18 17 19 11 3 7 3
20 22 23 24 26 28 31 34 36 39 42 43 36 27 5 6 14 12 5 10 16 14 15 15 17 14 20 12 13 16 14 14 24 26 25 27 12 18 20 24 20 20 11 12 9 9 9
20 22 23 25 26 27 29 32 36 37 41 42 26 15 4 19 19 15 8 7 14 18 20 11 13 19 16 8 13 15 10 27 23 29 29 18 11 29 14 25 28 11 12 15 5 6 6
21 22 24 26 27 27 28 30 34 35 40 39 17 5 15 21 13 10 9 15 20 17 12 9 9 11 15 16 4 8 15 8 33 30 25 17 8 15 29 17 26 18 19 13 11 13 7
22 23 24 26 27 28 28 29 32 32 33 36 16 11 17 15 5 6 13 15 19 11 10 8 7 12 14 8 4 8 11 13 18 24 13 15 6 6 18 13 19 28 20 20 8 6 14
23 24 24 26 26 27 27 28 29 29 27 24 9 4 12 16 20 15 13 14 15 12 5 4 8 5 14 11 2 2 8 9 24 27 35 29 11 13 12 16 6 11 24 19 13 12 15
24 25 25 26 26 26 26 27 28 27 23 13 6 5 8 6 11 17 17 13 14 16 6 12 5 5 8 8 12 5 10 15 19 18 20 15 8 14 15 15 14 18 27 23 22 17 16
24 24 24 25 26 26 26 26 25 24 21 9 7 4 5 12 17 14 15 10 15 19 20 13 11 9 6 8 6 10 12 9 6 13 17 19 7 17 7 11 10 8 12 26 23 20 17
25 25 26 27 28 27 26 26 24 20 14 4 6 8 6 5 9 9 6 13 20 18 12 28 19 13 13 10 21 16 27 17 14 9 13 18 11 10 5 3 6 6 9 8 21 19 16
27 27 28 28 28 27 26 25 23 18 11 11 13 14 4 3 4 10 21 22 15 18 19 26 27 3 13 29 23 25 23 17 18 13 7 22 17 4 5 6 1 6 8 11 12 8 19
28 29 28 29 29 28 26 25 23 18 12 13 15 17 6 3 8 12 16 15 16 20 14 19 19 18 18 15 5 10 10 11 16 14 14 15 13 5 4 2 5 5 10 12 4 15 26
29 30 30 29 29 27 26 24 22 17 12 13 16 16 13 3 6 11 12 14 9 7 11 16 25 24 22 5 4 3 3 8 1 6 17 11 11 2 5 4 2 7 23 34 9 10 20
31 31 31 29 28 26 25 22 20 18 13 13 17 16 12 6 15 6 4 5 5 4 6 15 17 11 18 2 2 2 2 6 3 9 10 10 2 5 7 3 5 20 26 20 7 4 17
32 32 31 28 26 24 22 21 20 18 12 10 15 14 13 9 20 16 12 12 14 10 3 11 10 8 6 6 4 3 4 4 5 3 9 3 4 4 4 3 3 20 16 20 2 17 23
32 31 27 24 23 22 21 22 22 17 9 8 12 10 6 17 10 23 20 11 10 17 16 3 7 13 5 4 4 4 5 3 8 6 13 6 1 3 7 5 11 22 28 27 23 19 24

GFSGBSN_850_spd_042.txt.gz
Wind_Speed
21 21 22 22 23 23 23 24 25 26 26 26 27 27 27 27 27 27 27 25 25 26 25 23 17 14 9 8 23 9 8 4 26 34 32 33 28 22 9 13 21 14 16 22 18 20 13
22 22 22 23 23 24 24 25 26 27 28 28 28 28 28 28 27 26 25 26 27 24 25 25 20 13 9 6 7 9 21 8 17 34 33 32 27 30 11 14 15 9 24 15 13 11 4
21 22 22 23 23 24 25 26 27 28 29 30 30 30 29 28 27 25 22 25 28 33 27 18 18 15 14 27 5 4 10 20 13 28 36 35 27 26 13 6 39 26 14 11 21 25 5
21 22 22 22 24 25 25 26 29 30 31 31 30 30 29 28 26 24 21 27 31 27 17 15 13 12 13 6 10 25 18 20 16 17 26 30 31 23 13 14 13 7 11 12 17 13 14
22 22 23 24 25 25 26 28 30 31 33 33 33 31 30 28 24 21 21 26 32 14 14 23 6 6 15 7 11 11 24 27 20 19 25 23 24 18 9 5 5 3 8 8 17 20 12
22 23 25 25 26 26 27 28 29 31 34 36 36 35 31 29 26 19 20 25 28 14 13 18 5 8 10 2 10 9 17 25 27 22 19 20 16 5 9 5 11 5 5 6 10 14 24
22 23 24 24 25 25 26 27 29 31 34 36 37 36 33 28 23 18 22 25 33 9 33 24 35 29 46 31 29 16 11 27 26 24 9 19 10 16 23 13 5 6 8 10 9 11 9
21 22 23 24 25 25 25 27 29 33 35 37 38 38 39 30 21 13 15 19 20 22 20 32 20 26 34 30 19 22 7 26 17 17 9 4 18 19 6 9 12 13 10 13 14 15 6
21 23 24 24 24 25 28 31 33 34 35 36 36 37 40 35 20 13 13 18 19 25 5 19 9 9 12 15 13 30 9 16 6 11 17 20 8 14 15 14 15 14 14 14 9 10 5
22 22 23 23 24 27 30 32 33 33 35 37 37 36 39 35 11 19 18 22 18 29 4 7 9 10 26 13 4 26 21 14 8 14 12 16 23 20 19 19 18 16 18 17 15 6 7
20 21 22 24 26 28 29 32 34 36 37 37 37 36 35 22 19 19 23 24 25 6 2 6 8 13 27 15 18 26 23 18 15 13 10 20 22 24 21 25 18 18 11 14 18 5 2
20 21 23 25 27 29 30 32 34 38 39 37 36 32 27 15 12 20 24 26 8 5 3 5 9 16 18 23 16 24 24 30 14 18 20 14 16 24 26 18 21 9 11 9 10 3 9
19 21 23 25 27 30 32 33 35 38 39 39 36 34 23 12 10 20 24 25 5 3 11 8 8 10 8 16 11 14 15 14 9 5 16 15 19 22 13 18 12 15 7 7 7 7 10
20 21 23 25 28 30 32 34 36 39 40 41 40 27 11 4 10 17 21 5 6 13 5 6 8 7 9 17 6 17 11 11 17 18 8 16 19 22 18 14 18 13 11 6 13 5 11
21 22 23 25 27 29 32 35 37 39 40 41 39 11 9 10 12 13 8 4 1 5 7 9 8 5 6 9 5 10 8 4 11 21 15 9 17 7 24 20 17 13 17 12 6 3 3
22 23 24 25 27 29 31 33 36 38 39 40 39 7 8 21 9 10 4 4 3 4 6 6 6 5 6 6 6 10 6 5 7 18 18 6 8 14 25 17 20 17 9 8 4 7 5
23 23 24 26 27 28 29 31 34 36 38 37 29 9 11 17 12 5 3 3 4 11 12 5 3 4 5 6 6 4 8 11 16 20 20 11 5 10 2 11 27 6 16 6 6 6 7
23 24 25 26 27 27 27 29 32 33 36 34 20 4 19 22 8 4 2 6 11 6 7 2 1 2 2 6 4 4 6 4 16 18 12 8 6 6 12 10 5 21 7 10 9 10 4
23 24 25 26 26 26 26 27 30 29 29 31 16 8 17 14 4 4 7 7 5 9 1 2 3 3 1 1 4 2 4 6 8 12 7 9 4 8 8 5 3 6 11 9 6 5 9
23 23 24 25 25 26 26 26 27 26 23 22 9 4 9 8 11 3 6 5 9 11 6 4 3 2 3 4 3 3 3 4 8 9 6 12 5 8 7 14 14 7 13 12 10 8 10
23 23 24 26 26 26 26 26 26 23 19 13 5 2 2 5 6 11 7 5 10 7 9 13 4 3 4 3 2 1 4 12 10 7 3 4 6 12 19 25 25 23 17 13 16 17 14
23 24 25 26 26 26 26 24 23 22 17 6 5 3 3 9 10 8 5 3 9 7 8 7 7 16 6 6 7 4 3 6 6 4 1 2 5 18 22 14 18 13 9 7 16 19 7
24 25 25 26 27 26 25 23 21 17 12 4 5 7 6 5 4 3 3 10 15 17 8 11 15 15 6 8 13 20 21 26 12 8 7 6 4 6 6 8 5 5 15 6 11 11 11
25 26 27 27 28 27 25 22 19 14 9 10 12 14 5 3 5 3 8 18 14 15 8 19 16 3 10 28 30 23 17 22 18 14 16 7 8 4 6 8 6 8 19 15 16 19 20
25 27 28 28 28 26 23 21 18 13 9 12 14 15 6 3 7 8 13 10 15 16 15 13 14 18 22 15 2 5 5 3 9 11 14 14 7 4 3 4 2 17 21 15 6 16 21
28 29 29 29 28 25 21 19 16 12 9 11 14 14 14 4 4 8 7 11 6 3 4 8 18 14 14 1 2 3 2 4 2 3 14 10 11 5 4 3 5 17 26 30 11 15 19
29 30 29 28 23 20 18 17 16 12 8 10 15 11 9 5 10 9 5 4 5 2 3 7 13 9 13 3 2 2 2 4 2 3 2 3 7 8 3 0 4 20 29 12 9 3 14
29 27 24 22 20 18 17 17 16 11 6 8 11 10 10 6 15 10 10 10 10 6 2 4 6 5 4 5 3 3 3 4 2 6 4 2 2 4 6 5 4 22 16 8 9 19 21
25 23 22 21 20 20 20 18 12 7 3 4 6 6 4 13 11 16 9 18 9 10 7 3 1 3 7 3 3 3 1 3 5 3 6 5 3 2 4 2 1 14 9 16 21 16 24

GFSGBSN_850_spd_045.txt.gz
Wind_Speed
19 20 21 21 21 22 22 23 24 25 26 26 26 26 25 24 23 23 21 20 23 27 30 24 21 13 10 8 12 6 4 7 33 33 35 34 32 16 8 8 8 12 11 12 24 26 19
20 20 21 21 22 22 22 24 26 28 29 29 28 27 26 24 24 23 19 19 25 31 24 18 15 10 8 4 3 7 16 3 32 36 38 35 23 26 12 5 15 8 19 22 23 20 11
20 21 21 21 22 22 24 26 27 28 29 30 30 29 27 25 24 22 19 20 27 30 15 20 22 10 11 20 5 3 7 13 21 34 39 38 12 24 8 2 22 18 9 10 16 15 2
20 21 21 21 22 23 24 25 27 29 30 32 34 33 30 26 24 24 20 22 27 23 14 19 25 9 9 5 5 8 12 13 24 34 31 32 25 29 5 5 5 5 5 3 9 7 9
20 20 20 21 22 24 26 28 30 31 32 33 35 36 33 31 26 25 21 23 23 15 12 24 12 11 10 5 9 2 6 18 20 32 30 20 30 6 8 2 4 3 4 7 8 11 4
20 21 21 23 24 26 27 28 29 30 32 34 34 37 33 35 30 25 23 25 18 9 13 13 10 8 5 16 25 18 9 19 19 20 21 10 12 5 2 4 9 6 4 4 6 4 11
20 21 22 23 25 26 27 27 27 30 33 35 35 36 37 35 31 19 23 19 17 4 27 8 17 7 19 25 15 6 7 17 18 16 8 14 6 17 28 18 3 4 4 6 6 6 8
19 20 21 23 24 24 26 28 29 31 33 35 36 36 36 34 26 14 14 16 14 12 14 19 7 9 16 14 9 15 8 12 13 9 6 5 17 21 7 7 12 8 5 6 10 5 6
20 21 21 22 23 26 28 29 31 33 35 37 37 36 33 31 16 16 12 15 17 17 2 11 6 18 21 12 2 15 15 7 6 12 15 10 4 14 10 12 13 13 13 9 9 5 3
19 20 21 23 25 27 29 32 33 35 36 35 35 34 31 27 8 18 11 16 17 7 4 5 10 13 23 8 3 12 21 5 5 17 15 14 17 15 16 17 11 12 12 14 14 3 4
20 21 22 24 26 28 30 32 33 35 35 34 34 34 30 17 8 18 20 20 8 2 3 5 6 11 17 18 16 13 16 4 5 11 8 16 15 19 19 23 16 14 6 9 8 3 3
20 21 23 25 26 29 30 32 34 34 35 35 34 31 22 10 8 17 23 22 2 4 3 5 6 8 8 14 6 19 14 11 1 6 14 9 15 16 23 12 15 4 4 3 1 3 10
21 22 24 26 28 29 31 32 33 35 35 36 34 20 13 13 16 19 22 10 4 3 7 5 5 7 6 8 8 12 8 15 6 7 7 9 22 10 6 18 10 11 7 4 4 5 13
22 23 24 26 27 29 31 32 34 35 36 36 32 8 9 15 13 16 19 4 4 3 3 3 3 2 5 8 4 8 7 5 14 4 2 5 11 19 13 12 15 12 15 6 8 4 8
22 23 24 26 27 28 30 32 33 35 35 36 33 2 6 11 12 13 10 5 3 2 3 4 2 4 5 5 2 7 6 2 6 9 4 7 7 9 16 14 17 8 19 12 5 3 2
23 23 24 25 27 27 29 30 32 34 33 34 34 3 3 12 12 7 4 2 0 3 2 3 3 1 2 4 6 2 4 6 3 10 2 2 6 5 12 11 11 15 8 7 4 10 5
23 23 24 25 26 26 27 29 31 33 32 32 25 5 14 24 6 3 3 4 3 7 1 2 4 2 3 1 2 2 1 6 9 10 4 4 2 9 8 7 25 8 11 4 6 5 13
23 23 23 24 25 26 27 28 29 29 31 30 16 3 19 17 7 4 2 5 6 6 3 2 1 4 2 2 3 2 1 1 7 8 3 4 4 6 10 16 16 9 11 8 10 13 1
22 22 23 24 25 26 26 27 26 24 26 26 17 7 11 15 4 4 7 5 4 4 3 2 2 3 3 4 2 3 3 3 7 3 1 3 2 6 9 1 6 4 5 7 5 4 9
21 22 23 24 24 24 25 25 25 21 20 20 7 4 6 11 7 3 5 5 4 8 2 6 4 1 0 3 4 3 4 6 11 5 8 2 4 6 6 9 13 11 23 18 9 8 7
21 23 24 24 24 24 24 24 23 20 17 12 4 2 4 4 2 3 4 5 9 5 6 7 3 4 1 4 3 5 5 2 7 6 5 3 5 6 11 19 21 22 23 24 13 12 14
21 23 24 25 25 25 24 22 21 19 15 5 4 4 2 6 7 6 3 2 7 5 4 6 3 10 7 5 7 7 6 5 6 3 3 3 3 3 14 20 17 18 18 19 20 19 6
22 24 26 26 26 25 23 21 18 16 12 4 2 3 3 4 2 2 2 2 6 13 9 11 5 11 12 9 9 15 17 16 8 8 5 4 2 3 7 8 12 6 7 11 4 17 4
24 26 27 27 26 24 21 18 15 11 8 8 7 8 3 3 3 3 6 16 14 12 5 13 17 10 6 23 27 20 15 21 17 14 13 6 3 1 6 8 6 10 11 8 20 21 18
27 28 29 27 25 22 18 15 12 8 7 9 11 8 4 3 6 9 12 12 14 15 9 12 16 13 21 12 1 4 4 3 9 13 14 6 5 3 4 4 2 4 9 11 5 17 19
29 29 26 23 20 17 15 14 13 8 6 9 11 9 10 4 4 9 8 10 4 3 3 7 15 14 8 3 2 4 4 2 5 4 12 9 7 3 3 5 3 4 19 30 11 10 20
28 25 21 19 17 17 16 15 13 7 4 5 8 6 7 4 9 8 4 4 3 4 3 6 7 8 9 2 2 2 4 4 5 5 6 5 4 11 9 5 2 7 23 18 7 1 20
23 22 22 20 19 19 18 15 8 4 2 2 3 5 6 5 13 12 12 13 6 4 1 4 5 4 4 5 3 2 3 2 3 6 7 4 1 1 2 3 4 15 9 7 3 5 15
22 22 22 21 20 19 16 9 4 1 3 2 3 3 4 8 7 14 15 13 9 8 6 4 0 1 4 3 2 3 3 5 7 3 2 3 4 2 1 3 3 16 5 10 11 9 18

GFSGBSN_850_spd_048.txt.gz
Wind_Speed
19 19 19 19 20 21 22 23 25 26 28 29 29 27 24 23 22 21 18 19 20 24 26 16 18 12 8 6 7 8 6 3 32 33 31 31 33 12 6 8 7 9 7 7 13 17 16
18 19 19 19 20 21 23 25 27 28 28 29 29 29 27 26 24 23 19 19 21 24 22 17 19 19 7 3 3 7 7 3 33 36 33 33 22 18 11 5 7 8 15 17 15 19 13
18 18 19 20 21 22 24 26 27 28 29 30 29 28 28 29 27 24 20 20 22 24 18 14 25 8 7 6 1 4 8 6 29 36 35 34 4 21 6 1 11 10 5 5 9 7 6
18 19 19 20 21 22 24 25 27 29 30 30 32 31 30 31 31 25 20 19 21 21 15 21 17 13 2 7 8 7 10 4 25 34 21 29 17 23 4 2 3 4 3 1 4 7 7
18 19 20 21 22 23 24 26 27 29 31 32 33 34 32 32 32 26 21 22 19 12 12 13 15 8 5 5 13 12 14 8 14 30 23 9 21 5 8 1 4 4 4 7 3 8 3
19 19 20 21 22 24 26 27 28 29 31 32 33 34 31 29 29 23 23 22 15 7 20 7 16 6 12 19 14 8 12 12 11 24 18 5 8 2 2 4 6 7 4 4 5 3 7
20 20 21 23 25 26 26 27 29 30 30 31 31 32 30 27 23 21 21 12 11 2 13 7 8 3 18 24 18 11 8 15 10 17 7 7 4 15 26 10 3 4 4 6 4 6 5
19 21 22 23 24 26 28 29 29 29 29 32 33 34 31 25 14 16 17 13 12 13 9 8 6 12 18 20 6 25 12 9 7 5 7 3 14 14 6 8 7 7 2 4 5 2 4
20 21 22 24 26 27 28 30 31 33 33 33 33 34 34 22 5 17 14 17 20 10 2 6 4 15 20 13 5 19 22 1 5 6 11 7 5 11 9 6 10 12 8 5 1 4 2
21 22 23 25 27 28 30 32 32 33 32 31 32 33 30 16 3 14 11 18 18 2 5 4 8 10 18 6 3 13 23 3 3 9 7 10 7 10 13 15 10 9 14 14 5 1 3
22 23 24 26 28 29 31 32 32 32 32 31 30 28 18 12 4 9 15 20 8 5 2 3 6 9 14 8 8 19 14 5 4 4 4 8 7 12 11 20 13 12 8 11 11 5 1
24 24 25 26 27 29 30 31 32 32 32 30 27 20 10 9 9 13 16 15 7 5 3 3 5 6 7 9 6 16 10 14 2 5 3 8 7 8 19 9 15 4 1 3 3 4 8
26 26 25 26 27 28 30 31 32 32 32 30 26 16 7 10 19 14 16 2 4 3 3 3 3 5 3 6 6 8 5 8 6 8 7 6 11 4 4 10 14 10 10 2 3 5 12
26 25 26 26 27 28 30 31 32 33 32 31 27 18 3 12 13 13 14 4 3 2 1 1 3 1 3 7 3 7 3 3 6 6 3 5 7 8 5 12 9 14 11 6 8 4 14
26 26 25 26 26 27 29 30 32 33 31 31 28 14 1 9 10 12 6 4 4 1 2 1 1 4 3 3 3 6 3 2 3 3 4 5 6 5 5 4 7 6 14 11 4 1 1
24 24 24 25 26 27 28 30 32 32 31 31 27 8 6 18 13 10 5 3 3 1 2 3 2 1 1 3 4 5 1 4 2 5 3 3 6 3 7 4 8 11 9 8 3 6 5
22 23 23 24 25 26 28 29 30 31 31 30 17 2 14 17 5 4 3 3 2 2 3 4 5 3 3 2 2 2 2 2 3 4 7 2 5 8 6 6 10 6 11 4 7 7 6
21 22 22 23 25 26 26 27 27 30 31 29 12 3 18 15 6 4 2 6 6 3 3 2 3 5 5 6 3 4 5 2 4 2 1 3 2 6 8 5 7 3 4 5 9 12 4
20 21 22 23 24 25 26 26 25 26 25 26 15 6 12 14 4 3 6 5 4 3 3 3 2 2 2 5 2 4 2 6 7 1 2 2 2 4 6 4 4 5 3 5 6 2 20
19 20 22 23 24 25 25 24 23 21 19 17 7 4 7 13 7 3 5 3 5 12 2 4 3 5 2 2 4 2 3 3 10 6 5 3 3 6 5 3 2 6 14 7 4 3 3
20 21 22 23 24 24 25 24 21 19 14 10 6 2 3 4 4 2 3 4 5 4 5 5 1 5 3 1 2 4 4 3 1 5 3 3 5 6 11 12 10 10 16 17 6 12 3
21 23 24 25 26 26 24 21 18 16 12 5 4 4 3 4 5 3 1 2 5 6 3 5 7 8 1 5 5 4 4 4 6 3 4 2 4 4 5 12 14 15 16 15 18 18 11
24 26 26 26 26 24 21 18 14 11 9 4 5 2 1 4 2 2 2 2 4 9 7 15 12 4 5 10 9 16 18 13 6 7 7 5 3 2 5 4 8 6 15 8 6 9 3
27 27 27 25 23 20 18 14 11 8 6 6 4 4 1 2 2 3 5 16 13 13 7 9 14 7 6 11 26 17 22 22 18 14 15 6 3 2 4 2 3 4 3 14 15 14 15
26 25 23 21 19 17 15 13 10 6 5 5 7 4 1 2 5 9 10 12 14 14 5 4 9 9 17 7 3 5 2 3 9 11 10 7 4 3 3 0 5 3 6 6 5 8 15
23 22 21 20 19 18 16 13 9 5 3 5 6 5 5 3 3 9 7 9 4 3 4 4 9 10 5 2 3 4 5 5 3 3 12 6 4 2 3 1 6 5 12 17 4 6 15
23 24 23 22 21 18 16 12 7 2 1 1 2 2 3 3 8 11 3 4 3 2 2 7 10 6 5 2 2 2 2 1 4 7 8 6 3 7 6 2 6 13 25 12 5 2 12
24 25 24 23 20 17 12 7 3 2 3 3 3 3 2 3 10 10 13 11 5 3 0 7 7 3 3 2 2 2 3 1 1 6 9 5 5 5 5 5 4 23 11 6 1 6 10
25 26 25 21 16 12 10 6 3 4 7 4 5 2 2 5 5 9 13 14 15 6 2 4 3 3 4 3 2 3 3 5 8 3 2 3 1 1 1 2 14 23 13 8 13 8 11

GFSGBSN_850_spd_051.txt.gz
Wind_Speed
18 18 18 18 19 20 22 23 24 25 25 26 25 24 24 25 24 22 20 18 19 21 22 14 12 19 10 3 3 6 4 4 26 31 28 24 26 14 10 10 9 14 5 6 7 7 9
17 17 18 18 19 20 22 23 24 26 27 27 27 26 25 25 25 22 19 17 18 19 19 12 18 14 1 1 3 7 5 10 28 29 26 23 18 13 8 6 10 6 16 11 10 9 9
17 17 18 19 20 21 22 23 25 26 28 29 29 29 28 26 25 22 17 18 20 18 13 17 15 9 6 3 10 14 7 11 29 22 25 20 6 17 6 5 9 9 5 8 10 10 7
18 19 19 19 20 21 23 24 26 27 29 30 31 30 29 27 24 21 19 19 18 14 11 12 15 10 6 8 9 9 9 4 23 21 18 17 7 14 1 4 1 5 5 5 4 11 7
18 18 19 20 21 23 25 26 28 29 29 30 31 30 28 26 23 21 22 21 14 8 11 11 13 7 6 10 12 6 5 5 16 26 11 12 8 5 7 2 5 5 8 13 4 8 5
19 19 20 21 23 25 27 27 28 29 29 29 29 27 26 23 19 20 21 16 7 7 9 6 17 4 16 14 14 5 7 8 9 21 9 7 11 7 7 10 12 12 13 7 13 8 11
20 20 21 23 24 26 27 29 29 29 27 28 28 28 28 22 11 15 19 5 6 3 10 6 5 7 10 7 21 17 5 9 13 15 11 9 10 21 20 15 10 5 6 12 10 7 10
21 22 23 24 25 26 28 28 29 29 28 30 31 32 29 21 8 11 15 11 13 6 5 6 11 10 11 12 5 22 7 4 6 8 11 6 18 16 12 13 13 17 7 12 10 2 9
24 24 25 25 25 26 27 28 29 30 29 30 30 31 26 15 6 9 14 16 15 5 2 1 5 12 13 7 6 14 12 1 6 8 16 15 2 15 14 14 18 19 19 11 6 5 10
26 26 26 27 27 27 28 30 30 31 30 28 27 27 20 10 2 9 9 16 13 2 0 2 3 6 12 3 4 14 11 2 4 12 12 13 20 8 15 20 18 19 17 18 12 5 11
29 28 28 28 28 29 29 29 29 29 29 26 25 23 12 9 4 10 13 15 5 3 4 4 3 5 10 7 8 12 11 2 1 3 5 10 9 17 16 18 19 15 8 18 19 14 11
29 28 28 27 27 28 28 28 28 29 29 26 24 22 11 7 7 11 11 10 5 2 5 2 3 5 4 7 5 10 9 7 1 3 3 13 10 13 19 13 18 9 4 13 14 14 16
28 27 25 25 26 27 27 28 29 29 29 27 23 21 6 5 9 10 10 3 2 4 1 3 3 3 3 5 5 7 4 9 5 2 1 3 13 12 14 12 17 20 15 6 7 10 19
26 23 23 23 24 26 27 28 29 30 30 29 24 18 5 8 5 8 9 2 6 2 2 2 1 1 2 5 3 5 1 2 7 3 1 3 10 10 15 20 10 22 19 9 12 12 16
23 20 22 23 23 25 26 27 29 30 30 29 24 5 3 12 8 7 3 4 1 1 2 3 2 3 3 1 3 2 2 2 4 6 3 2 6 3 5 9 19 15 22 21 13 3 10
18 20 21 22 23 25 26 27 29 30 29 27 20 4 14 16 13 6 1 0 1 0 1 2 3 4 4 2 2 1 2 1 4 4 1 2 7 2 4 4 14 19 12 18 13 19 14
18 20 20 22 23 24 26 27 28 29 29 26 12 3 17 13 6 5 1 1 2 2 2 4 5 3 4 4 4 4 3 3 2 1 1 1 2 3 6 7 17 14 13 14 18 16 14
19 20 20 22 23 24 26 27 27 27 28 25 9 1 20 11 6 3 2 6 6 4 4 2 2 6 7 6 5 6 6 3 7 2 1 1 1 5 8 9 7 9 13 25 13 22 19
20 20 20 22 23 24 25 25 24 23 24 24 7 6 15 10 4 4 6 4 3 6 4 3 2 4 4 6 5 7 5 4 7 2 2 3 2 4 6 8 3 2 1 4 9 6 20
20 21 22 23 24 24 24 24 22 20 18 15 5 3 8 14 7 3 4 4 7 10 1 5 4 2 2 4 5 2 6 6 7 4 4 2 3 5 10 12 13 8 7 5 7 14 17
22 23 23 24 23 23 22 21 19 17 14 9 6 3 4 4 6 7 5 4 7 7 6 8 2 2 0 6 5 6 6 5 7 7 5 3 6 7 16 19 18 21 21 15 11 10 12
23 24 24 23 22 21 20 17 15 15 12 9 4 2 3 1 2 4 2 4 5 5 3 4 7 9 6 7 8 3 3 7 8 7 6 3 4 5 19 19 18 21 22 19 17 18 10
24 23 23 22 20 19 17 15 12 11 11 6 6 4 2 4 3 2 1 2 3 11 7 13 8 4 6 8 14 16 13 16 12 6 8 5 1 5 11 13 14 15 24 19 13 6 13
23 23 23 22 21 19 16 13 9 7 7 6 5 4 2 2 3 3 6 13 10 11 5 7 11 5 3 2 8 17 20 19 19 18 15 6 5 3 10 13 8 3 10 16 11 5 2
23 24 24 24 21 19 16 12 8 5 4 4 4 3 2 1 5 6 11 6 11 11 5 6 5 4 10 9 4 5 4 5 14 21 17 17 8 5 5 7 10 10 6 5 3 6 7
24 26 26 25 22 18 14 9 5 5 5 6 6 3 2 3 3 8 7 5 3 4 5 3 9 7 3 4 3 5 6 4 6 6 17 16 15 8 6 6 5 6 13 13 6 4 9
25 27 26 24 20 16 10 6 5 7 7 7 6 4 2 1 5 9 4 4 3 4 2 5 9 4 3 2 3 3 2 4 4 9 9 8 8 13 12 8 8 9 24 4 6 5 8
26 28 25 21 16 12 9 7 7 8 7 8 8 3 1 3 8 8 7 6 6 4 2 7 5 2 3 2 2 2 2 1 2 6 9 8 8 6 7 6 8 20 11 1 6 5 9
26 26 21 14 13 12 9 7 8 12 9 7 6 6 3 2 2 6 7 7 5 5 3 3 3 4 2 3 2 3 2 3 6 3 2 3 2 2 4 1 7 11 11 7 9 10 9

GFSGBSN_850_spd_054.txt.gz
Wind_Speed
17 17 17 17 18 19 20 21 22 23 23 24 23 23 22 22 20 21 19 16 16 18 17 14 12 13 3 2 2 7 4 6 25 26 27 25 26 19 14 13 7 16 9 10 7 7 4
17 17 17 18 19 20 21 22 23 24 25 25 25 24 24 23 21 19 18 16 16 17 14 13 10 9 4 4 7 8 4 14 25 25 25 23 18 16 11 8 14 2 17 6 6 11 7
16 16 17 17 19 20 22 23 24 25 25 26 26 25 24 23 21 17 16 17 16 13 9 9 10 13 6 6 8 9 5 13 18 22 23 20 6 17 4 10 13 11 8 11 14 14 12
18 18 18 18 19 20 21 23 25 26 26 27 27 26 26 24 21 17 16 16 12 8 6 8 12 13 7 5 6 5 6 11 17 15 19 15 10 18 8 3 8 14 14 13 17 14 10
18 19 19 20 21 22 23 24 25 26 26 27 28 26 26 23 19 17 17 15 4 12 4 10 9 2 5 9 4 2 2 9 17 10 16 13 11 13 15 11 11 14 14 18 14 19 11
19 20 21 22 23 24 24 25 25 26 26 26 25 24 24 21 15 15 16 8 3 10 4 5 10 3 10 7 7 4 4 14 16 16 10 18 13 11 12 14 15 15 18 14 17 13 18
23 23 24 24 25 25 25 25 26 25 25 25 25 24 23 17 9 12 14 6 3 1 6 6 6 6 5 3 9 6 9 7 10 20 12 17 15 19 19 17 17 10 13 19 13 6 14
24 23 23 24 24 24 24 24 24 24 24 24 24 23 21 12 7 10 14 6 5 2 1 3 3 5 4 3 1 11 6 7 13 16 17 10 18 18 14 14 17 14 10 14 8 5 11
27 26 25 25 24 24 24 24 24 25 24 24 23 21 17 8 6 8 7 8 8 1 5 4 1 4 4 1 4 8 3 5 11 15 18 18 4 17 13 16 17 19 19 14 13 4 14
29 26 25 25 25 25 24 24 24 25 25 25 24 20 13 5 2 10 4 14 10 4 5 8 5 3 4 3 3 6 6 3 7 11 14 17 21 6 16 19 18 19 18 15 15 11 14
27 26 26 24 24 24 24 24 24 25 25 24 23 19 13 3 1 6 10 13 3 2 5 5 5 1 3 1 3 5 5 3 7 9 10 12 13 18 17 16 19 16 14 16 17 16 15
26 26 25 23 23 24 25 25 25 25 26 24 22 18 10 2 4 6 9 7 2 6 4 5 3 1 4 2 2 4 2 1 2 7 13 17 9 15 21 20 12 9 14 14 15 16 18
25 22 20 21 22 23 24 25 26 27 27 25 21 15 4 0 3 5 6 1 5 6 2 5 2 1 1 2 2 3 2 2 5 8 15 16 19 17 16 17 19 16 16 10 12 15 22
23 17 19 21 22 23 24 26 27 27 27 25 21 9 3 2 3 4 2 5 7 5 1 3 1 1 3 3 2 2 2 5 2 6 10 9 14 20 19 22 20 23 19 13 21 14 19
17 18 20 21 22 23 25 26 27 27 26 24 16 4 5 10 5 3 9 7 5 2 2 3 4 6 5 4 5 4 3 3 1 3 7 6 12 3 6 16 21 21 23 24 23 17 13
18 20 20 21 22 23 25 26 28 27 25 24 8 5 10 11 5 6 7 1 1 1 1 4 6 2 6 5 5 2 2 4 4 1 4 3 8 9 5 7 20 21 16 21 17 23 24
20 20 20 21 23 24 26 27 27 25 22 19 4 4 11 7 4 7 4 4 0 1 4 3 6 7 7 8 7 7 3 5 3 3 5 4 5 6 5 13 20 17 21 19 19 20 19
19 20 21 22 23 24 24 25 24 23 21 18 4 2 15 4 3 1 3 3 3 3 2 5 6 10 11 9 9 8 7 4 4 2 5 1 6 11 16 8 6 13 15 29 15 26 22
20 21 23 23 24 24 23 22 21 19 20 15 5 4 12 5 1 4 4 3 2 4 4 4 5 3 6 9 6 8 5 2 7 4 2 3 5 9 14 17 18 13 15 18 17 20 26
23 24 24 23 22 21 20 20 18 16 15 9 4 1 7 16 13 7 3 7 5 4 3 6 7 7 9 11 10 5 8 6 8 8 4 3 11 12 13 10 10 7 11 7 16 17 21
23 23 23 22 21 20 19 18 17 14 13 8 6 5 3 5 9 6 2 3 2 5 5 9 4 7 8 8 12 13 10 10 10 8 9 7 13 12 13 16 14 15 17 18 19 17 23
22 23 22 22 21 20 18 17 16 13 10 9 4 3 4 7 5 8 9 8 5 5 4 7 6 9 6 8 13 8 13 15 14 14 13 10 10 9 15 17 18 21 21 20 21 21 20
23 23 23 22 20 18 17 16 15 12 13 6 6 6 3 5 3 1 1 2 4 8 5 11 11 7 7 13 17 17 19 16 13 9 14 14 10 11 15 15 10 15 23 23 22 22 20
23 25 24 23 20 17 15 13 12 11 12 8 6 6 3 4 1 2 4 8 7 9 5 6 7 8 3 6 9 14 20 20 19 19 20 8 12 10 12 13 17 17 21 20 25 24 22
23 26 25 23 19 15 12 10 9 11 9 8 7 5 3 2 5 6 12 8 7 8 6 4 2 7 10 15 9 9 9 9 17 22 20 19 12 8 11 12 14 15 9 10 14 22 10
24 26 25 21 17 13 10 9 9 11 8 8 7 7 4 1 9 9 7 5 3 4 3 4 6 7 6 6 3 5 4 4 4 5 21 20 18 9 8 7 12 5 11 26 19 9 4
25 25 22 18 15 11 9 10 10 12 9 10 7 8 4 3 10 6 6 3 2 2 3 5 8 3 5 2 3 4 3 2 4 5 9 14 9 14 12 9 9 4 13 31 7 2 4
24 22 18 15 13 10 9 12 12 10 11 10 5 5 5 3 9 7 6 4 4 3 3 10 5 2 2 2 3 2 3 0 3 4 6 9 7 7 11 9 14 12 11 6 8 5 7
22 19 14 13 11 8 10 12 14 10 9 8 2 3 4 3 3 4 4 3 3 5 4 4 4 4 2 2 1 3 2 2 3 3 3 5 3 4 4 3 12 10 17 24 18 11 8

GFSGBSN_850_spd_060.txt.gz
Wind_Speed
16 15 16 16 17 18 20 21 22 22 22 22 22 23 22 22 22 21 18 16 16 16 14 12 10 8 4 5 4 6 5 9 18 26 20 20 22 21 18 19 20 17 16 10 7 5 7
18 19 19 19 20 21 21 22 22 23 23 23 22 22 23 22 21 20 18 16 15 15 13 10 11 9 5 9 1 2 3 9 17 26 20 21 19 19 18 21 17 18 14 13 7 16 12
18 18 19 19 20 20 21 22 23 24 24 24 24 23 23 23 22 19 16 15 14 12 7 7 2 6 9 7 1 3 3 10 17 25 20 20 18 16 19 12 18 18 17 11 11 9 10
22 22 22 22 22 23 23 24 24 24 24 23 23 23 23 23 22 17 14 14 11 8 4 2 1 3 7 3 6 3 7 8 14 20 19 15 17 15 19 17 17 12 17 15 15 16 15
22 23 22 22 22 23 24 24 23 23 23 24 23 22 22 22 20 14 13 10 2 2 2 6 1 4 7 4 2 6 7 12 14 17 18 16 17 17 15 16 13 14 14 19 15 21 13
25 26 22 21 23 24 23 23 23 23 24 24 23 22 20 20 15 12 9 7 2 2 3 3 9 9 9 4 1 5 7 11 16 16 15 16 14 13 13 14 14 16 17 16 17 17 14
25 25 22 22 24 24 22 23 22 22 22 23 23 21 20 17 10 7 8 8 4 4 12 11 2 6 3 3 4 5 8 12 16 14 14 22 12 17 20 21 20 20 19 17 17 17 18
25 24 24 24 23 22 22 22 22 22 23 23 23 20 18 15 7 3 7 8 5 6 9 11 7 5 2 5 5 5 10 13 15 14 17 13 19 19 18 20 18 19 20 19 12 15 18
24 24 24 23 22 22 23 23 24 23 23 24 25 20 16 12 6 1 4 6 7 6 8 15 12 10 6 7 6 9 10 16 15 16 18 20 13 21 20 17 17 18 17 16 17 9 19
26 24 22 21 22 22 22 23 24 25 25 25 25 21 15 7 3 7 4 7 8 5 5 15 10 7 7 7 7 5 5 9 16 16 19 21 22 14 20 20 17 18 15 18 19 17 12
24 20 20 22 22 23 23 24 25 26 26 25 23 19 12 8 7 8 6 8 6 3 5 12 11 4 4 13 10 9 4 7 13 14 11 18 21 20 18 15 20 17 16 14 16 18 19
19 20 22 22 23 24 25 26 27 27 26 24 21 17 5 1 4 2 7 7 1 6 5 6 7 8 10 11 6 4 7 8 9 10 14 15 20 17 19 18 15 16 15 17 17 14 16
21 22 23 24 25 26 27 27 28 27 25 22 20 9 2 7 4 7 8 6 6 9 11 8 9 6 11 12 5 6 9 12 9 9 13 14 17 17 14 16 19 15 14 12 13 13 17
24 25 25 25 26 27 27 27 26 25 23 20 14 5 7 3 6 9 7 9 7 8 8 8 2 2 5 7 7 4 5 9 10 9 13 13 13 20 16 17 16 21 18 13 16 14 17
25 26 27 27 27 27 27 26 25 23 21 21 7 4 5 4 9 4 11 9 3 13 14 4 6 7 9 9 4 3 9 12 10 5 7 10 16 19 11 18 18 20 19 22 23 22 16
26 27 27 27 26 26 26 25 24 21 20 20 10 2 2 7 6 5 8 12 7 16 12 5 6 8 9 8 12 5 8 6 0 8 8 9 14 16 16 9 14 20 19 18 15 22 24
26 27 28 27 26 26 25 24 24 23 20 12 6 7 3 9 2 8 8 6 11 11 11 10 10 12 8 12 10 5 10 4 2 3 2 11 11 18 17 13 13 13 15 20 19 17 18
26 27 28 27 26 24 23 23 23 24 20 6 7 3 11 5 9 7 7 12 4 9 6 4 4 6 7 12 14 9 8 8 11 10 6 14 10 12 17 19 19 17 21 20 14 18 16
26 27 28 28 25 23 21 20 20 21 20 12 9 6 10 6 4 7 8 10 9 12 9 8 6 6 7 7 6 8 10 12 4 3 9 9 7 10 15 15 20 13 19 20 21 19 22
26 27 28 27 24 21 19 18 18 15 14 13 8 2 8 13 12 11 7 7 7 9 6 8 8 8 8 9 8 6 7 5 10 6 6 4 12 17 14 11 13 12 15 19 21 16 17
26 28 29 26 22 19 17 16 15 11 14 13 7 7 5 9 9 9 13 10 6 8 11 5 2 6 8 9 8 9 9 4 7 6 7 6 15 18 21 24 20 18 17 18 20 23 20
26 28 28 24 20 17 15 15 13 11 9 11 11 8 7 9 9 5 10 9 9 12 9 11 10 12 10 8 12 15 14 12 9 6 6 15 15 17 20 22 21 21 19 18 20 20 22
26 28 25 21 18 15 14 14 11 13 14 9 8 6 7 8 9 7 6 6 7 6 3 5 7 9 7 10 12 15 19 18 17 13 13 10 7 12 18 17 21 21 20 19 20 20 18
26 26 23 19 15 13 13 14 13 15 18 12 7 6 9 6 6 5 6 4 6 7 4 9 6 6 9 14 18 20 23 23 23 17 21 15 13 6 11 14 15 15 21 21 24 24 20
25 24 20 17 13 11 12 14 15 14 17 14 10 8 8 8 6 7 6 4 3 4 7 5 2 8 11 13 7 8 10 9 16 18 18 21 16 8 8 13 16 23 11 8 10 12 9
23 22 17 15 10 8 10 13 13 13 18 14 11 7 6 7 9 2 3 5 2 6 6 2 7 6 8 7 3 4 4 8 2 4 9 19 17 10 10 14 16 18 8 10 11 10 17
20 19 15 13 8 5 7 9 12 12 15 15 10 10 7 7 10 11 7 4 4 2 3 3 8 5 8 5 3 3 3 6 4 8 6 4 9 14 13 11 14 5 5 9 10 5 19
17 16 14 12 7 2 5 5 7 9 12 10 4 14 7 5 7 9 4 1 2 0 4 8 2 4 4 3 3 4 3 4 4 9 10 6 4 6 10 11 14 4 8 12 10 16 20
15 14 13 9 6 2 3 2 2 4 8 11 6 8 9 4 6 6 5 1 2 3 5 3 2 4 4 1 1 3 2 3 4 4 12 2 5 4 4 4 14 8 6 11 14 16 21

GFSGBSN_850_spd_063.txt.gz
Wind_Speed
18 19 19 20 21 22 23 24 25 24 22 22 23 24 24 23 23 22 19 17 15 15 14 13 10 10 8 3 7 4 7 7 14 21 25 19 16 25 14 14 21 18 20 20 11 9 14
21 21 21 21 21 22 23 24 25 25 25 24 23 23 22 22 22 22 19 15 15 14 12 10 11 10 5 5 3 3 4 5 14 23 26 19 13 20 19 20 15 22 18 16 19 17 21
22 23 23 22 22 23 24 25 25 26 25 24 24 24 23 22 21 21 17 15 15 12 8 7 5 2 5 11 2 4 5 9 12 23 25 21 22 23 18 11 22 18 11 12 19 22 7
23 25 25 23 22 23 24 24 23 24 23 23 23 24 22 21 21 19 16 15 13 7 5 4 1 6 7 2 10 9 9 8 9 16 24 13 13 24 20 17 21 10 7 5 6 17 18
22 24 23 22 23 24 24 23 23 24 25 24 23 22 22 21 19 17 13 11 8 3 2 4 0 5 8 4 2 8 10 11 8 13 21 17 21 19 16 5 7 6 5 8 14 21 12
25 24 25 25 25 24 23 23 23 24 24 24 24 23 21 19 17 14 10 11 6 4 5 6 6 9 9 5 5 5 10 12 15 13 17 24 21 5 5 3 6 9 6 9 11 11 16
24 24 24 24 23 22 22 23 24 24 24 25 25 24 22 19 13 9 8 8 6 1 10 11 6 7 9 3 4 6 8 10 17 17 9 16 4 8 8 10 13 16 15 13 12 9 15
25 25 24 22 21 22 23 24 23 24 25 26 26 24 23 18 11 5 8 8 8 6 10 18 17 13 2 5 5 6 9 10 12 6 9 6 12 9 12 15 16 18 14 14 13 11 11
24 22 21 22 23 23 24 24 25 26 27 27 26 23 22 16 8 3 7 4 9 7 5 12 20 14 10 8 9 15 10 16 9 9 9 11 12 18 16 15 15 13 9 11 11 10 6
23 23 24 23 24 25 25 26 27 27 28 27 24 22 19 12 2 6 8 1 9 6 3 5 12 5 8 4 4 11 4 5 6 9 12 8 18 16 16 15 12 7 10 12 11 7 2
23 23 24 25 26 27 27 28 28 28 27 26 22 21 14 9 7 5 11 9 13 2 3 11 9 6 7 8 9 5 3 5 8 8 6 8 13 13 14 11 14 9 10 8 9 7 5
24 25 27 28 29 29 28 27 27 26 25 22 19 18 6 2 3 6 14 12 7 1 5 6 6 7 4 7 6 8 5 6 8 6 9 9 15 9 12 13 9 6 8 9 7 5 6
26 27 28 29 30 29 27 26 25 24 23 21 18 9 3 5 3 10 12 11 2 4 9 6 6 8 10 7 5 3 6 6 4 2 4 7 11 9 11 6 7 6 2 3 4 5 6
27 28 29 30 30 29 27 26 25 23 22 21 11 4 7 6 5 12 10 5 3 11 9 6 8 3 3 9 3 6 4 4 8 8 2 3 7 8 5 5 3 7 8 5 6 6 5
29 29 29 30 30 29 28 26 26 24 22 21 8 4 1 7 9 6 10 3 6 10 13 10 4 2 4 5 5 4 2 6 7 13 4 6 6 17 13 7 11 8 5 9 7 9 4
29 30 31 31 30 28 27 26 26 24 20 17 10 3 1 7 4 4 3 5 9 11 11 10 8 9 7 4 5 7 5 9 6 9 11 7 6 6 15 17 6 9 4 3 3 7 7
30 30 31 31 30 28 26 25 26 25 19 11 9 5 6 8 3 8 2 3 9 15 14 9 9 8 9 9 12 6 6 14 14 10 10 6 3 10 11 4 8 7 4 4 1 2 6
29 30 32 32 29 27 24 22 24 24 18 9 5 1 12 6 3 7 5 3 7 12 16 6 3 5 7 9 8 8 8 5 9 13 6 6 1 5 13 19 18 13 9 4 4 8 3
29 31 32 31 28 24 21 20 19 19 22 18 11 2 15 17 4 5 7 14 15 11 12 12 11 12 10 8 5 7 7 17 17 7 4 6 3 4 10 7 5 7 13 13 3 2 8
30 31 30 29 26 22 19 17 14 16 20 17 7 2 11 18 20 14 9 9 8 19 15 9 6 9 8 8 7 4 7 4 14 12 6 3 1 2 5 11 10 14 21 18 9 2 5
30 31 29 27 24 21 17 13 12 14 16 15 5 4 10 5 8 10 11 10 14 10 13 21 12 15 10 5 8 7 12 9 7 5 4 1 4 6 10 14 15 20 20 20 14 8 3
28 29 27 25 22 18 14 12 12 13 13 17 7 6 11 11 15 14 9 9 12 8 10 10 9 10 7 8 8 8 8 8 4 9 4 4 3 6 10 12 15 18 19 21 17 13 12
26 27 24 23 18 15 13 13 14 14 10 9 12 11 11 12 13 8 8 7 10 10 9 14 10 7 6 11 16 19 21 22 17 7 5 5 1 4 5 9 12 11 12 16 17 12 9
25 25 22 21 16 12 13 15 15 17 18 14 11 9 6 5 6 5 8 8 8 8 4 7 8 5 11 15 18 18 20 21 20 17 17 6 5 4 4 4 4 8 10 15 16 13 16
22 23 20 19 13 8 11 13 14 16 19 18 7 13 8 6 8 11 6 5 2 3 3 6 5 6 10 10 3 6 3 2 3 6 6 6 4 4 4 4 10 13 11 4 7 5 15
20 20 18 17 11 5 8 10 12 14 15 17 15 10 8 4 7 7 2 4 3 5 3 4 10 6 8 2 2 2 3 5 3 6 7 8 2 3 2 4 5 3 5 11 9 4 14
17 18 16 14 10 3 5 8 10 11 11 16 18 12 7 3 9 11 6 3 2 1 1 2 4 6 12 4 2 1 2 5 3 6 7 4 3 5 5 6 5 7 4 10 3 4 17
14 15 14 12 9 3 1 3 6 10 10 6 8 19 6 5 5 9 4 1 4 3 2 5 2 7 5 3 2 3 2 2 3 5 7 3 5 3 1 6 6 28 8 4 9 18 20
12 14 13 12 10 6 3 1 1 3 5 7 8 10 12 5 9 11 5 3 6 3 1 4 4 0 3 2 2 0 1 1 2 3 4 0 1 2 4 3 7 14 15 15 18 21 23

GFSGBSN_850_spd_066.txt.gz
Wind_Speed
20 20 21 21 21 22 23 23 25 25 24 23 23 22 21 22 22 19 18 17 14 15 13 11 9 9 7 5 6 1 3 9 15 16 20 23 17 15 5 6 16 12 14 16 14 23 18
21 21 23 22 21 21 22 24 24 24 24 23 23 22 22 20 19 21 19 15 14 15 13 9 8 8 6 4 4 2 5 5 12 20 23 27 17 24 9 12 9 10 14 21 22 21 18
20 21 23 20 21 22 23 23 23 23 23 23 24 24 22 20 20 18 19 16 14 14 11 7 4 3 5 9 4 1 4 3 6 17 25 28 20 6 4 7 19 17 5 8 20 20 9
20 20 21 21 22 22 22 21 22 23 24 23 22 23 23 21 19 19 16 14 12 10 7 4 3 4 6 8 8 10 7 3 3 12 20 24 16 14 12 15 12 6 2 0 8 14 12
20 21 22 22 21 21 22 22 22 22 23 24 24 23 21 20 20 18 15 11 10 6 3 2 2 4 5 5 7 11 13 11 4 11 20 18 5 10 10 3 5 6 4 5 3 22 10
22 23 22 22 21 22 22 22 23 24 24 25 25 25 23 19 18 17 12 12 6 5 4 4 6 7 6 4 8 10 9 14 8 10 6 8 6 2 3 4 4 4 3 6 5 7 8
22 21 21 21 22 22 22 23 24 25 26 27 26 25 24 20 14 14 5 6 3 2 6 8 2 6 2 8 6 10 15 10 11 10 4 6 3 5 9 6 6 3 5 11 15 7 6
22 22 23 23 23 23 24 25 26 26 27 27 26 25 23 19 12 7 8 5 7 6 8 14 19 21 16 6 2 11 13 5 9 5 3 3 6 9 7 6 8 7 8 15 13 7 8
24 24 24 25 26 26 27 28 28 28 27 25 25 23 22 16 6 1 5 5 8 11 3 12 14 13 11 8 4 13 16 13 4 6 6 6 10 8 7 7 8 9 8 15 11 6 11
25 25 26 27 28 28 28 28 28 27 25 24 21 22 20 9 4 4 9 9 8 8 4 6 6 5 11 6 2 17 11 3 3 8 6 6 16 10 10 12 6 7 8 11 5 5 2
26 27 27 28 28 28 29 28 28 26 24 21 19 21 13 7 2 7 13 8 7 2 1 3 5 8 11 6 11 3 6 3 1 2 4 7 5 7 7 12 7 11 13 6 2 2 5
29 29 29 29 28 28 28 27 26 25 23 19 18 17 8 4 9 12 12 9 6 5 2 4 5 5 5 3 1 8 2 3 2 2 1 7 5 4 8 9 8 9 2 6 4 3 3
29 29 30 30 29 28 27 27 26 25 23 18 14 8 5 3 8 10 10 10 4 2 6 4 4 5 5 5 4 4 3 2 3 3 2 5 5 4 2 3 6 4 7 3 4 4 5
28 29 30 31 30 29 27 26 26 24 22 16 4 4 8 10 9 8 14 4 6 7 5 6 4 5 5 5 2 3 3 3 5 1 2 1 4 8 9 5 2 1 8 5 5 2 3
29 31 32 32 30 28 27 26 26 24 21 13 1 3 6 6 10 8 8 5 1 5 6 8 5 4 8 5 6 4 8 8 4 5 5 3 4 5 9 5 1 5 1 6 5 1 4
30 31 31 31 29 27 26 26 25 22 17 13 8 4 7 10 8 6 5 5 3 6 7 7 7 6 7 8 7 4 6 7 4 9 5 3 3 3 7 9 13 7 4 3 3 3 3
30 32 32 30 27 25 25 24 23 21 14 12 8 4 14 4 2 2 2 2 8 22 19 8 7 6 5 4 6 5 5 3 5 5 14 3 4 8 4 6 3 7 6 6 2 5 5
30 32 31 29 25 24 23 22 20 21 13 9 6 4 20 5 6 2 3 4 9 13 22 8 9 8 5 6 6 6 7 6 9 5 4 6 3 3 4 6 2 4 5 6 4 7 1
30 31 30 27 23 22 20 17 19 21 22 14 5 5 26 14 4 5 5 12 20 10 11 7 11 8 6 6 5 6 6 12 22 7 3 5 4 4 12 6 8 6 7 5 5 2 2
30 31 29 26 21 19 16 15 17 18 18 14 5 4 9 20 16 4 5 7 5 18 20 16 9 11 8 9 8 5 8 12 14 12 12 7 4 4 4 3 4 6 13 10 4 2 5
27 29 27 23 19 17 14 14 14 12 14 9 9 3 7 4 9 9 14 5 13 7 9 22 8 12 5 7 5 6 9 8 9 19 8 4 2 4 2 6 8 9 12 11 7 4 4
25 27 24 21 17 13 14 16 18 14 12 18 5 5 7 15 19 15 7 6 7 6 7 5 5 7 10 5 3 3 6 5 3 10 6 5 2 4 7 7 10 13 10 11 11 5 5
23 24 22 18 14 11 15 17 19 15 11 11 12 10 4 9 5 5 4 4 5 4 11 12 8 4 7 5 9 12 12 10 9 0 3 1 4 3 1 5 7 9 2 3 7 9 1
20 22 19 16 10 8 13 15 17 18 12 13 15 8 5 2 3 3 6 8 3 2 1 4 10 5 8 13 14 11 8 9 10 13 7 4 3 3 3 4 3 5 7 5 8 10 7
17 19 17 15 8 5 9 12 14 14 15 13 13 10 5 2 6 4 7 3 0 1 2 6 6 4 8 10 5 6 5 4 5 3 6 2 5 2 4 5 6 10 7 3 4 4 8
15 16 15 13 7 2 4 8 10 12 11 11 13 11 4 4 3 4 7 5 2 2 4 4 8 7 6 4 3 3 3 3 4 8 7 6 4 4 2 3 5 1 12 23 3 3 11
14 14 14 11 7 1 2 4 7 7 9 11 11 8 3 3 4 7 3 3 1 1 2 1 1 4 9 3 3 3 2 1 2 3 4 5 3 3 4 4 5 6 17 15 3 2 10
12 12 13 11 8 2 3 2 2 5 7 7 8 12 8 3 1 4 2 5 4 3 3 2 4 5 4 4 3 1 2 1 1 3 3 1 1 2 2 3 5 14 4 2 6 10 13
11 10 12 10 8 5 2 3 3 3 3 5 5 5 5 4 5 8 8 8 7 7 5 2 5 4 4 4 2 2 2 3 4 2 2 3 4 3 5 3 3 4 7 8 10 16 18

GFSGBSN_850_spd_069.txt.gz
Wind_Speed
17 18 20 20 20 20 21 22 22 22 22 22 22 21 21 20 19 18 16 15 15 14 13 12 10 8 7 5 6 4 5 17 23 22 22 22 21 12 5 5 7 6 12 12 18 13 10
18 19 19 20 20 21 21 21 21 21 21 22 23 23 21 20 20 19 17 16 14 14 12 10 8 9 5 3 7 6 3 15 21 23 24 26 18 22 3 4 1 5 10 16 22 18 14
19 19 19 19 20 19 20 21 22 23 23 23 22 22 22 21 20 19 17 16 14 12 11 6 5 2 6 7 8 6 2 4 11 23 26 28 9 13 2 4 9 18 10 6 4 14 6
17 18 18 18 18 18 19 20 21 22 22 23 23 23 22 21 20 19 17 15 12 10 7 5 5 5 6 6 8 11 7 6 7 12 20 26 22 5 3 6 6 3 3 3 3 10 9
20 20 21 21 21 21 21 22 23 23 23 23 24 24 23 21 20 19 15 13 11 9 4 4 4 4 5 9 13 13 11 9 7 11 16 10 16 6 3 1 4 6 1 2 2 6 6
21 21 21 21 22 22 23 24 24 24 24 25 25 25 23 20 18 17 13 12 4 3 4 4 5 4 5 6 7 9 13 11 8 14 10 9 8 2 2 3 4 2 2 2 1 6 4
22 22 23 23 23 24 24 24 25 24 24 23 24 24 22 19 16 12 6 1 2 1 5 8 2 5 2 2 11 13 14 16 8 13 5 8 4 5 7 6 5 3 3 3 3 4 5
23 24 24 25 25 26 26 25 25 25 23 22 22 22 21 18 11 5 2 4 10 3 8 13 15 18 14 8 4 12 15 12 7 4 5 5 5 8 2 3 4 3 1 5 7 3 7
25 25 26 26 26 26 26 25 25 25 24 22 21 22 21 14 3 4 5 13 12 6 3 8 11 12 7 7 5 11 14 9 5 4 4 5 4 5 4 4 3 4 3 4 6 5 3
26 26 27 27 28 27 26 25 24 24 23 21 21 22 19 5 5 4 8 10 8 1 4 6 5 6 7 5 1 9 17 9 3 8 7 4 4 6 6 6 6 6 8 8 5 2 2
27 28 29 30 30 29 27 25 25 24 23 20 19 19 12 4 4 9 10 4 4 1 2 3 3 7 10 6 10 6 11 5 5 4 6 6 2 5 7 10 6 9 6 7 6 3 4
29 30 30 30 30 28 26 25 25 24 22 18 16 14 5 5 8 7 6 5 1 4 1 2 5 4 6 2 2 6 4 5 3 5 1 5 2 5 7 7 9 6 3 5 5 3 2
29 30 31 31 30 28 26 25 25 23 20 13 9 9 7 4 6 8 8 1 4 2 7 4 3 4 5 2 2 2 4 4 3 4 1 2 2 6 5 2 3 5 6 2 2 3 5
30 32 32 30 28 26 25 25 24 21 17 5 7 6 6 8 7 9 10 5 8 5 4 5 3 4 5 3 1 3 4 4 7 4 3 4 1 6 8 2 1 2 7 5 5 5 3
31 32 31 29 27 25 25 24 20 19 15 5 4 7 12 9 11 13 2 6 2 4 5 7 3 7 7 6 4 6 4 4 6 4 5 3 2 5 4 6 2 2 4 1 7 4 3
32 32 31 29 26 24 24 21 19 17 10 6 5 6 20 11 10 13 6 5 2 9 6 6 6 5 5 8 5 5 5 5 3 9 1 1 3 2 5 5 9 7 2 3 4 4 3
32 33 30 26 23 23 21 19 19 20 12 9 7 4 20 9 10 7 4 3 5 18 11 8 7 6 4 5 5 4 6 4 7 6 13 2 3 5 2 6 4 7 5 5 3 4 5
29 30 28 25 21 20 19 20 20 20 11 6 13 4 18 15 7 3 3 5 9 15 18 8 5 6 5 8 8 5 5 7 13 4 4 4 4 4 4 6 6 10 5 4 4 5 2
28 29 26 22 20 18 17 20 21 18 14 5 5 11 24 8 4 4 5 5 13 13 9 6 8 7 6 6 6 6 5 13 21 6 2 4 4 3 4 6 8 7 6 4 4 3 3
26 27 25 21 17 15 18 19 18 17 11 7 4 4 9 23 6 5 4 6 4 17 11 8 7 5 6 9 10 4 5 8 15 13 15 7 4 4 4 3 3 3 5 5 5 4 4
23 25 22 18 15 14 18 20 20 13 10 6 6 3 3 3 8 8 6 5 7 5 6 18 7 10 3 5 3 4 6 6 9 18 8 5 4 2 2 2 2 2 4 5 3 4 4
21 22 20 16 11 13 17 19 18 12 12 13 4 3 5 5 5 7 6 5 6 5 5 5 5 5 8 5 3 1 1 2 1 9 6 5 2 2 6 4 5 2 4 5 6 3 2
19 19 18 14 8 10 14 17 18 13 11 12 10 9 4 9 4 4 3 2 3 1 7 4 3 3 5 2 3 5 5 4 2 1 2 3 3 3 3 6 6 5 6 5 2 3 3
17 17 16 13 6 7 11 14 17 15 11 12 11 8 6 2 3 2 1 3 3 3 3 1 4 2 4 9 2 3 3 3 2 1 3 4 3 2 2 4 1 5 3 5 8 5 4
14 14 15 12 5 3 7 10 13 13 13 10 10 6 3 1 1 2 3 2 2 3 2 2 5 4 8 6 4 5 5 4 7 6 6 2 4 2 4 3 5 4 4 4 2 4 3
11 11 13 11 6 1 2 6 7 11 10 8 9 8 4 5 3 1 4 2 1 2 5 3 6 9 6 5 4 3 1 2 3 6 7 5 6 4 3 3 5 5 3 11 5 3 3
11 9 11 10 7 2 2 1 4 6 7 9 7 3 3 4 3 3 2 3 3 2 1 3 2 5 7 3 3 2 1 1 1 0 3 3 3 3 3 4 6 2 9 5 3 2 2
10 8 9 9 6 3 4 3 3 3 6 6 8 8 2 2 4 4 5 5 5 4 3 2 3 4 4 4 3 2 2 2 1 2 2 3 3 2 2 2 7 3 2 3 2 8 8
8 7 7 8 7 5 3 5 5 5 5 5 5 6 7 4 4 9 10 9 8 8 8 4 4 3 4 4 2 2 1 0 1 3 3 2 5 4 6 4 2 1 4 11 13 14 14

GFSGBSN_850_spd_072.txt.gz
Wind_Speed
19 18 18 18 18 19 19 19 20 20 20 20 20 20 20 20 19 18 16 15 15 15 12 11 9 7 6 4 4 2 11 21 24 27 25 23 26 9 5 5 4 7 6 9 10 11 11
17 19 19 18 19 19 20 21 22 21 21 20 20 20 20 20 19 19 17 15 14 13 13 11 8 6 5 3 6 6 9 23 24 26 24 23 18 13 6 2 2 2 7 17 10 12 13
17 17 17 17 18 18 19 20 21 21 22 22 22 21 21 20 19 18 17 16 14 12 10 11 6 6 7 5 9 10 8 17 21 23 24 22 8 12 1 2 6 9 3 4 7 9 5
18 19 20 20 20 21 21 22 22 22 22 22 23 22 21 20 19 18 14 15 13 10 9 7 7 6 5 8 11 13 12 14 18 19 18 22 9 8 2 6 6 4 4 4 2 1 10
22 22 22 23 23 23 24 24 24 23 22 22 22 22 21 19 18 16 13 10 10 7 6 3 6 5 3 11 13 16 12 11 16 15 12 17 15 2 1 2 4 6 2 3 2 4 5
23 23 23 24 24 24 24 24 24 23 22 21 20 20 19 18 17 14 8 6 3 3 5 4 5 3 5 9 14 17 17 9 15 17 13 9 8 3 3 3 4 3 4 2 2 5 1
24 24 25 26 26 26 25 24 24 23 23 21 20 20 19 17 15 10 3 3 2 1 6 7 1 6 3 4 10 14 22 16 21 15 5 6 4 6 7 6 4 3 4 0 3 3 2
25 26 27 27 28 27 26 25 24 24 23 22 20 20 20 16 11 2 8 5 6 5 7 10 13 17 17 8 5 19 22 11 13 6 6 4 6 8 6 5 5 2 3 3 5 3 5
27 28 28 29 29 28 27 25 25 24 23 22 20 20 18 11 3 5 8 11 10 3 2 5 9 9 7 8 7 18 24 13 9 6 5 7 5 8 5 3 4 2 3 3 5 2 3
28 29 30 30 30 28 27 25 24 24 22 20 19 18 13 4 4 4 6 11 6 1 4 5 5 4 7 5 2 19 21 11 3 8 8 5 3 7 4 3 6 1 7 6 3 2 1
29 31 31 30 30 28 26 26 25 23 20 18 16 14 8 5 4 5 7 7 4 1 1 2 3 9 10 6 8 4 16 8 7 6 6 5 6 4 3 6 6 7 6 6 3 2 3
30 32 32 31 29 27 26 25 23 20 18 14 12 11 6 5 5 9 10 7 3 3 1 2 4 4 5 2 2 5 5 7 6 5 3 5 2 5 8 6 9 5 5 7 5 3 2
30 31 31 30 28 26 25 23 20 20 13 9 8 11 10 7 7 9 12 3 3 3 5 6 4 4 5 2 4 4 5 6 3 5 3 3 2 5 3 3 3 5 6 2 3 2 4
30 31 32 31 27 25 24 19 19 19 10 6 7 11 12 8 11 12 10 5 7 5 4 4 4 5 5 6 7 6 4 5 7 5 4 5 1 6 8 3 5 5 7 5 5 5 4
31 32 31 29 26 25 21 18 18 16 12 7 8 8 15 11 13 13 3 6 1 4 6 6 1 7 7 6 5 6 5 3 4 4 5 5 1 5 4 5 2 4 5 3 7 2 3
29 31 30 27 25 23 20 20 19 18 13 9 8 5 23 12 13 9 5 4 3 5 6 3 5 3 3 7 5 5 6 5 6 8 2 2 5 3 5 5 9 7 1 3 4 3 2
29 30 28 25 23 21 22 22 19 17 9 11 7 4 22 17 9 11 4 3 4 15 8 7 4 5 4 3 5 4 6 2 7 6 11 2 3 4 5 8 5 6 5 5 5 3 5
26 28 27 24 21 20 22 24 22 16 12 6 7 3 21 11 8 3 3 4 8 12 17 7 4 5 5 6 6 4 4 4 20 4 4 4 5 5 2 5 4 5 3 3 4 3 2
25 25 24 21 18 20 22 25 23 19 12 5 3 7 19 3 4 3 4 4 9 10 8 8 8 7 5 4 6 4 4 9 21 6 2 1 3 4 3 5 5 7 5 3 4 3 1
22 23 22 19 16 19 22 24 21 20 11 7 3 4 10 20 8 4 2 5 4 14 8 8 7 5 5 8 9 3 3 6 14 12 13 6 4 3 6 4 3 4 4 4 4 3 3
21 20 20 16 13 17 21 22 20 19 12 4 6 2 3 3 9 6 5 4 4 7 8 17 6 9 4 5 4 4 5 6 9 16 8 5 4 3 5 5 3 3 3 1 1 3 3
18 18 18 15 10 13 18 20 18 13 17 15 4 4 6 4 4 5 6 5 5 4 7 5 5 4 8 5 2 2 2 4 1 8 5 5 3 3 2 3 2 4 6 6 4 3 3
16 14 15 13 8 10 14 18 18 14 15 8 11 9 5 7 4 4 2 2 2 2 8 8 3 3 7 3 0 1 0 2 2 3 3 3 4 3 3 2 2 3 1 3 2 3 2
14 13 13 12 6 6 11 15 17 17 16 12 10 7 6 2 3 2 2 3 4 4 4 4 8 4 4 7 6 10 11 9 11 7 2 4 3 2 3 1 3 3 2 5 4 1 1
11 13 12 10 6 2 5 9 13 13 13 11 10 6 4 2 2 2 4 3 3 4 3 4 5 3 5 3 4 4 4 3 5 5 6 3 4 3 3 1 3 1 2 2 4 6 2
9 10 10 9 7 2 2 4 6 9 11 9 8 8 4 8 3 3 3 2 3 2 3 2 1 7 2 5 4 2 2 2 1 3 6 5 6 4 2 3 4 5 3 3 1 4 5
7 8 8 9 7 4 4 3 3 6 8 9 9 3 2 3 3 8 3 3 4 3 3 2 1 1 4 2 3 2 1 1 1 1 1 3 3 4 3 2 5 2 5 2 4 2 1
5 6 6 7 6 5 4 6 5 5 6 7 7 7 3 1 5 6 6 5 5 4 3 4 3 3 4 4 3 2 3 2 2 3 1 3 4 3 3 3 6 1 2 3 0 4 8
5 4 4 6 5 5 4 4 6 7 8 7 6 7 7 3 3 10 9 7 7 5 7 6 2 4 5 4 1 3 2 2 4 2 2 2 5 3 6 4 3 2 4 7 13 11 8

GFSGBSN_850_spd_075.txt.gz
Wind_Speed
18 19 18 18 17 17 18 18 18 18 18 18 17 17 17 17 16 15 13 13 12 12 10 9 9 6 4 3 4 1 14 23 26 27 27 20 22 11 8 6 4 7 6 4 6 11 7
18 19 19 19 18 19 19 19 20 20 21 21 20 18 17 18 17 16 14 12 11 11 10 8 8 7 4 3 4 5 16 25 25 29 26 21 15 8 9 5 5 3 9 10 3 10 12
18 18 18 19 20 20 21 20 20 20 21 21 21 19 18 18 18 16 14 14 10 9 8 7 6 5 7 4 7 10 18 23 25 27 24 17 11 6 6 4 3 5 6 3 8 11 6
20 21 21 22 23 23 22 22 22 21 21 21 21 19 18 18 18 16 14 13 11 8 6 6 5 4 4 6 10 13 18 23 24 20 19 18 11 7 1 3 1 3 1 2 3 8 6
23 23 24 24 24 23 23 22 22 21 22 21 20 19 17 17 17 16 12 11 8 4 5 5 6 5 2 8 14 17 17 21 21 18 12 16 7 7 2 2 4 1 5 4 4 4 6
25 25 25 26 26 25 24 23 21 21 21 21 20 18 17 17 16 13 8 3 4 4 6 5 4 3 5 5 13 20 18 14 20 19 9 10 5 7 3 5 9 7 5 4 5 8 5
25 26 26 27 27 26 24 23 22 21 20 20 19 18 17 16 14 7 1 4 2 1 8 6 3 3 6 3 13 20 19 17 13 18 8 11 9 14 13 8 2 5 6 4 3 5 3
26 27 28 27 27 26 24 22 21 21 21 20 19 17 17 14 6 8 8 3 3 2 7 11 15 15 11 3 5 20 22 9 15 16 12 9 15 12 9 6 4 5 4 3 2 4 3
28 29 29 28 27 26 24 22 22 22 21 20 17 15 12 6 8 6 8 8 8 5 4 4 9 10 8 12 9 19 26 11 16 12 13 14 7 14 10 8 9 5 6 3 2 1 3
29 30 30 29 27 25 23 22 22 21 20 19 15 11 6 5 4 4 4 12 7 1 3 2 6 6 11 12 6 24 26 14 7 14 11 9 6 16 11 10 9 10 7 4 3 2 1
30 31 31 29 27 24 23 22 21 21 19 14 12 10 6 5 3 3 6 11 4 1 2 2 4 9 12 8 18 13 24 8 12 11 5 6 12 16 14 11 8 5 4 5 2 4 3
30 32 32 29 26 24 22 20 21 20 15 11 11 11 7 3 3 7 9 9 1 2 1 2 4 7 8 5 4 16 13 6 6 10 4 4 5 7 7 9 12 9 6 4 4 3 5
30 32 32 28 25 24 20 19 19 18 9 8 10 12 10 6 5 6 9 1 2 3 6 7 3 4 9 4 6 12 3 4 4 11 13 4 3 2 2 8 7 7 9 5 6 5 5
29 31 31 28 25 22 20 20 19 17 12 9 8 7 14 10 10 8 1 2 6 7 5 5 4 5 5 3 6 5 5 4 9 3 6 10 6 3 6 2 6 14 11 6 10 8 7
29 29 30 27 23 21 22 21 18 17 13 9 7 7 20 14 11 5 4 6 2 4 8 8 5 6 4 5 6 7 8 5 7 6 3 6 5 3 7 6 2 6 8 2 5 2 8
26 28 28 25 22 22 24 23 19 14 10 10 11 6 21 14 10 6 5 6 2 8 8 3 2 4 4 4 5 5 6 5 5 10 2 3 6 7 5 2 11 2 4 6 3 9 9
25 26 27 23 21 23 25 26 23 17 10 9 11 2 19 9 6 11 4 4 3 13 9 7 5 4 6 4 7 4 5 3 7 6 7 2 0 3 1 7 7 1 3 3 2 2 6
24 24 24 21 19 22 25 26 23 21 12 5 5 2 19 7 5 4 4 4 8 13 13 8 6 8 6 7 7 5 4 6 15 5 4 4 5 5 4 1 4 7 3 1 7 5 2
22 22 22 19 16 20 24 24 23 21 15 7 3 7 21 4 3 3 3 3 10 12 10 8 8 9 7 4 5 5 4 7 15 7 3 1 3 6 3 3 1 4 5 3 2 0 2
20 21 22 18 15 18 21 22 20 23 14 8 3 2 8 19 7 4 3 5 3 12 10 9 7 4 3 7 8 4 3 6 9 10 12 4 4 3 2 4 2 3 4 5 3 3 7
19 19 19 17 12 15 19 20 19 19 20 4 5 3 3 4 8 8 4 3 5 6 7 15 7 11 3 4 4 5 3 3 9 14 6 4 5 6 9 6 3 1 1 3 4 4 2
16 17 17 16 9 12 15 19 19 18 14 15 4 3 6 3 2 6 5 3 7 4 6 6 8 12 11 6 5 3 2 3 3 6 4 3 5 5 3 4 3 4 5 4 1 4 3
15 15 15 14 9 8 12 16 18 18 17 9 8 6 3 5 2 2 2 2 3 3 7 8 5 8 12 7 5 7 9 7 5 4 4 3 6 3 4 3 0 5 6 6 2 3 4
12 12 13 13 9 5 8 12 15 17 17 14 9 4 3 3 3 3 4 5 7 6 7 5 7 4 2 10 13 13 14 12 9 8 5 4 4 2 5 3 4 5 4 1 2 4 4
10 9 10 12 9 5 4 7 11 14 14 13 11 5 3 3 4 5 5 5 5 5 5 6 5 3 6 6 4 5 3 2 6 8 5 5 3 3 4 6 1 6 2 1 3 4 3
12 7 8 10 9 6 3 4 6 10 11 11 8 7 4 7 3 5 4 2 2 2 2 3 2 5 2 2 2 3 3 3 3 3 4 5 4 0 2 3 6 5 6 2 3 5 4
7 5 7 9 9 7 4 4 3 6 9 9 10 5 2 3 5 9 3 3 5 3 2 1 1 1 3 2 2 1 2 2 5 7 5 3 2 5 4 3 2 3 5 4 5 4 5
3 6 5 6 7 7 5 5 6 5 7 8 6 6 4 1 7 8 7 7 6 4 3 5 3 2 2 2 1 2 2 2 2 1 3 5 5 3 2 4 6 7 5 5 5 4 1
3 5 5 5 6 6 5 5 4 6 6 7 6 6 6 3 4 10 10 7 4 2 7 8 0 3 3 4 1 3 2 3 3 3 3 3 2 3 6 3 3 6 3 3 3 4 5

GFSGBSN_850_spd_078.txt.gz
Wind_Speed
18 18 18 18 17 17 17 17 17 18 18 17 16 16 15 14 13 13 12 11 11 10 10 7 5 5 3 5 5 6 8 23 26 24 23 21 20 15 12 9 8 10 3 1 2 12 9
18 17 17 17 17 18 17 17 17 18 18 17 16 15 15 14 14 13 12 12 11 11 9 8 5 4 3 7 3 2 15 23 23 24 22 19 16 11 11 10 10 3 4 4 2 14 11
17 17 18 18 19 18 18 18 17 16 17 17 16 15 14 13 12 13 12 11 10 10 10 7 5 5 7 2 3 10 17 18 19 21 21 18 11 13 5 7 7 6 7 7 3 12 10
20 21 21 22 22 22 20 19 17 16 16 16 16 14 14 14 13 12 11 10 9 8 7 6 5 5 4 9 8 15 17 18 15 16 16 14 12 10 9 1 8 10 9 10 9 11 8
22 23 24 24 23 22 21 20 18 17 17 17 16 15 14 15 14 11 8 7 6 3 4 5 3 5 6 11 13 15 17 20 17 12 14 11 13 14 8 12 10 10 12 7 9 6 10
25 26 26 25 24 23 20 19 18 18 18 17 16 16 15 15 13 8 4 2 4 3 3 3 3 6 7 14 18 16 16 19 18 14 13 13 13 11 12 12 14 15 9 7 10 9 11
26 27 27 26 24 22 20 19 18 17 17 17 16 14 15 14 10 2 2 3 1 2 7 7 1 4 12 14 18 18 17 20 16 17 14 18 11 18 21 17 6 8 11 10 6 11 7
27 28 28 27 24 21 20 19 18 17 17 16 14 14 13 12 5 7 6 1 3 3 8 13 13 11 7 16 15 20 20 14 20 17 16 12 18 16 17 11 9 11 12 12 7 6 5
28 29 30 27 24 21 20 19 17 18 18 16 15 13 10 6 9 7 5 2 7 5 7 6 11 14 14 13 21 25 24 12 19 20 18 14 12 12 15 15 14 13 14 12 8 6 3
28 30 29 27 23 21 19 16 17 18 16 14 13 11 6 4 4 2 1 9 8 3 5 10 9 12 14 17 13 27 25 14 11 19 18 15 7 17 18 18 17 15 7 4 9 8 8
28 30 30 26 23 21 16 16 18 16 13 12 13 12 6 3 1 1 4 9 5 3 5 4 8 9 19 23 22 24 26 15 15 16 12 13 13 20 19 17 16 8 11 9 8 9 4
27 29 29 25 22 18 17 17 16 14 9 9 10 11 8 4 5 5 7 8 3 7 2 3 8 13 17 14 22 29 23 9 11 13 16 8 15 16 15 13 13 7 10 9 8 9 10
26 27 28 24 20 19 19 17 16 15 10 6 7 7 9 6 4 9 8 4 6 4 5 4 2 16 17 15 15 23 21 16 10 16 16 12 15 7 5 14 16 13 16 11 10 8 8
24 26 26 24 19 19 21 20 17 14 12 7 5 8 13 8 7 7 5 10 1 7 6 8 2 11 10 16 16 19 14 10 3 10 15 14 13 14 3 11 13 20 19 11 13 12 12
23 24 26 23 19 20 22 22 19 13 9 6 9 8 7 12 5 4 11 1 5 7 6 7 7 10 13 7 10 15 5 8 3 5 9 14 9 7 4 2 7 20 16 7 7 9 9
23 24 24 22 18 20 23 23 20 17 9 7 8 4 5 10 4 2 4 5 4 9 6 3 5 3 14 13 14 12 6 3 3 7 8 1 11 2 3 4 2 7 13 10 9 14 13
22 23 23 21 17 20 23 23 21 18 11 5 4 7 5 8 5 4 1 5 5 9 5 4 1 2 8 6 9 5 3 6 6 4 3 3 6 8 7 2 2 7 11 10 9 5 14
21 21 22 20 16 19 22 22 20 19 12 5 3 3 11 4 5 2 4 4 5 7 7 6 6 6 6 4 7 4 6 6 9 3 2 2 4 11 9 6 1 2 5 9 10 12 6
20 20 20 19 14 17 21 21 20 20 12 5 2 4 10 1 1 5 5 6 10 10 10 5 6 7 4 3 5 6 4 5 8 4 3 2 7 9 10 7 4 3 2 2 8 8 13
18 18 19 19 13 15 19 21 20 19 14 5 2 1 7 11 6 4 5 5 3 9 12 9 4 3 5 6 5 6 7 5 6 9 6 5 2 5 4 7 6 8 3 1 7 10 8
15 16 17 17 13 13 16 19 19 18 16 5 5 4 3 3 7 6 5 3 5 3 6 8 6 5 3 5 10 7 4 5 8 7 4 4 4 6 9 8 6 4 4 3 1 5 5
17 15 15 14 13 10 14 17 18 17 12 10 3 1 6 7 3 4 2 6 7 5 7 8 9 9 5 8 6 7 7 3 4 5 4 4 3 4 3 3 3 4 4 3 3 3 6
15 12 13 13 12 8 10 14 16 17 14 8 7 5 2 2 2 1 4 3 4 3 8 7 6 8 10 9 9 9 9 8 7 3 4 1 6 5 4 1 2 8 11 9 6 5 6
11 11 12 12 12 8 7 9 13 16 16 10 8 4 2 5 3 6 7 8 8 7 8 7 4 1 4 8 9 8 8 8 6 6 4 5 5 3 4 6 6 7 4 1 7 7 3
11 10 9 11 11 8 5 7 9 12 14 11 12 4 2 4 8 8 7 9 10 9 9 9 8 6 7 5 5 6 4 5 5 3 2 2 3 3 4 9 4 5 5 6 12 10 3
10 11 6 9 10 7 5 4 6 8 11 11 9 8 3 2 3 6 6 4 4 5 6 7 5 4 6 4 1 4 3 3 4 6 2 4 1 4 4 5 6 10 7 3 2 8 8
11 5 6 6 8 7 5 3 5 5 7 8 8 6 3 1 4 5 0 1 2 1 3 5 5 5 5 3 2 0 2 6 3 5 5 5 3 8 7 5 2 5 6 6 7 6 9
2 3 5 5 6 6 6 4 5 5 6 6 4 5 3 2 3 5 2 2 2 2 1 6 5 3 4 2 2 2 1 2 2 2 3 6 6 5 5 6 8 10 7 6 8 9 8
1 5 5 4 6 6 5 5 4 5 5 5 2 6 3 1 0 5 5 3 2 1 2 4 3 2 3 3 1 3 2 3 4 3 3 4 3 2 4 2 5 12 2 7 4 3 3

GFSGBSN_850_spd_081.txt.gz
Wind_Speed
18 18 18 19 19 19 18 17 17 17 16 16 15 14 13 12 12 12 12 12 12 11 9 8 6 6 4 7 12 8 8 15 22 23 22 20 20 19 14 9 3 8 5 7 17 9 10
18 18 18 17 17 17 16 15 15 15 15 15 15 15 14 12 12 11 11 11 11 11 9 9 6 6 4 14 2 9 9 20 23 22 22 20 18 18 11 11 9 7 13 10 12 9 18
19 19 19 19 18 17 16 15 14 14 14 14 14 14 13 12 12 12 11 10 9 9 8 7 7 6 9 6 2 6 14 20 22 21 22 19 14 14 13 9 16 9 8 9 9 19 14
22 22 23 22 21 19 17 16 15 14 13 12 12 13 13 11 11 10 10 8 7 6 6 5 4 4 8 9 6 11 14 18 19 19 18 17 13 17 12 7 9 13 14 12 10 14 14
24 25 25 24 22 20 18 16 15 15 14 14 13 12 12 13 12 9 7 5 4 1 3 4 1 8 9 6 14 15 17 19 19 17 16 14 13 20 15 13 14 14 14 12 12 13 12
25 26 26 25 22 20 18 17 16 16 16 16 14 13 13 12 9 6 2 1 2 3 4 4 6 8 12 13 17 17 18 18 19 18 15 14 14 16 15 15 16 18 18 13 16 12 12
25 27 27 25 22 19 18 17 15 15 15 15 15 14 13 12 6 1 3 3 2 4 11 11 3 7 3 13 19 18 19 21 19 20 15 22 14 19 22 22 23 12 17 22 17 15 21
25 26 27 24 20 18 17 14 14 15 15 14 13 11 10 7 7 6 6 5 6 7 11 14 13 15 4 17 19 20 21 19 19 17 21 14 19 19 17 21 17 16 18 9 14 13 12
24 26 27 24 20 17 14 13 15 15 14 13 13 12 8 7 6 4 2 3 5 8 9 11 15 17 16 20 21 25 27 24 20 21 22 16 16 18 19 18 14 18 13 14 12 7 13
23 25 26 23 19 16 13 14 15 13 11 11 13 11 6 2 2 1 0 4 7 6 6 14 13 14 20 19 21 25 27 23 13 21 21 19 17 20 15 21 18 20 18 12 10 14 13
22 23 24 22 18 16 15 14 14 12 9 8 9 8 5 4 3 5 4 7 5 4 6 5 12 12 18 23 19 26 25 22 17 17 17 18 19 17 17 18 18 16 16 11 12 14 11
21 22 23 20 16 16 16 15 13 11 10 7 7 7 5 4 4 6 7 6 5 7 2 5 8 15 21 26 19 28 26 25 16 16 15 20 17 13 19 18 17 17 17 13 12 13 13
20 21 22 19 15 16 17 17 15 11 10 7 6 6 8 6 6 7 7 8 7 5 12 3 8 18 20 19 17 20 24 22 16 18 18 21 18 18 21 18 14 16 13 11 12 14 11
20 20 21 19 15 17 19 18 16 14 8 5 5 7 10 8 8 6 5 10 9 10 2 7 9 14 19 19 18 21 21 18 23 19 15 17 18 24 14 17 14 19 20 13 14 14 15
21 20 20 19 15 16 18 19 19 16 12 7 8 6 4 6 5 5 11 6 6 7 4 6 7 12 10 13 15 19 20 20 16 19 15 18 18 10 12 14 6 19 20 24 15 16 15
19 20 20 19 15 17 19 19 18 18 13 7 6 9 7 5 4 8 8 13 6 7 8 7 8 10 9 11 10 15 9 8 4 6 9 13 15 15 9 7 14 12 17 20 9 17 17
18 18 18 18 14 16 19 19 19 18 12 5 6 8 4 3 8 18 7 2 6 10 5 1 4 14 4 11 9 14 9 7 5 4 12 4 14 11 9 16 17 11 13 18 14 15 13
17 17 17 18 14 15 18 21 21 19 11 5 8 7 5 5 12 6 7 5 3 6 2 3 3 3 6 6 8 9 3 10 5 9 12 4 5 13 19 5 5 10 13 17 12 19 13
16 16 16 16 14 14 17 19 21 19 13 4 8 4 6 5 8 5 5 8 6 4 5 3 3 2 3 5 7 8 7 5 7 4 8 4 9 9 7 7 8 11 10 11 17 15 11
15 14 14 14 12 10 15 18 19 17 12 3 7 2 6 3 6 7 4 2 5 4 6 2 4 3 6 4 2 6 7 4 7 6 9 7 15 6 6 17 17 18 6 11 11 10 11
17 15 12 13 12 8 12 16 18 16 9 5 6 5 4 5 6 4 1 1 1 1 2 2 3 5 8 6 6 5 7 8 5 3 3 7 6 5 6 6 4 15 14 9 14 15 7
15 13 11 12 12 7 9 13 16 14 8 6 6 2 6 6 1 3 3 6 4 7 7 2 1 3 8 8 8 9 6 3 3 2 3 6 1 6 8 4 5 6 5 5 4 2 6
14 11 10 11 11 8 7 10 15 15 11 6 4 3 6 2 3 2 7 5 5 2 6 6 4 3 8 6 7 7 5 3 4 2 3 3 2 5 9 5 4 9 11 10 8 5 5
15 12 10 10 11 9 5 7 10 14 12 8 4 4 4 4 5 6 6 6 7 5 5 5 2 3 2 2 3 4 5 4 1 1 2 4 5 4 6 2 11 6 5 3 8 7 6
15 12 11 9 9 8 5 3 6 10 11 10 7 4 4 4 8 7 6 9 8 6 8 7 6 4 2 5 4 4 5 4 4 2 3 5 7 7 10 8 2 7 4 6 11 11 5
15 11 6 6 8 6 5 4 3 6 9 8 8 5 4 4 9 6 6 2 3 6 5 5 5 1 2 4 2 6 6 5 5 5 5 5 4 6 7 12 15 15 12 4 2 11 9
8 5 4 6 7 7 5 3 4 4 6 5 5 6 2 2 7 2 2 4 3 2 5 4 4 4 6 2 2 3 3 7 2 5 5 8 7 9 8 6 3 10 8 6 9 5 15
2 1 4 4 6 6 5 4 2 4 4 3 3 5 4 4 6 3 3 2 4 5 3 8 5 4 6 2 1 2 2 1 3 6 2 6 5 5 8 8 10 10 6 6 11 12 11
3 5 5 3 4 6 5 4 4 4 4 4 1 5 1 3 6 3 3 3 2 2 3 3 5 2 8 2 1 2 1 3 4 2 3 4 3 3 4 4 7 6 8 10 9 12 8

GFSGBSN_850_spd_084.txt.gz
Wind_Speed
19 19 19 19 19 18 18 17 17 17 16 16 15 13 11 12 12 12 12 13 13 11 9 8 8 7 5 7 13 8 5 12 17 21 19 20 19 18 17 9 9 8 2 14 20 20 19
18 18 19 18 18 18 17 16 16 16 16 16 16 16 14 13 11 11 12 12 12 11 9 7 7 7 5 13 2 7 7 12 19 23 18 21 17 21 15 5 9 4 5 15 13 14 18
20 21 21 20 18 17 15 15 14 14 14 14 15 15 15 13 13 12 11 11 10 9 8 6 5 6 9 19 3 4 10 15 18 22 18 19 18 19 11 11 11 11 9 16 18 19 16
22 23 23 22 19 17 16 15 14 14 13 13 13 14 13 13 13 12 11 9 8 5 5 5 5 5 10 6 11 7 10 14 18 19 17 16 17 16 20 16 17 19 9 9 16 22 16
22 24 25 23 20 18 16 15 15 14 14 14 12 11 11 12 12 9 7 6 5 2 3 4 4 6 12 9 14 12 13 16 19 17 17 15 15 15 19 16 12 15 15 17 8 22 22
22 24 25 23 20 18 17 15 14 14 14 14 13 11 10 9 9 6 2 2 3 1 3 5 4 9 16 13 12 16 16 16 18 18 16 16 11 13 15 15 15 18 20 16 18 15 14
22 24 25 23 20 18 16 14 15 15 15 15 13 10 7 5 2 0 1 4 3 4 12 13 4 14 4 10 15 18 19 18 18 20 15 19 12 16 21 22 22 21 20 13 6 11 22
22 23 25 22 19 16 13 13 14 14 14 13 13 12 7 5 5 5 1 5 6 9 12 22 18 14 13 13 17 18 20 18 20 15 19 13 19 19 21 23 23 24 9 10 11 5 9
22 22 24 21 18 15 14 14 14 13 12 11 12 10 5 2 1 1 4 7 7 9 13 18 22 20 15 12 17 21 23 24 19 20 21 21 15 22 20 22 22 24 17 14 13 16 12
21 21 22 20 15 15 15 15 15 13 12 10 10 8 5 4 8 6 9 6 9 9 7 10 15 15 19 15 17 20 24 24 14 19 20 22 21 21 20 21 22 22 18 16 27 23 11
20 20 21 20 15 15 17 17 15 13 13 11 9 8 7 7 9 9 7 9 9 6 5 5 13 6 17 20 11 21 22 25 20 16 16 21 22 20 21 20 21 19 18 22 18 13 13
18 19 20 20 15 14 16 17 16 14 13 12 9 8 6 5 12 6 10 9 8 6 3 2 5 8 15 21 25 22 22 25 22 17 19 23 23 19 18 17 21 17 21 9 11 11 13
19 19 19 19 16 15 17 17 16 15 14 12 9 9 10 11 11 8 10 8 6 6 15 7 7 9 15 17 19 21 19 19 18 17 19 21 22 21 14 16 17 18 19 11 10 12 11
20 19 19 19 15 14 17 17 17 18 16 13 11 11 12 8 8 8 6 9 6 8 12 14 12 9 16 20 23 21 19 18 22 22 14 15 17 22 14 20 20 19 21 11 16 14 13
19 18 18 18 15 14 17 18 20 20 19 13 13 14 15 9 3 4 11 4 3 11 8 8 14 8 13 17 16 16 18 18 23 21 20 17 22 20 20 22 23 17 20 19 15 17 15
20 17 17 17 16 14 16 18 20 21 19 14 12 14 20 9 6 4 8 1 7 22 10 10 10 3 5 12 9 14 20 9 7 14 3 6 15 19 17 21 14 12 19 16 15 16 14
18 16 16 17 16 13 16 19 22 22 17 12 14 9 10 4 6 6 4 8 9 3 10 11 3 9 13 4 18 11 11 10 4 3 13 7 8 14 14 13 12 13 12 17 19 15 13
17 15 16 16 16 12 15 19 22 22 17 10 14 13 3 7 11 9 5 11 3 5 3 2 3 7 2 10 5 11 6 3 15 9 12 13 8 6 17 15 17 17 17 16 13 19 12
20 18 15 15 15 11 13 16 21 21 19 15 8 5 4 3 2 4 19 8 5 2 3 4 3 4 3 7 2 13 11 17 11 10 6 8 5 6 15 14 16 11 17 16 19 19 14
20 19 14 13 13 10 11 15 18 19 15 12 8 3 4 1 2 12 10 7 5 1 1 3 3 4 4 6 5 5 8 2 5 6 8 7 9 7 11 7 16 17 17 12 12 11 10
20 17 11 12 13 11 10 14 17 14 11 14 7 6 5 8 10 9 9 4 4 3 2 4 1 9 8 4 6 5 3 4 2 6 4 6 11 10 19 15 20 20 19 7 12 14 15
20 16 12 12 13 12 9 12 16 12 9 5 10 9 1 7 2 4 3 8 8 7 8 1 7 6 10 5 3 5 2 5 6 4 6 10 7 9 5 9 15 23 21 13 14 14 13
18 16 14 12 11 12 7 9 13 16 10 8 9 3 11 4 5 5 10 8 6 2 5 11 13 8 8 9 8 7 12 7 5 5 6 8 10 6 3 1 5 3 5 2 8 4 21
16 16 13 10 9 10 7 5 9 12 10 11 9 9 16 4 8 8 7 9 10 7 4 5 6 9 9 3 7 11 9 1 3 2 4 2 5 7 8 2 7 5 9 4 10 5 12
19 15 10 9 8 8 7 3 5 8 8 9 10 8 13 4 6 6 8 5 6 4 7 7 4 5 4 6 7 4 5 4 8 4 6 6 3 4 6 9 3 5 1 5 6 10 14
16 7 6 5 7 8 7 4 3 5 6 5 9 7 11 9 8 5 5 5 6 5 6 6 4 2 3 7 4 5 6 7 7 6 6 10 7 6 9 8 14 14 13 10 5 8 13
10 4 4 5 7 7 7 5 2 4 5 2 5 8 7 15 8 2 7 7 4 3 5 3 2 4 4 1 2 4 2 7 3 2 8 6 4 10 10 7 3 5 4 3 7 3 18
5 5 6 6 6 7 6 6 5 4 3 2 3 8 7 10 7 1 3 1 2 7 6 4 5 4 5 3 1 4 3 4 4 7 7 4 6 5 7 7 5 9 2 2 7 10 10
5 5 5 4 5 6 5 6 5 5 4 5 4 6 7 6 7 0 1 1 1 3 7 1 4 3 9 3 2 2 1 2 3 2 0 3 8 4 6 6 10 13 15 13 12 11 10

GFSGBSN_850_spd_087.txt.gz
Wind_Speed
20 21 21 21 20 19 18 18 18 17 17 17 14 13 13 12 12 11 11 12 11 10 9 7 8 7 5 4 12 7 6 6 12 18 23 18 21 23 13 8 9 4 1 7 25 23 20
20 21 21 20 19 18 17 17 17 16 17 17 16 15 14 12 11 11 11 11 11 10 8 7 6 7 4 5 4 6 6 6 15 21 24 18 16 20 17 7 9 5 10 18 27 22 25
21 22 23 22 20 17 16 16 16 16 16 17 17 17 16 14 13 11 11 10 9 8 6 6 6 6 10 18 3 3 9 10 15 23 20 16 18 20 16 11 14 22 6 11 16 21 21
21 23 24 23 20 17 16 16 15 14 14 15 16 16 15 15 14 13 9 7 7 6 4 5 5 6 9 8 10 9 3 7 15 19 17 12 15 20 23 19 8 6 7 5 12 24 25
21 23 24 23 20 18 16 14 14 14 15 15 14 13 13 14 13 11 8 5 3 3 1 4 3 4 10 5 16 9 11 14 16 14 16 15 15 19 17 6 7 7 7 13 16 21 17
22 22 24 23 21 19 15 14 15 14 15 15 14 13 11 12 11 8 5 3 3 1 0 3 5 7 12 15 13 16 13 16 19 18 18 17 13 4 5 2 7 8 10 5 2 13 19
21 21 23 22 20 17 15 15 16 15 15 15 16 14 11 9 6 4 4 5 6 2 8 11 9 11 14 6 12 17 20 20 20 19 8 16 3 6 10 11 17 15 9 10 17 7 14
20 21 22 22 18 16 15 16 15 15 15 14 15 13 8 4 4 3 7 8 10 13 10 18 25 24 24 9 11 17 20 19 15 8 10 6 8 10 13 17 19 20 8 6 12 10 5
18 20 21 21 18 16 17 17 17 16 15 14 12 13 10 5 3 5 6 4 6 11 9 22 27 24 19 15 16 19 19 21 10 11 14 9 13 19 18 17 19 18 14 15 8 10 16
16 20 20 20 17 15 16 17 17 17 16 15 13 12 11 10 10 9 17 9 13 12 3 7 9 17 21 14 7 19 21 19 7 12 10 11 21 15 17 15 15 12 11 14 20 11 7
17 19 19 19 17 15 16 18 18 17 17 16 14 11 10 11 12 11 12 11 11 11 4 5 12 12 14 12 6 15 22 23 14 8 8 11 13 17 16 17 13 13 5 6 12 9 5
19 20 19 19 18 14 15 17 18 18 18 18 15 13 10 13 15 8 16 15 12 2 3 9 6 7 9 16 18 14 22 21 18 13 11 12 23 15 16 13 14 13 11 4 2 4 4
20 20 19 18 17 13 14 17 18 19 19 19 16 14 13 14 16 7 13 10 2 2 13 11 7 9 10 9 14 11 14 10 11 5 8 11 17 15 20 7 10 11 5 3 4 4 7
22 18 18 18 18 15 15 18 20 21 21 19 17 16 14 12 9 4 12 4 3 3 4 8 7 15 13 9 12 14 12 9 11 13 6 8 9 15 12 9 10 9 7 5 7 7 6
23 17 17 17 17 16 15 18 21 23 24 21 17 13 18 9 4 1 10 4 1 2 7 9 14 11 8 5 7 10 11 13 13 15 9 5 11 9 16 7 5 8 8 9 6 7 3
22 17 17 17 17 16 15 18 22 24 23 23 16 11 16 9 10 3 6 1 4 6 10 15 14 6 9 9 7 17 9 6 10 5 5 2 4 11 16 10 11 10 3 8 2 2 4
22 19 17 17 17 16 14 18 22 27 22 17 12 5 5 7 15 16 3 3 9 20 25 6 9 6 6 6 7 5 12 11 20 7 9 7 2 10 12 10 13 3 1 3 2 3 4
22 21 21 16 16 15 13 17 22 25 23 16 5 3 8 6 7 7 5 5 7 5 4 2 7 6 9 5 6 5 1 4 25 19 8 1 3 6 6 5 6 4 7 4 4 8 1
23 22 20 14 15 15 12 16 20 25 25 22 6 10 7 5 4 3 2 6 12 11 3 3 2 2 6 6 3 2 6 4 28 10 3 5 3 4 6 4 9 4 5 4 4 2 5
23 21 16 14 15 15 11 14 20 22 18 21 5 3 2 7 11 6 3 4 9 4 3 3 4 1 3 3 8 5 7 8 14 11 1 3 5 7 2 4 3 4 9 8 3 1 3
21 23 16 14 14 15 12 13 17 20 15 16 2 3 3 3 6 4 4 2 6 4 5 1 3 5 2 1 3 5 8 6 8 1 3 2 2 12 11 10 13 16 8 11 5 6 5
20 19 18 14 13 12 13 11 15 19 14 7 8 7 16 4 5 2 4 5 11 11 10 13 12 12 4 5 2 6 7 5 6 6 9 4 3 8 7 11 13 13 13 15 3 12 11
21 19 18 14 12 13 12 10 12 15 12 7 15 15 10 13 8 9 5 6 7 6 7 12 9 3 12 9 12 13 17 6 4 4 2 8 2 4 5 8 10 5 4 5 9 14 19
23 19 13 11 11 9 10 6 9 11 12 12 16 13 6 4 7 6 11 12 9 9 6 10 13 8 7 10 13 9 12 4 4 3 4 3 6 2 5 8 4 3 9 9 7 17 21
20 13 8 8 9 9 9 5 4 6 5 8 15 12 6 5 10 7 8 5 10 5 7 7 8 3 6 9 3 3 2 2 3 3 5 4 1 3 2 3 4 15 14 10 5 9 19
15 9 7 7 8 9 9 6 4 5 4 4 9 14 6 8 6 6 3 2 3 3 4 8 5 2 4 2 2 1 3 6 4 2 5 5 1 4 1 2 3 2 9 23 6 6 21
8 6 7 7 8 8 7 6 4 4 4 4 8 16 6 5 10 10 6 6 8 9 2 6 2 1 3 2 3 3 2 5 3 8 2 3 2 3 1 2 3 4 12 19 6 3 18
5 6 7 7 7 8 7 6 4 4 4 2 6 14 9 5 6 9 6 11 10 16 5 2 3 4 2 5 4 2 3 2 3 5 3 4 2 2 3 2 2 17 10 5 1 23 28
5 5 6 6 6 6 5 4 4 4 3 5 6 7 5 4 4 2 4 3 5 7 12 4 3 3 7 4 4 3 1 0 3 2 4 3 3 0 3 3 7 22 19 17 19 20 23

GFSGBSN_850_spd_090.txt.gz
Wind_Speed
19 21 22 21 19 18 17 17 17 16 15 15 14 13 13 12 11 11 10 10 10 9 8 7 8 7 6 7 9 1 3 6 16 19 21 22 18 12 4 4 10 2 8 10 16 17 20
19 20 22 21 19 16 16 16 16 16 15 15 15 14 12 11 11 11 11 10 9 9 8 6 6 7 5 4 4 2 2 4 16 20 23 26 12 9 10 9 7 13 12 13 15 19 15
19 21 22 22 20 17 15 15 15 15 16 18 18 17 16 13 12 11 10 9 7 7 7 6 5 7 10 12 7 4 5 5 10 19 25 26 19 10 5 7 12 14 7 7 12 14 7
19 20 22 22 20 18 16 14 14 14 15 17 17 17 17 15 14 13 9 6 6 6 4 4 5 6 10 4 10 10 5 8 13 16 23 19 13 16 16 13 8 5 4 9 9 12 13
19 20 22 23 20 17 14 14 14 15 16 17 17 17 16 15 14 11 7 4 4 4 1 1 2 5 9 7 15 13 9 5 14 14 21 16 8 12 10 1 4 2 4 4 9 21 10
18 20 21 22 20 17 15 15 14 14 15 15 17 18 16 14 11 7 5 4 5 4 1 2 5 7 7 5 11 17 12 6 14 12 9 10 6 2 3 4 4 3 2 4 8 11 4
15 19 19 20 19 16 17 16 15 15 14 14 15 16 15 12 10 7 7 6 6 2 7 10 9 15 17 4 9 14 18 13 13 11 5 6 2 5 8 6 5 2 5 10 4 12 7
15 18 19 19 18 15 16 17 17 17 15 14 14 14 12 11 9 7 8 6 7 7 11 17 16 24 25 16 7 14 21 16 10 5 3 4 5 8 6 5 6 3 5 2 15 12 8
18 19 20 18 18 14 15 17 18 18 18 16 14 13 12 11 10 8 6 3 9 17 7 16 15 18 20 4 11 18 20 24 7 7 5 6 7 6 5 7 7 5 6 6 6 9 8
21 19 19 18 17 15 15 17 18 18 19 19 16 12 10 9 8 6 5 11 14 18 5 8 1 6 12 8 5 19 17 18 3 10 4 6 14 6 10 10 5 5 12 8 17 7 5
21 19 19 18 18 16 14 17 18 19 20 21 19 15 10 11 12 11 11 17 15 2 3 7 3 6 7 8 3 15 19 18 8 4 7 9 8 9 8 12 8 11 12 10 17 5 6
21 20 18 18 17 16 14 16 17 19 20 21 19 15 11 11 10 7 14 17 9 5 3 9 6 7 2 5 5 1 19 21 10 3 4 7 17 7 10 12 11 14 4 2 7 5 1
22 21 17 17 17 17 14 15 17 19 21 22 18 17 12 12 6 9 15 13 5 4 5 6 5 5 2 5 4 4 3 6 6 2 4 7 8 7 10 5 6 5 6 1 2 2 6
23 20 15 16 17 17 15 16 19 21 24 23 15 14 10 9 4 8 12 5 5 4 2 5 4 7 2 5 5 4 6 4 4 5 2 2 7 5 5 10 8 6 8 6 5 3 2
21 20 17 16 16 17 15 16 20 24 27 24 14 8 6 6 3 4 1 5 3 2 4 7 10 6 7 7 5 4 7 9 9 9 7 2 5 7 5 8 10 7 3 9 6 2 4
20 21 20 18 16 16 15 16 20 24 26 20 14 8 7 11 6 3 5 3 3 3 6 4 2 4 6 6 6 6 7 5 9 10 13 6 5 5 9 5 6 8 6 2 3 6 4
22 24 21 18 15 16 15 15 21 24 23 18 10 8 9 16 9 2 3 5 4 13 1 3 2 4 1 2 2 1 2 5 7 8 9 4 3 7 4 2 8 1 3 4 4 5 6
22 24 20 16 16 16 14 15 19 25 22 19 5 2 6 22 5 3 3 4 2 6 14 6 4 3 2 1 2 1 3 4 4 3 4 4 3 3 8 9 7 5 8 7 5 5 3
21 22 19 14 15 15 15 14 19 24 20 21 11 6 3 23 4 2 3 2 4 2 5 1 1 2 4 4 1 2 3 6 15 1 0 5 3 4 8 7 6 4 2 5 5 4 3
21 21 21 15 13 14 15 13 17 23 18 15 3 3 3 8 8 8 3 1 4 7 6 8 3 1 2 2 4 4 4 4 9 3 10 5 3 6 4 8 6 8 7 2 5 4 5
21 20 20 19 11 12 14 12 16 20 15 8 4 3 8 1 2 3 4 3 2 4 6 12 3 6 2 0 2 5 3 4 2 15 4 5 1 4 7 10 8 4 6 10 3 6 6
22 21 20 17 9 9 11 11 13 16 12 10 5 5 9 8 8 8 5 4 7 2 4 5 5 10 7 5 3 3 4 4 2 4 6 2 1 7 7 7 13 7 13 9 5 9 14
22 21 17 11 11 10 9 7 10 13 12 7 10 5 3 7 5 6 3 4 6 4 11 13 7 2 6 5 11 15 9 10 5 6 2 3 3 3 5 13 13 7 11 10 8 11 22
20 16 9 9 9 9 9 5 6 11 13 12 15 7 5 3 2 3 5 4 3 3 4 6 5 2 3 9 10 5 4 5 3 4 5 5 4 4 3 13 5 3 13 12 19 8 13
16 11 8 8 9 10 9 6 4 7 8 10 15 9 3 1 1 4 7 4 3 1 2 1 2 4 6 6 4 5 5 5 5 3 5 5 3 5 3 4 6 6 10 5 4 6 20
11 8 8 8 9 8 8 4 2 5 5 5 12 13 2 2 5 6 3 5 1 1 3 2 4 3 4 4 4 2 1 2 4 7 7 5 6 5 5 1 3 1 10 14 5 6 3
8 6 7 7 7 7 7 6 4 4 5 6 12 15 3 3 11 12 5 2 9 3 2 3 4 5 3 3 4 3 1 2 1 2 4 4 4 4 3 3 4 8 14 9 7 6 2
8 6 6 6 6 7 6 6 5 5 4 6 10 11 8 3 13 9 9 13 11 11 3 5 4 7 5 5 3 2 2 2 3 3 2 2 2 2 2 2 1 14 5 5 5 12 22
7 5 5 5 3 4 5 5 5 3 3 5 7 5 1 2 3 5 4 9 10 10 6 9 2 1 2 4 1 2 2 2 2 1 5 3 4 4 3 3 3 25 24 20 26 31 25

GFSGBSN_850_spd_093.txt.gz
Wind_Speed
18 20 22 22 20 18 17 16 15 15 14 14 13 13 12 11 11 11 11 9 8 8 8 8 9 8 6 5 7 3 4 15 22 23 21 20 20 8 3 2 7 4 5 9 8 14 20
18 19 21 21 19 17 16 16 15 15 16 16 16 15 13 12 10 10 10 9 8 7 7 6 6 7 5 4 5 5 3 10 19 22 23 22 14 15 4 6 8 10 4 12 9 15 14
17 18 19 20 19 17 15 13 14 15 17 19 19 18 17 14 11 10 9 7 6 7 6 6 6 7 9 10 5 7 4 5 14 19 24 24 11 8 2 6 4 9 7 6 10 7 7
16 18 18 19 18 16 14 13 14 15 16 18 20 20 18 15 13 10 6 5 5 4 4 4 5 6 8 2 9 12 7 8 14 14 16 19 19 7 5 7 4 8 4 7 9 10 10
13 17 18 19 18 14 13 13 14 15 16 17 19 20 19 15 12 9 5 4 3 4 3 1 3 4 6 7 17 13 8 4 11 13 12 12 6 6 3 1 4 1 3 4 7 6 7
15 16 18 18 18 14 13 14 14 14 14 15 17 18 17 14 11 9 7 5 6 5 1 1 5 4 3 2 5 15 12 7 9 12 7 8 6 2 3 4 4 3 4 2 4 10 6
17 16 18 18 18 16 14 15 15 15 14 14 15 16 15 12 9 6 8 5 4 2 9 11 14 14 19 4 3 10 13 14 7 9 5 7 4 5 7 6 4 3 2 4 6 7 7
19 17 18 18 18 17 14 15 16 16 15 14 14 14 14 11 7 5 6 8 7 11 10 19 21 22 20 15 5 7 16 11 6 4 4 5 4 7 3 6 4 3 1 5 11 8 9
20 19 17 18 17 17 14 15 16 16 17 16 14 13 12 12 9 7 9 9 17 21 2 10 7 10 6 4 5 7 21 13 5 4 4 5 4 5 5 2 4 1 3 7 5 8 8
19 20 17 16 16 16 14 14 16 17 18 19 18 14 11 8 7 7 4 15 20 10 4 5 3 4 8 3 3 9 21 17 1 8 6 4 5 4 3 3 5 2 5 5 16 8 4
20 20 17 15 15 16 15 13 15 17 19 20 19 15 10 8 7 7 10 14 12 2 3 12 4 1 5 6 0 8 23 16 8 5 7 7 3 4 6 5 6 7 3 5 9 4 6
20 20 15 14 16 16 15 13 14 17 19 21 21 17 11 8 7 3 9 11 4 5 3 7 6 6 2 2 2 5 11 13 9 4 2 6 3 5 7 6 9 3 1 6 6 4 1
21 21 17 16 16 16 16 14 15 18 21 23 21 15 11 7 4 4 9 8 5 3 5 6 4 6 5 6 2 2 3 2 5 3 3 4 5 3 6 3 2 4 5 1 2 1 5
21 21 20 18 17 17 17 15 16 20 23 23 17 11 6 4 5 5 9 4 4 1 2 3 5 5 5 7 5 7 4 2 2 5 3 3 4 7 3 8 6 6 10 5 6 5 3
21 22 20 18 15 16 17 15 17 20 24 20 11 4 2 5 5 2 2 4 6 3 3 6 3 6 6 5 3 3 5 1 5 1 8 5 5 2 2 5 9 4 4 9 5 2 4
21 22 21 18 15 16 17 16 19 22 25 19 8 3 5 5 2 2 5 3 3 3 2 3 3 3 3 6 5 5 3 3 2 2 4 1 1 2 5 2 4 8 6 4 3 5 4
21 21 21 16 15 15 16 15 19 22 23 18 4 1 6 8 2 4 3 4 4 5 5 3 0 3 2 2 2 1 2 2 1 3 7 2 3 5 2 1 4 1 2 5 5 5 5
21 21 20 18 15 15 16 15 18 23 21 18 5 2 7 14 4 3 1 3 3 2 3 1 3 2 4 3 2 1 3 4 5 3 3 3 4 2 7 7 2 5 9 7 5 3 1
21 21 20 19 15 14 15 14 17 21 21 18 3 1 12 13 2 2 3 3 3 2 4 3 0 1 2 4 1 3 3 6 9 2 4 2 2 3 8 6 7 6 5 3 4 4 6
21 20 20 18 16 12 14 13 15 19 18 9 3 2 3 7 1 5 1 3 3 4 4 2 3 3 1 2 2 3 3 3 0 5 13 6 3 4 5 4 3 6 7 7 3 4 6
21 20 20 16 12 11 11 11 13 16 12 7 5 1 2 1 1 2 2 2 3 2 5 12 5 4 1 3 5 3 3 4 5 5 5 5 3 2 4 5 2 6 8 7 6 5 6
20 20 17 12 9 10 11 10 11 14 9 9 4 4 3 3 0 5 4 5 4 2 4 4 3 4 5 4 1 4 4 5 2 1 2 3 4 3 3 7 7 3 7 10 4 8 8
19 17 12 11 9 9 10 9 9 11 8 5 4 4 2 7 3 3 2 2 2 2 2 2 3 1 2 2 6 13 12 8 7 2 3 3 4 2 3 7 6 4 9 6 4 1 16
16 12 10 10 11 10 9 7 7 10 11 11 8 4 3 2 3 1 1 1 2 2 1 4 4 1 2 8 6 3 4 2 3 6 2 4 3 2 1 5 3 4 5 6 4 7 6
12 9 8 9 10 10 10 8 5 7 7 9 10 4 3 2 1 3 2 2 3 4 4 4 5 3 9 6 3 3 5 6 6 6 7 2 4 3 4 1 5 5 6 4 5 6 6
9 6 8 7 8 9 8 6 4 5 4 4 10 7 4 7 3 1 5 2 1 1 6 5 5 4 6 4 4 2 1 1 4 7 5 6 6 5 3 3 2 5 8 20 1 2 4
9 6 6 6 6 6 5 5 4 4 5 5 6 6 5 7 8 5 4 1 3 2 1 4 8 6 7 3 4 2 1 2 1 3 4 4 3 4 7 3 5 10 9 14 0 5 6
8 6 5 5 5 6 5 4 3 4 6 5 3 6 6 8 10 9 9 8 4 3 3 3 3 6 4 4 3 2 2 2 2 3 4 2 2 2 1 3 3 12 10 5 4 5 19
8 6 5 4 4 4 5 4 2 2 6 4 2 3 3 3 6 8 8 6 5 5 1 4 2 2 2 4 0 2 2 2 2 1 4 3 3 4 3 4 5 7 5 4 6 25 29

GFSGBSN_850_spd_096.txt.gz
Wind_Speed
16 16 18 20 20 18 16 14 14 14 14 15 15 14 12 12 11 10 10 9 7 7 7 6 6 6 4 5 4 2 1 17 23 26 22 17 21 7 4 3 4 4 5 9 10 17 13
15 17 18 19 18 16 15 14 14 15 16 16 17 16 14 12 10 10 10 8 8 6 6 6 5 5 5 3 3 3 3 19 24 23 21 19 14 11 3 4 4 2 3 10 3 8 20
14 16 17 18 18 15 14 14 15 15 17 18 18 18 17 12 10 9 8 6 6 6 5 5 5 5 8 7 3 7 7 12 19 20 19 16 7 8 2 3 3 10 8 10 12 10 5
13 15 17 18 18 15 14 15 15 16 17 18 18 18 17 14 11 8 5 3 5 6 5 2 3 4 6 5 8 10 12 13 16 16 7 17 11 4 3 8 4 3 2 4 8 10 12
17 16 18 18 18 16 14 15 15 16 16 17 17 18 17 14 11 8 6 4 3 4 4 1 1 3 4 3 9 13 9 7 14 12 12 10 12 2 2 2 4 3 3 1 9 16 8
19 17 18 19 18 17 13 14 15 15 16 16 17 17 16 13 10 8 9 7 7 5 1 1 3 2 1 4 4 14 10 4 9 12 12 7 5 2 3 4 3 1 2 1 5 7 6
19 19 17 18 18 17 13 13 14 15 16 17 17 17 15 12 9 9 11 4 6 2 12 11 9 11 12 1 2 9 17 12 13 11 4 5 4 5 7 5 4 2 2 8 4 5 5
19 19 18 17 17 17 16 13 14 14 15 15 16 16 14 11 8 8 8 4 5 9 8 12 15 18 15 12 3 7 16 9 8 4 4 5 5 7 4 5 5 2 7 6 8 6 5
19 18 18 16 16 17 16 13 13 14 15 16 17 17 14 12 10 5 5 7 13 15 2 5 3 4 1 8 5 11 21 9 5 5 4 7 3 8 3 4 5 1 3 6 6 4 3
20 21 18 15 15 16 16 14 13 15 17 17 18 17 13 11 7 7 2 12 17 5 4 5 3 2 7 3 1 10 19 13 3 7 7 3 3 7 4 3 4 3 5 6 14 4 3
20 21 18 15 16 17 17 16 14 16 18 19 20 19 13 8 7 5 5 13 10 1 3 9 4 4 5 4 3 6 22 14 6 6 6 6 6 4 3 4 5 6 3 7 8 4 3
21 21 20 18 17 17 17 16 14 16 19 22 23 21 12 5 4 3 7 12 2 5 3 6 4 6 3 5 3 6 13 7 3 4 2 6 2 5 9 6 7 5 2 7 4 3 2
20 22 22 20 19 17 17 16 14 16 20 23 24 17 8 4 4 2 9 5 5 4 4 7 4 5 4 6 5 6 5 2 4 4 1 3 2 2 4 3 2 3 3 2 2 1 5
21 23 23 21 19 16 17 16 14 18 22 23 18 9 0 4 4 3 7 4 5 2 2 4 4 2 5 7 4 7 3 3 2 5 3 5 4 6 3 7 7 7 8 5 5 5 3
21 21 22 20 18 17 18 16 15 19 23 22 11 5 7 6 3 2 1 4 4 2 3 6 4 7 5 4 3 3 3 2 1 3 6 4 4 3 4 4 9 4 4 7 6 3 4
22 21 21 21 18 18 18 17 17 20 22 20 7 7 7 6 2 2 5 2 1 2 2 2 3 2 5 5 3 4 1 2 3 3 2 5 1 2 4 3 2 7 6 4 3 5 3
23 21 20 20 19 17 18 18 18 21 21 16 4 4 4 6 1 4 3 4 3 4 4 2 1 2 1 3 2 1 1 1 2 2 4 4 3 6 3 1 6 2 1 5 5 4 6
22 22 21 20 19 16 15 18 18 21 21 9 3 3 1 6 4 3 1 3 2 3 1 1 3 2 1 2 2 1 2 3 3 2 3 1 5 3 9 1 3 1 2 5 5 4 2
22 22 21 21 19 16 14 16 16 19 19 6 3 4 8 2 2 3 3 2 1 3 3 2 1 2 2 2 2 1 2 4 7 2 6 6 2 2 7 5 5 5 3 2 3 2 6
22 21 21 19 16 14 13 14 15 17 14 7 2 3 2 2 2 4 1 2 2 3 3 3 2 2 2 2 2 3 2 3 2 2 1 4 3 5 6 3 2 4 4 3 4 3 5
22 20 19 16 14 14 12 12 13 15 11 5 4 1 2 1 3 2 2 2 2 4 5 11 3 3 2 1 1 2 2 5 3 3 2 3 4 5 4 3 2 3 5 7 5 5 6
20 18 15 14 13 13 12 11 11 15 9 9 3 2 3 3 2 2 5 4 2 2 5 5 3 5 3 4 4 2 2 1 2 3 3 4 2 0 3 2 3 3 9 11 2 3 2
18 15 12 11 12 13 12 9 9 11 10 5 5 4 2 4 2 3 2 1 1 0 2 2 3 2 3 2 5 6 7 6 3 3 1 3 4 2 3 4 2 3 8 4 6 4 4
16 12 9 11 11 12 10 7 7 8 10 9 5 2 2 2 3 1 1 1 2 2 0 4 6 0 3 11 5 2 6 4 9 7 1 3 3 2 0 4 3 4 2 0 4 5 2
14 10 9 9 10 11 9 6 5 5 5 8 7 3 3 2 0 3 2 2 1 4 3 3 4 3 8 5 4 6 4 3 6 6 5 3 4 4 3 1 5 2 5 4 3 5 1
13 10 7 8 8 9 8 6 5 3 2 4 7 5 4 8 2 2 3 2 0 2 6 3 3 5 4 4 4 4 3 2 3 5 5 7 7 4 2 4 3 4 2 11 4 4 4
13 9 7 6 7 7 6 6 5 3 1 2 8 4 4 6 5 3 2 1 1 1 1 4 6 6 5 3 3 2 1 0 1 2 3 4 3 3 2 1 5 4 13 6 1 4 5
12 9 8 6 6 6 5 4 4 2 2 1 3 6 4 5 8 8 6 3 2 2 2 3 3 4 4 4 3 2 2 2 2 0 1 3 3 2 2 2 4 21 7 3 3 4 15
13 10 8 6 5 5 5 4 3 1 2 3 3 4 3 2 8 7 6 7 7 6 4 3 1 2 3 4 1 2 1 2 2 1 2 2 4 4 4 4 6 8 8 8 2 8 20

GFSGBSN_850_spd_102.txt.gz
Wind_Speed
11 13 15 16 15 12 12 11 10 10 11 12 13 13 13 11 8 7 7 7 6 5 4 4 4 4 4 5 5 5 4 14 20 21 20 17 16 10 8 5 3 6 8 12 10 7 12
12 12 14 15 15 13 12 11 11 11 11 11 11 13 12 11 9 7 6 4 3 2 2 3 4 4 3 8 6 4 6 18 19 20 20 16 12 10 5 4 5 2 10 18 8 5 5
13 12 13 14 14 12 11 12 12 11 11 11 11 11 12 11 10 8 5 4 4 4 2 2 3 4 5 2 2 2 12 16 18 16 17 15 9 11 6 5 2 6 10 10 10 12 2
15 14 13 13 13 13 11 11 11 11 11 12 12 12 11 11 9 8 6 5 4 5 3 1 2 2 3 5 2 7 12 15 16 15 13 11 8 9 7 2 6 5 10 10 9 11 5
14 14 13 12 12 12 10 10 11 12 12 13 13 13 12 10 9 7 9 6 5 2 3 4 3 2 5 3 4 10 11 14 15 11 10 9 6 11 8 11 9 9 7 8 8 12 5
16 15 14 12 12 12 11 10 10 12 12 13 14 14 13 11 8 8 9 4 6 2 1 3 2 4 4 6 8 11 9 14 14 12 11 11 10 10 10 8 7 8 7 12 12 7 11
18 17 15 13 13 13 12 9 9 10 12 13 14 15 15 11 6 6 6 4 3 1 4 5 1 2 8 7 12 10 10 12 11 14 10 16 11 14 15 8 5 2 7 12 9 13 6
18 18 17 15 14 13 11 10 8 9 11 13 14 15 15 12 5 0 2 1 5 4 5 2 4 5 5 6 10 14 13 9 13 14 11 9 16 15 2 3 6 6 13 15 14 11 5
19 19 18 17 14 12 12 11 9 8 11 13 15 16 15 12 4 3 2 2 8 6 6 4 2 4 7 8 11 19 16 7 13 13 15 13 11 9 10 8 8 5 2 14 15 10 10
20 20 20 18 15 13 12 12 10 9 11 14 17 18 15 9 1 0 3 7 10 5 4 5 5 4 5 6 7 15 17 7 7 13 13 10 5 13 12 10 7 4 2 8 19 12 6
21 20 21 20 18 15 13 13 12 10 12 16 19 19 11 3 3 2 4 8 6 2 2 3 4 2 5 5 16 12 16 7 8 9 10 6 11 16 13 10 9 2 6 7 9 2 8
21 21 20 20 18 16 14 15 13 12 15 18 21 15 3 3 5 6 3 8 2 6 4 3 2 1 9 4 5 15 14 8 1 6 13 3 8 11 12 10 7 8 10 4 3 2 7
21 22 21 20 19 17 15 15 14 13 16 19 16 5 5 9 5 2 4 2 5 2 2 3 2 2 3 3 8 14 14 12 7 9 11 6 12 10 6 13 10 11 8 3 3 7 7
22 21 21 20 19 18 15 15 14 15 16 18 7 9 9 7 3 3 3 6 3 2 5 2 1 5 3 1 5 7 12 12 3 9 11 11 12 12 11 15 11 14 14 6 7 4 7
22 21 21 20 19 18 15 14 14 15 16 8 9 10 6 3 2 5 10 2 4 3 3 2 4 4 7 4 2 7 10 11 10 9 5 8 7 3 7 11 9 14 15 14 9 7 6
23 23 21 20 19 17 14 13 14 14 14 4 10 6 5 3 6 3 1 6 5 4 4 2 2 3 2 3 5 6 8 2 4 4 9 5 6 7 14 9 12 13 12 16 12 13 12
24 23 21 19 17 16 13 13 13 14 11 6 5 3 0 4 6 3 6 8 5 5 3 5 3 2 3 2 3 2 3 6 1 3 8 7 9 11 8 14 14 12 12 10 13 14 12
24 22 20 18 16 14 12 13 13 14 8 5 1 2 1 4 4 1 5 3 2 6 3 3 2 4 5 2 1 1 0 4 2 3 10 9 7 8 13 7 4 8 17 16 10 15 10
23 21 18 17 15 14 12 12 13 14 9 5 1 4 2 3 3 6 6 6 3 1 4 4 3 5 3 3 2 2 0 3 1 3 2 4 8 8 9 9 8 11 11 13 14 14 14
22 20 17 16 15 14 12 11 12 13 8 5 1 4 3 2 2 3 4 4 5 5 7 2 3 2 2 2 1 2 2 3 0 0 2 3 9 10 7 2 6 17 11 12 15 12 13
21 18 15 14 14 13 11 10 12 12 8 4 1 3 3 3 4 4 2 1 2 2 2 6 4 3 5 2 2 1 1 6 6 5 2 4 10 3 8 6 3 8 7 11 14 18 17
20 17 14 12 13 13 11 9 11 11 7 5 1 2 2 4 4 3 3 3 3 2 6 3 5 5 4 3 5 7 5 2 1 6 4 3 6 6 10 3 6 9 9 8 11 14 15
20 16 13 11 11 12 10 8 9 10 7 4 3 4 2 3 5 5 3 2 4 2 2 4 6 6 4 4 6 6 6 5 2 3 3 4 8 7 14 8 9 12 14 7 5 7 10
20 16 13 10 10 10 9 8 7 8 10 6 3 2 4 5 2 2 4 2 2 4 4 5 3 5 3 6 3 3 2 4 3 3 3 3 7 4 11 3 14 4 4 1 7 6 6
20 16 12 10 8 8 7 6 6 6 6 9 3 2 2 3 5 6 4 1 2 3 1 4 4 3 6 5 7 5 7 5 5 2 1 2 5 2 4 12 5 7 6 6 6 2 5
21 16 12 9 7 6 5 4 4 4 4 5 5 3 0 3 3 3 2 1 3 0 5 2 1 4 4 5 5 6 3 4 4 7 0 2 3 5 4 5 10 12 7 8 4 6 13
21 16 11 9 7 6 4 3 3 2 2 4 5 3 2 1 4 1 2 4 2 2 3 2 3 3 3 3 4 4 3 4 5 4 4 5 4 8 6 5 3 8 10 6 7 6 13
21 17 11 9 8 6 4 3 2 2 1 1 1 3 4 0 5 3 2 0 1 3 4 4 6 5 4 3 3 2 3 1 4 3 5 6 3 4 4 5 5 16 2 6 7 7 9
22 17 13 9 10 7 5 4 4 4 3 3 1 3 7 2 5 6 6 6 4 3 7 2 5 2 3 1 2 2 2 3 4 4 2 3 3 2 4 3 5 8 7 7 6 3 6

GFSGBSN_850_spd_105.txt.gz
Wind_Speed
11 12 13 12 11 9 9 8 8 9 9 10 11 13 13 12 11 9 8 7 6 5 4 4 4 3 4 7 6 4 6 12 19 21 19 18 16 16 8 7 6 4 7 14 8 2 13
12 11 12 12 12 10 9 9 9 9 9 10 11 12 13 13 12 10 8 6 5 4 3 3 3 3 4 13 2 3 5 14 18 19 19 18 13 13 2 16 2 7 10 13 5 8 8
12 11 11 12 12 12 9 9 9 10 11 11 12 12 12 12 11 10 8 7 6 5 2 2 3 4 9 4 3 3 10 14 16 18 19 17 12 12 9 10 5 7 12 11 3 2 4
13 13 11 12 12 12 10 9 10 10 10 10 11 12 13 12 10 8 9 8 6 6 4 0 3 3 9 4 3 7 10 13 14 14 15 15 12 16 15 6 6 9 9 9 7 5 3
15 14 12 11 12 12 11 9 9 9 9 10 12 13 13 12 9 8 10 7 7 3 2 3 3 4 5 3 7 9 11 15 13 12 11 12 11 17 14 12 8 2 5 11 8 2 2
17 16 13 11 11 11 10 9 8 8 9 10 11 12 13 12 8 7 8 4 5 1 2 2 5 7 6 12 12 12 11 13 15 12 11 13 12 13 13 12 9 5 10 14 10 4 4
18 16 14 12 10 10 11 10 9 9 10 11 11 13 14 13 6 5 6 7 2 4 9 9 5 5 5 7 13 11 11 15 13 12 14 18 13 16 16 15 5 21 13 16 11 9 4
18 18 16 14 12 11 11 11 10 9 10 11 13 14 14 12 5 4 2 4 8 7 5 1 5 4 2 11 14 14 15 13 14 14 18 11 18 17 7 12 7 8 18 18 10 9 3
18 18 19 17 14 12 11 11 11 10 11 12 14 15 15 11 4 5 5 6 6 7 9 6 6 7 9 9 13 17 18 14 13 16 17 14 14 18 9 10 11 7 9 12 12 8 6
19 18 18 18 16 14 12 11 11 10 11 13 16 16 13 6 2 3 4 3 7 6 6 9 8 5 6 9 8 17 17 10 10 14 12 15 13 16 7 14 10 6 21 18 15 18 7
19 19 18 17 17 15 13 13 12 11 12 15 18 18 9 6 4 5 1 6 7 3 3 3 6 3 9 10 17 14 16 10 11 11 9 13 9 9 13 15 11 9 3 28 29 9 15
19 19 18 16 16 16 14 13 13 12 14 17 19 9 0 4 6 4 5 8 4 8 3 5 5 6 11 11 7 12 16 11 10 10 11 13 8 10 17 8 4 5 2 5 7 10 7
20 19 18 17 16 16 15 13 13 13 15 18 8 4 6 11 3 4 7 6 8 3 3 5 4 11 13 3 8 12 14 15 10 11 11 13 10 15 16 12 10 9 13 4 4 8 3
20 19 19 17 16 16 15 12 13 13 15 9 6 8 8 3 3 6 6 11 5 6 10 3 4 5 6 6 5 14 12 14 17 13 10 13 13 15 11 14 12 14 13 7 6 5 5
21 21 19 17 16 15 14 11 13 12 12 3 8 6 1 2 5 7 11 10 5 3 2 2 8 10 8 6 6 7 11 14 10 13 14 12 15 17 13 15 15 15 15 13 8 3 9
22 21 19 17 16 15 12 11 12 11 8 5 5 5 4 4 6 8 12 8 5 4 3 9 2 2 4 4 8 6 9 4 0 6 12 9 9 12 10 11 17 17 11 15 13 13 16
22 21 18 17 16 14 12 11 11 11 4 7 5 5 2 4 8 15 3 7 6 4 7 10 3 2 1 1 3 5 11 3 1 1 8 14 11 8 9 14 14 12 11 11 16 15 15
22 20 17 17 15 14 12 11 11 10 1 7 9 1 1 4 11 4 6 5 5 7 3 1 4 9 6 6 8 3 3 8 7 12 8 13 9 11 15 13 17 18 19 17 11 14 12
21 19 16 15 16 14 12 11 11 11 3 7 9 7 2 7 5 6 3 6 4 0 4 4 2 5 2 4 6 5 1 5 4 10 5 8 10 10 12 8 5 10 15 15 18 14 14
20 18 15 13 15 15 13 11 10 10 3 4 7 5 6 3 3 6 5 2 8 1 4 3 4 4 5 4 4 5 8 7 4 7 9 7 14 13 4 9 11 17 18 14 16 12 14
21 17 15 13 13 15 13 11 11 8 3 3 10 3 5 2 5 6 4 2 3 1 1 2 6 4 5 6 2 3 4 5 9 7 7 9 16 9 1 7 11 10 13 15 14 17 15
21 18 15 12 12 13 13 9 10 8 2 3 6 2 4 5 2 6 6 3 5 2 3 3 5 6 6 8 4 6 7 7 3 12 12 12 11 3 12 8 10 13 8 9 8 13 14
21 18 15 13 11 11 11 8 8 7 4 2 3 3 9 7 5 7 9 4 6 4 3 4 6 8 9 4 5 9 8 9 7 6 10 10 10 9 13 11 10 13 14 10 13 14 14
22 19 15 13 10 9 10 7 6 6 7 4 4 4 11 4 4 6 3 1 1 5 5 3 2 7 6 4 7 11 14 6 7 5 10 4 11 9 13 7 10 4 7 11 4 11 8
23 20 15 12 10 7 8 7 5 4 3 3 4 2 10 4 7 5 3 1 2 6 7 5 4 5 4 7 10 6 7 8 10 7 8 4 8 4 10 12 8 13 4 1 2 1 17
23 21 17 11 10 6 6 6 5 3 2 3 4 3 5 11 4 7 3 1 9 2 6 3 2 4 5 12 5 5 5 8 3 13 9 8 5 8 4 7 16 7 12 12 6 9 9
23 20 17 13 11 8 6 5 5 3 1 1 3 4 3 14 7 3 3 7 4 6 7 3 1 7 7 10 6 7 2 5 8 6 3 5 9 12 5 4 2 8 11 11 14 4 10
24 20 17 13 11 11 7 6 5 4 2 2 3 4 4 11 6 2 1 1 2 6 7 8 8 9 7 4 5 4 4 3 7 9 10 5 6 6 5 4 8 12 4 5 6 6 8
25 22 18 14 12 13 10 8 6 5 4 3 2 5 7 5 7 2 2 2 1 3 7 5 7 5 8 4 2 5 1 5 7 8 4 6 6 3 5 2 5 9 9 6 5 3 7

GFSGBSN_850_spd_108.txt.gz
Wind_Speed
10 11 12 12 10 9 9 9 9 10 11 12 13 14 14 14 13 12 10 9 7 6 5 4 4 4 4 7 12 5 6 9 16 20 17 17 15 17 8 4 7 7 3 18 3 6 5
13 12 12 11 11 9 7 8 9 9 10 11 13 14 14 13 12 11 10 9 8 7 5 4 4 4 3 11 1 6 3 7 16 19 17 17 13 14 3 8 3 6 9 7 2 8 6
13 12 11 11 10 10 7 8 8 8 9 11 12 13 14 13 11 9 9 8 8 8 7 4 4 5 8 14 3 4 6 9 14 17 17 16 16 11 9 5 8 10 11 8 3 7 6
14 13 11 11 11 11 9 8 7 7 9 10 12 13 14 13 11 9 11 8 6 5 5 3 3 4 8 3 8 7 9 10 13 15 15 14 14 14 17 12 1 7 6 9 2 6 4
17 15 13 12 12 12 11 9 8 8 8 9 11 13 14 14 12 9 10 8 7 3 3 1 2 4 12 5 12 10 11 13 13 13 13 13 15 14 18 11 7 4 4 8 0 9 5
17 15 14 13 12 12 12 12 10 9 9 10 12 13 14 14 12 9 10 9 7 4 4 6 6 9 13 10 11 11 12 13 13 12 10 9 10 13 15 10 8 8 6 9 3 3 8
17 17 16 14 12 12 12 12 12 11 10 11 12 13 14 14 11 7 9 8 5 3 9 11 13 11 2 9 7 12 13 13 14 12 13 17 12 15 18 10 4 16 7 5 13 8 3
18 17 16 15 14 14 13 14 14 13 12 12 13 14 15 14 10 6 7 5 9 9 14 13 7 7 4 5 10 13 13 14 13 13 16 13 16 18 18 7 7 12 14 12 9 7 3
17 17 16 16 16 15 14 14 15 13 12 13 14 15 14 12 8 5 6 10 9 9 9 4 5 9 6 8 13 15 16 18 14 15 16 17 13 19 20 14 14 8 16 13 9 6 6
18 17 16 16 16 15 14 14 14 14 14 15 16 16 14 6 3 5 10 4 7 8 6 8 8 5 5 10 10 14 16 15 8 13 16 15 18 14 17 14 12 12 15 20 24 13 5
19 18 17 17 16 16 15 13 14 14 15 17 19 18 8 8 3 3 3 6 8 5 1 4 8 2 5 12 12 15 14 17 14 12 11 11 13 13 13 6 7 9 18 15 17 9 9
20 20 19 17 16 15 15 13 14 15 15 18 17 7 1 3 4 3 5 8 6 6 0 4 5 8 7 11 7 14 13 16 14 13 13 17 9 8 14 4 13 21 16 16 9 5 5
21 20 19 17 16 15 15 13 14 15 15 16 7 3 4 6 1 3 6 7 5 6 9 4 9 4 14 4 9 7 12 13 11 10 11 13 8 11 7 16 9 8 20 7 6 5 11
21 20 19 17 16 16 15 12 14 14 14 7 3 4 2 3 6 5 7 10 8 18 7 1 6 6 7 4 4 9 12 12 16 18 10 12 12 14 16 19 10 12 16 6 4 5 4
22 21 19 17 17 16 14 12 13 13 12 2 4 5 2 3 3 4 10 3 5 8 6 1 7 10 5 7 4 6 13 12 15 16 14 9 14 16 11 15 10 13 14 13 7 5 8
22 22 20 18 16 16 14 13 13 11 9 6 9 10 5 2 3 5 8 6 7 8 6 8 7 6 0 11 5 7 5 2 7 13 10 4 10 14 14 12 18 15 7 13 11 7 9
22 22 20 18 17 16 14 13 13 10 8 9 12 9 1 4 6 12 7 6 3 5 11 9 4 11 10 1 5 8 2 8 6 10 9 8 7 6 10 10 13 12 11 11 15 10 9
22 21 20 18 18 16 14 13 13 12 7 10 11 8 3 3 14 12 7 5 6 6 4 7 7 6 8 7 7 7 3 2 11 13 12 11 9 7 12 10 14 16 16 12 7 10 10
23 21 19 17 17 17 15 12 12 13 10 13 9 9 5 6 6 1 5 3 8 12 6 8 6 5 9 7 6 7 3 6 3 8 10 11 6 9 13 6 13 14 14 16 16 14 13
23 22 19 17 16 17 15 11 11 11 11 12 10 3 7 8 6 7 5 4 6 3 2 6 7 6 6 9 6 3 14 3 4 9 8 6 13 13 7 6 11 8 12 13 14 12 12
22 20 18 17 15 16 15 11 10 9 10 10 10 14 4 5 5 8 10 4 6 1 2 2 5 3 9 7 13 7 13 5 10 5 7 5 12 13 6 7 12 15 11 15 18 15 13
22 21 19 17 14 14 14 11 9 9 8 11 13 16 2 5 2 9 6 3 8 6 1 6 4 10 9 11 9 3 11 7 8 5 10 12 11 10 8 8 12 11 5 16 9 16 12
22 21 20 17 15 13 13 10 8 7 5 7 8 9 10 5 7 9 7 7 8 4 2 5 5 8 12 8 12 12 13 12 4 3 4 12 11 9 12 6 9 10 12 10 10 8 7
22 22 20 16 14 12 12 11 8 7 6 4 9 11 16 9 4 7 7 2 2 6 5 6 3 5 7 11 12 14 16 20 10 7 20 7 12 6 7 3 5 4 16 21 7 9 12
23 22 21 17 12 11 10 10 7 7 3 4 2 10 16 11 4 4 6 1 2 9 10 5 5 7 9 9 8 10 8 9 7 16 8 22 15 5 9 10 11 7 7 10 16 7 13
23 22 20 18 14 11 10 10 8 7 5 3 5 10 10 15 5 10 2 3 9 8 11 6 4 4 8 10 10 4 8 8 7 16 22 16 3 3 6 12 5 4 6 13 15 2 18
24 22 20 17 15 12 11 9 8 8 6 5 6 6 6 15 1 1 6 8 8 7 8 2 4 7 7 8 6 10 3 10 9 6 7 8 6 13 5 6 9 7 14 10 3 5 20
24 22 21 19 15 14 12 10 9 8 7 6 4 6 6 13 10 1 0 4 4 5 8 9 9 3 8 7 7 3 4 6 7 10 10 9 3 3 4 5 10 6 7 7 2 2 10
24 24 22 19 17 14 13 11 10 9 8 7 2 4 8 8 7 2 0 1 2 3 8 10 10 7 7 6 7 5 7 3 3 5 11 2 5 2 2 1 9 9 15 4 3 5 12

GFSGBSN_850_spd_111.txt.gz
Wind_Speed
13 12 12 12 12 10 9 10 11 11 12 13 14 15 16 15 14 13 11 10 9 8 6 5 5 5 5 4 10 4 7 5 12 15 20 15 14 17 10 2 4 7 13 9 10 20 9
14 13 12 12 11 11 10 10 10 10 11 12 13 14 15 15 13 11 11 10 9 9 8 6 5 4 3 5 1 5 4 5 10 18 21 14 13 11 6 9 5 13 30 28 25 12 1
16 14 13 13 12 12 11 9 10 10 10 11 12 14 15 15 13 10 11 11 9 8 7 5 4 5 8 16 2 5 7 5 11 16 16 12 15 17 8 2 2 8 9 13 9 8 7
17 16 15 14 14 13 12 10 9 10 10 10 11 13 14 16 14 10 10 10 8 6 5 5 2 3 8 3 12 2 9 3 12 8 14 16 15 18 9 10 5 4 3 5 7 11 5
19 18 17 16 14 14 13 13 11 10 10 11 11 13 14 15 14 11 10 10 7 6 5 5 2 7 9 4 11 13 13 11 8 11 11 13 16 13 15 4 3 7 4 6 8 9 1
18 18 18 17 15 14 13 14 13 12 11 11 11 12 14 15 14 11 10 11 9 7 5 6 7 9 7 11 8 12 16 14 15 14 15 17 4 1 5 2 5 6 5 7 5 3 6
18 17 17 17 16 15 14 14 14 13 12 11 12 13 15 15 14 11 9 10 8 2 7 10 11 6 8 9 8 6 11 12 14 15 5 6 2 7 12 11 10 8 11 8 7 6 3
18 17 17 16 16 16 15 14 14 14 13 12 13 15 15 15 12 8 8 9 11 11 10 15 13 15 8 2 4 9 12 10 9 7 9 4 9 12 14 16 14 12 16 5 6 11 5
18 17 17 16 16 17 16 15 15 14 14 14 16 16 15 13 7 2 4 7 8 12 6 11 14 10 11 7 12 13 11 18 9 7 8 9 13 17 15 15 19 2 7 4 5 8 3
20 18 18 17 16 16 16 15 15 15 16 16 18 19 15 5 1 4 9 9 11 11 3 6 6 3 7 7 7 15 13 17 6 11 11 9 17 13 14 7 17 10 3 9 15 6 5
21 20 20 18 17 16 16 15 14 16 16 18 20 15 7 5 4 4 10 7 10 7 4 11 5 2 4 10 5 16 9 15 12 11 6 11 10 8 8 9 10 10 18 18 15 5 5
23 23 21 19 17 16 16 15 15 16 17 18 16 9 2 3 3 5 10 10 7 2 2 6 5 5 5 15 10 20 12 14 19 11 10 9 15 6 6 19 14 27 14 10 4 0 3
24 24 22 20 19 17 16 14 15 16 16 14 11 5 1 4 4 7 7 12 2 3 3 5 5 8 8 7 7 9 7 6 4 1 6 8 9 6 3 13 21 21 10 3 1 2 2
23 23 21 21 20 19 17 15 16 15 14 11 9 4 3 1 2 4 7 5 2 9 8 4 5 4 6 5 6 6 8 6 11 8 7 5 4 5 5 10 14 14 12 4 4 1 2
24 23 22 21 20 19 18 16 16 14 12 11 8 10 12 5 2 2 11 3 1 7 9 11 5 6 6 7 3 3 7 8 9 10 6 5 4 8 12 11 7 6 8 12 5 2 1
25 23 22 20 21 20 19 17 17 15 14 13 13 16 16 3 3 7 3 6 4 8 10 11 3 4 3 7 6 4 8 7 11 6 10 7 5 7 13 8 8 6 6 2 1 6 4
25 24 22 20 20 21 19 18 18 18 15 12 12 9 4 6 6 11 4 3 4 7 8 5 7 6 6 6 4 2 3 7 14 11 16 7 4 10 1 4 5 3 4 4 1 3 5
25 24 22 21 19 20 20 18 18 18 15 10 7 4 6 3 6 7 2 5 1 3 3 3 4 6 4 4 3 4 11 6 6 11 7 8 3 4 8 7 9 7 7 6 4 8 3
25 25 23 21 19 19 19 17 16 18 18 16 10 15 10 6 3 4 4 4 5 8 10 9 9 9 6 4 3 3 2 11 5 6 3 7 4 4 9 8 9 1 6 5 4 2 5
26 25 24 22 20 18 18 17 15 16 18 15 5 4 4 13 17 6 3 1 5 3 2 7 4 9 6 6 10 5 4 5 5 3 3 3 3 8 5 7 8 9 13 10 1 3 6
24 25 24 23 20 17 17 17 14 14 17 13 3 6 22 2 7 7 7 5 6 2 4 1 4 5 7 7 5 7 10 6 9 4 1 0 3 2 6 5 10 10 11 14 8 8 2
24 24 24 23 20 17 15 17 15 13 14 10 5 13 21 13 3 6 2 3 6 10 6 7 7 12 9 6 3 7 8 7 2 5 5 6 4 5 5 7 6 6 11 12 10 15 9
23 24 24 23 20 17 15 14 14 13 12 4 8 14 10 12 6 3 2 5 7 8 0 3 7 4 8 10 16 15 14 19 12 2 1 0 3 5 5 6 4 3 7 7 10 19 10
22 23 23 23 21 16 14 13 12 12 11 9 10 11 7 6 10 2 6 5 5 8 2 12 3 3 10 14 14 13 16 18 19 16 24 5 3 1 3 5 3 4 10 11 16 18 17
21 22 23 22 21 18 14 12 10 9 10 9 5 10 7 5 16 17 4 3 6 9 6 13 4 4 10 14 4 4 5 5 9 7 9 10 4 5 4 4 4 9 8 9 7 10 13
21 23 23 22 21 19 16 12 11 9 9 9 5 2 4 5 6 27 5 3 3 3 7 13 5 2 2 4 3 2 4 3 6 13 7 6 7 4 6 1 2 8 14 17 13 4 18
22 23 24 23 21 20 17 14 11 10 8 8 5 2 3 7 17 24 6 3 6 8 4 8 8 4 7 2 3 2 2 4 3 4 4 4 5 3 4 2 3 11 21 19 2 1 6
22 23 24 23 22 20 18 14 12 11 9 8 6 2 4 5 16 11 5 8 8 6 3 10 7 7 5 3 1 2 4 4 1 5 1 3 3 1 1 3 4 15 7 4 6 8 9
23 23 24 24 23 20 18 15 13 12 10 9 8 5 4 10 12 10 7 3 4 4 8 7 8 9 2 2 4 4 1 5 9 3 1 2 4 4 3 3 4 10 9 3 11 17 13

GFSGBSN_850_spd_114.txt.gz
Wind_Speed
14 13 13 13 13 12 10 10 11 11 11 12 13 15 15 15 13 11 11 11 10 9 8 6 5 5 5 4 7 1 6 1 11 13 15 16 12 7 4 3 9 8 17 18 12 13 13
16 15 15 14 13 12 11 11 11 11 10 11 13 14 15 16 14 11 10 11 10 9 9 6 5 4 3 3 4 2 5 1 8 14 17 20 10 2 9 4 3 11 16 16 11 14 9
17 16 15 14 13 13 12 11 10 9 10 10 11 12 14 15 15 12 11 12 10 9 8 7 5 5 7 9 2 2 5 7 7 14 20 21 13 10 12 3 9 15 7 5 4 1 6
18 18 16 15 14 13 12 12 11 10 10 10 11 12 14 15 16 13 11 11 10 8 6 7 4 7 6 3 4 9 5 5 8 12 20 13 8 15 10 10 5 5 5 4 4 4 5
17 17 17 17 16 14 13 13 12 11 10 9 11 12 14 15 15 13 10 10 10 7 5 4 5 7 6 4 8 11 8 6 7 9 17 10 8 8 5 5 4 5 4 4 2 10 5
17 17 17 17 17 16 15 13 12 12 11 10 11 13 13 14 15 12 9 12 10 8 6 6 7 8 5 3 2 8 16 13 7 9 8 9 5 1 3 4 3 5 5 2 4 3 4
18 17 16 16 16 16 15 13 13 13 12 12 12 13 14 14 13 10 5 9 10 3 11 9 16 14 13 9 8 5 9 14 17 6 4 4 3 5 4 3 1 9 7 5 4 1 4
20 19 17 17 16 16 16 14 14 14 14 14 14 15 15 13 10 4 4 6 7 8 10 17 15 17 13 7 1 5 8 6 9 6 4 4 6 9 5 8 14 8 12 3 3 4 2
21 20 19 18 17 16 17 16 14 15 15 15 16 17 15 9 2 2 4 4 9 14 4 12 10 11 9 5 4 7 7 9 2 2 4 7 7 10 10 13 12 10 7 5 3 5 5
23 22 20 19 18 18 18 17 16 16 16 17 19 17 9 2 3 3 8 11 12 7 4 6 2 3 8 4 4 16 15 10 2 10 7 6 17 10 12 11 14 6 9 13 7 2 3
24 23 21 20 19 18 18 17 17 17 17 18 19 13 6 2 1 4 10 10 9 6 4 3 3 4 3 5 3 8 17 11 6 6 1 10 5 6 7 16 11 6 13 12 6 4 2
25 25 23 21 19 19 18 17 17 18 18 19 18 10 4 3 2 4 7 11 10 5 2 5 1 2 0 4 6 16 11 10 5 5 6 10 13 5 7 17 9 18 13 11 5 3 2
25 25 23 22 21 20 19 17 17 19 19 18 15 8 2 1 3 4 10 10 5 4 4 4 5 2 2 3 3 6 5 3 3 4 5 8 5 4 21 17 8 15 6 3 0 1 5
26 24 24 22 22 22 21 19 17 18 19 16 12 7 5 5 3 4 13 5 5 4 4 7 3 5 2 2 4 3 4 1 4 3 2 2 7 12 4 12 14 14 6 6 4 2 2
27 26 24 23 22 23 22 20 18 16 19 16 10 12 9 3 5 3 6 4 3 2 5 7 5 7 6 6 2 3 2 1 4 5 5 1 5 3 9 8 15 6 5 7 6 2 3
27 26 25 23 22 22 23 21 19 17 17 15 14 16 2 7 6 5 3 4 3 2 5 6 4 4 5 6 7 4 2 2 4 3 5 3 2 2 7 10 11 12 7 3 2 5 4
27 26 25 24 23 22 22 22 21 18 16 15 15 8 4 9 7 3 2 5 1 2 2 2 3 1 1 3 1 1 5 3 4 6 5 1 3 8 3 1 9 1 1 3 4 4 5
26 26 25 25 23 22 21 23 22 20 17 12 10 4 4 10 3 2 2 5 5 9 7 7 8 3 2 6 5 2 2 1 10 5 3 3 4 2 6 7 4 3 2 4 5 5 2
25 26 26 25 24 21 21 20 20 20 18 16 13 7 4 11 2 2 7 3 3 3 4 5 5 4 6 5 3 4 5 9 4 3 2 5 3 4 9 7 9 6 6 4 2 2 3
24 24 25 25 24 22 20 19 19 18 16 14 6 3 6 8 10 2 3 2 1 3 4 2 3 8 6 5 4 2 7 5 6 2 3 4 3 6 5 7 2 4 9 5 4 3 3
23 24 24 25 25 22 20 19 18 15 14 10 2 3 3 4 7 1 1 2 7 2 7 10 6 5 2 6 7 6 4 7 8 7 5 4 2 2 9 9 3 1 5 13 5 5 5
22 23 24 24 24 23 20 18 18 15 12 4 3 4 8 12 11 10 2 2 6 3 3 3 5 4 6 5 2 2 4 3 2 10 2 4 1 2 1 7 7 1 14 13 9 6 6
21 22 22 23 23 22 20 18 17 14 10 3 6 4 4 7 8 5 3 5 3 4 3 7 5 3 5 3 6 10 12 12 7 4 4 4 2 3 4 5 4 7 6 12 12 11 3
21 21 21 22 22 21 20 17 16 14 10 8 9 7 4 4 3 2 6 7 8 6 5 6 2 4 2 5 7 10 4 21 21 17 9 2 3 2 3 4 2 1 8 17 18 13 7
22 21 20 21 22 21 19 17 14 13 11 8 5 4 3 3 5 9 22 5 6 2 4 5 4 2 3 4 4 5 5 6 7 6 9 5 4 3 3 1 2 3 6 4 3 7 7
23 21 20 21 22 21 20 17 14 13 12 9 3 2 3 3 5 10 12 6 3 1 6 1 3 1 1 3 3 3 1 2 4 8 5 5 6 5 3 2 5 4 8 16 2 3 6
23 21 20 21 21 21 21 18 14 13 13 10 4 5 3 5 11 12 5 3 2 3 2 3 5 3 3 2 2 3 2 2 1 1 1 4 3 4 4 1 4 2 17 16 3 5 3
24 21 20 21 21 21 21 17 14 13 13 10 4 4 1 5 17 7 11 7 6 6 3 4 4 6 4 4 3 1 3 3 1 2 5 5 3 2 1 4 6 2 6 5 4 3 8
21 20 20 21 21 21 19 17 14 13 13 11 6 6 6 11 10 7 8 5 10 4 3 1 2 0 1 4 1 3 2 2 3 2 1 2 5 5 5 5 3 5 3 9 13 17 12

GFSGBSN_850_spd_117.txt.gz
Wind_Speed
15 14 13 13 13 12 11 11 10 10 10 11 12 13 14 16 15 12 12 12 11 10 9 7 5 5 5 3 2 3 3 8 15 16 17 17 10 5 2 2 8 3 9 9 4 8 6
16 15 14 13 13 13 12 11 10 10 9 10 11 12 14 15 15 13 12 12 12 10 9 8 6 5 3 2 4 4 6 3 12 17 19 17 8 6 6 6 2 8 8 5 1 6 10
16 16 15 14 13 12 13 12 11 10 10 10 11 12 13 14 15 14 12 12 12 9 8 9 7 5 5 3 3 1 1 2 4 14 16 18 11 4 8 1 5 17 7 7 7 2 6
16 15 15 15 15 14 13 12 12 11 10 10 11 12 13 14 14 13 12 11 11 9 8 7 6 9 4 9 4 5 3 2 4 9 13 9 9 7 3 8 6 2 6 3 6 9 7
16 16 16 16 16 15 14 12 12 12 11 11 11 12 13 14 14 11 10 11 12 8 7 7 7 8 2 5 8 8 3 2 4 7 7 9 3 4 3 3 4 6 6 4 2 8 5
19 17 17 16 16 16 15 13 13 12 12 11 12 13 13 13 12 8 7 10 8 6 6 7 5 5 4 8 3 7 9 6 2 3 4 4 4 3 3 4 2 4 7 4 3 3 3
19 18 17 16 16 15 16 15 14 13 13 13 13 13 14 12 9 3 4 9 10 3 15 7 12 7 8 9 3 6 11 8 5 0 3 2 1 4 5 4 1 5 9 6 2 6 1
22 20 19 17 16 15 15 15 14 15 15 15 16 16 14 8 2 4 5 10 10 9 10 10 8 10 8 8 3 6 11 7 4 4 0 5 4 5 2 6 11 8 9 5 3 2 2
23 22 20 18 17 16 16 16 15 15 16 17 18 17 10 3 7 3 6 10 15 17 2 8 6 6 1 2 3 2 7 8 3 4 2 4 4 7 5 10 9 2 5 7 5 3 2
25 23 22 20 19 18 18 17 16 16 17 18 19 15 6 5 6 2 6 13 14 6 5 6 3 1 2 3 2 7 7 4 3 8 4 4 6 6 9 5 6 5 1 7 12 4 2
24 24 22 22 20 20 19 18 17 17 17 17 17 12 2 4 3 3 9 12 14 2 4 3 2 1 2 4 1 6 12 6 4 3 4 7 2 4 6 11 6 3 11 9 4 4 1
26 24 23 22 22 21 20 19 18 18 16 16 15 10 2 3 2 4 9 12 5 5 3 6 2 0 1 3 2 3 8 4 4 2 1 8 11 7 7 4 7 14 10 4 3 4 3
26 25 24 23 22 23 22 20 18 18 16 15 12 8 1 3 2 5 12 9 5 5 4 6 3 1 1 3 2 3 4 3 3 3 3 5 2 4 18 14 4 6 4 3 4 2 4
27 26 25 24 23 24 23 21 19 17 15 12 9 8 5 5 4 7 13 4 7 3 4 5 4 3 4 7 4 2 3 1 1 3 1 1 3 5 8 7 11 9 5 6 2 2 3
27 27 27 25 24 23 24 23 19 17 14 10 11 12 0 6 4 5 7 5 5 4 3 4 4 6 4 4 1 3 1 4 1 4 6 3 5 5 6 3 13 5 4 2 7 2 0
26 27 27 27 25 24 24 24 20 17 13 10 12 10 2 7 6 4 5 3 3 4 3 4 3 3 2 5 7 4 2 3 3 1 4 1 1 4 2 7 7 5 7 3 2 4 4
25 26 26 27 27 25 24 24 23 18 14 9 10 3 0 2 4 2 3 5 5 4 5 3 2 4 1 3 2 3 3 3 3 6 6 1 2 4 1 2 8 2 2 3 4 4 4
24 25 26 27 27 26 24 23 25 21 17 9 6 3 2 4 2 2 1 5 4 3 4 5 4 2 4 4 5 5 3 4 11 2 3 3 4 1 3 5 4 7 3 4 4 3 1
23 24 25 26 27 26 24 22 22 22 19 16 9 4 1 4 1 3 5 5 3 2 2 2 5 4 2 4 3 3 5 11 10 1 0 2 3 3 7 7 6 6 2 0 3 3 3
21 23 24 25 26 26 24 21 20 19 16 13 4 3 3 1 2 3 3 4 3 3 6 8 2 6 4 7 5 4 6 4 12 6 4 4 2 5 5 5 3 4 5 2 5 4 2
22 22 22 23 24 24 24 21 18 18 13 8 2 2 2 3 5 6 2 3 3 3 3 4 5 4 4 4 4 5 4 6 5 12 6 4 2 1 4 7 2 2 3 7 6 3 3
22 22 22 22 22 23 23 22 18 16 12 3 3 4 3 5 9 6 5 1 4 3 3 1 5 3 3 4 5 3 0 0 1 6 4 6 0 5 4 7 6 4 5 7 5 3 6
23 22 21 21 21 22 22 21 18 13 12 3 4 3 3 3 4 3 1 4 6 8 1 7 6 5 3 3 2 1 7 11 5 1 2 3 2 3 3 3 4 6 6 6 2 6 4
26 23 21 20 19 20 21 20 18 13 10 9 7 5 3 3 1 3 4 3 5 4 6 2 7 5 3 2 12 18 18 15 17 12 3 3 3 2 3 4 4 2 4 9 7 5 5
26 25 21 19 18 19 19 18 17 14 9 8 7 5 2 3 4 5 11 2 2 1 1 2 4 2 1 2 4 5 5 4 6 4 7 5 4 3 3 1 4 2 1 3 2 2 3
25 24 22 19 18 18 18 19 17 14 10 8 7 3 2 2 4 5 4 2 2 0 3 0 3 3 1 4 4 2 2 1 4 8 3 4 6 3 2 4 7 4 3 1 3 1 4
23 23 24 21 18 17 18 18 17 14 11 7 4 9 4 4 6 4 2 2 2 3 2 3 3 2 2 3 3 2 3 2 2 1 2 3 3 3 2 2 4 6 7 1 5 6 6
22 23 24 20 17 17 18 18 15 13 11 8 5 8 7 5 15 12 4 6 2 3 3 0 3 4 4 4 3 3 3 4 1 3 3 4 4 3 1 3 5 1 2 6 4 16 13
21 22 20 18 18 16 17 17 15 13 11 9 6 11 6 11 9 8 11 10 7 3 4 3 3 3 4 4 1 3 2 2 3 2 2 2 5 3 7 5 4 3 2 3 6 14 14

GFSGBSN_850_spd_120.txt.gz
Wind_Speed
15 14 13 13 13 12 12 11 9 9 9 9 10 11 13 14 15 13 13 12 12 11 10 9 7 5 3 1 2 3 2 11 16 15 13 14 12 4 1 2 5 2 2 8 5 4 6
15 15 15 14 12 12 12 12 11 10 10 10 11 12 12 13 14 13 12 12 12 10 9 10 7 6 3 1 1 5 7 8 12 13 13 12 6 4 2 2 0 5 9 8 6 2 6
15 14 14 15 14 13 12 12 12 12 11 11 11 12 13 13 13 13 11 10 11 10 9 9 8 7 2 3 6 4 4 2 6 8 9 13 8 5 4 1 6 12 5 5 2 2 2
16 15 15 14 14 14 13 13 13 13 13 12 12 13 13 13 12 11 10 10 11 9 8 9 9 7 2 5 5 3 2 2 3 7 7 10 8 4 2 11 4 3 3 1 6 3 4
17 17 16 15 14 14 14 13 13 13 13 12 13 13 14 13 11 8 9 11 9 7 7 8 7 5 3 3 6 4 4 3 5 7 12 11 6 0 5 3 3 5 2 4 3 6 4
20 19 17 16 15 15 16 15 13 13 13 13 14 14 14 12 8 5 9 10 6 5 9 5 7 3 5 5 2 5 5 5 5 9 8 6 4 3 3 4 2 3 3 3 3 4 1
21 20 19 18 17 17 17 16 14 14 14 14 15 15 14 9 2 3 10 7 7 3 9 5 8 5 4 8 3 3 7 7 3 3 3 3 4 4 7 6 3 6 6 4 3 2 5
23 22 21 20 19 18 18 16 15 15 16 16 16 15 10 3 5 6 10 9 11 9 9 4 4 6 5 2 2 6 8 4 3 2 2 5 1 7 4 6 8 4 7 4 2 11 5
25 24 22 21 20 19 18 17 16 16 16 17 17 13 7 5 5 6 8 12 15 13 1 5 3 3 1 2 2 6 9 4 3 2 3 4 1 5 4 4 7 4 2 3 1 6 2
25 24 22 22 22 21 20 18 16 16 16 16 16 10 5 6 4 2 5 16 15 8 5 6 3 0 3 2 0 6 8 2 3 4 5 2 1 5 5 4 2 6 3 7 8 3 2
26 25 24 23 22 22 21 20 17 16 15 16 14 8 5 5 1 3 9 15 11 3 5 6 3 1 2 2 1 5 8 2 4 3 5 6 3 4 4 6 4 2 8 7 3 3 3
27 27 26 24 23 23 23 21 17 15 14 14 12 7 3 3 3 3 8 13 3 5 2 6 2 2 2 2 2 4 4 3 0 3 1 7 2 6 9 3 7 11 6 4 3 2 1
27 27 27 27 25 24 23 22 18 15 13 11 8 7 2 4 3 5 11 4 5 5 4 7 3 4 3 3 2 2 4 2 2 2 2 4 2 2 8 9 3 3 6 2 3 3 3
26 27 28 29 28 26 24 23 20 15 12 9 7 7 6 7 5 8 12 5 6 3 4 4 3 3 4 5 5 2 3 1 2 2 1 2 3 7 4 5 7 5 6 5 4 2 4
25 27 28 29 30 28 26 24 21 15 11 8 9 8 2 2 4 7 6 5 5 3 4 4 3 6 6 5 1 4 3 1 4 6 5 2 4 1 6 4 6 5 3 3 5 3 2
24 26 27 28 30 30 28 25 22 16 12 6 8 1 0 3 5 8 4 3 3 5 3 2 3 1 3 5 3 4 2 2 3 2 6 2 2 3 3 6 1 5 5 2 2 5 4
24 25 26 27 28 29 29 27 24 18 12 6 5 2 4 1 2 3 3 4 5 4 2 3 2 3 1 2 3 2 2 2 2 2 3 1 2 4 3 3 6 2 1 2 2 3 4
24 25 26 26 26 27 28 26 26 23 13 7 3 2 4 1 2 2 1 4 4 3 3 5 4 2 3 4 5 4 3 3 13 1 1 1 3 1 3 4 2 5 4 5 4 3 1
24 25 25 26 25 26 26 26 23 23 19 12 7 1 2 1 1 2 5 4 4 1 3 3 3 3 4 3 3 3 4 8 11 4 3 2 2 2 7 6 4 4 2 3 3 3 4
24 25 24 24 24 24 25 25 21 19 18 11 3 2 2 3 2 3 3 4 2 4 3 6 3 4 4 5 4 2 5 3 9 7 7 4 3 3 6 6 3 4 5 1 3 3 4
25 25 24 24 24 23 23 23 21 18 16 8 3 1 0 1 2 2 1 2 2 3 3 3 3 2 4 2 2 3 2 6 4 14 4 4 2 0 3 3 3 1 5 4 3 2 2
27 27 25 24 23 21 22 21 20 16 14 5 4 3 3 2 4 2 1 1 5 2 5 1 6 2 2 4 7 6 2 1 2 6 4 4 1 2 2 5 6 3 6 4 4 5 7
27 27 26 24 22 20 19 20 19 15 12 4 4 3 3 3 2 2 2 3 3 1 3 7 11 5 3 4 5 1 4 8 3 1 2 3 2 2 3 4 5 3 2 4 3 3 2
29 27 25 24 22 19 17 17 17 15 10 6 5 4 1 3 1 3 2 4 5 5 6 5 10 5 3 8 16 13 12 11 11 10 4 3 3 1 2 2 3 2 2 2 9 2 5
28 26 25 23 21 19 16 16 15 14 11 7 5 3 2 3 4 5 6 2 3 4 2 6 6 5 11 9 4 4 4 4 4 5 7 4 3 2 2 2 3 3 4 6 3 1 3
25 24 22 21 22 20 16 15 14 14 12 8 7 5 4 2 5 3 3 2 2 1 3 2 4 7 5 5 3 3 4 2 3 7 3 4 5 3 1 2 6 5 4 4 5 3 7
24 23 21 20 21 20 15 14 14 13 11 8 6 7 4 4 8 3 3 2 1 2 2 1 1 3 2 3 3 3 3 3 2 2 1 3 3 3 2 2 6 3 4 7 5 7 15
24 22 21 21 19 17 16 14 14 13 11 9 8 8 12 6 17 11 5 0 2 2 3 4 3 1 3 3 3 4 3 4 1 4 4 5 4 3 2 1 5 4 6 5 3 6 20
22 21 19 16 15 14 15 14 14 12 12 9 8 9 10 12 10 11 15 15 16 13 7 5 2 4 5 4 1 3 2 2 4 3 1 2 5 4 7 5 3 3 4 3 3 6 8

GFSGBSN_850_spd_123.txt.gz
Wind_Speed
15 15 14 13 12 11 11 11 10 9 9 8 9 10 11 13 13 12 11 11 11 9 9 9 6 5 3 3 4 3 1 12 12 13 14 11 8 2 2 1 3 3 5 6 5 6 9
15 14 14 13 13 12 11 11 11 10 10 9 9 10 11 11 12 11 10 10 10 9 9 9 7 6 4 5 8 9 7 11 10 11 13 12 5 2 3 4 3 5 8 9 7 6 7
15 14 14 14 14 14 13 12 11 11 11 10 10 10 11 11 11 10 9 10 10 8 9 9 7 5 6 5 8 8 11 6 6 8 11 12 11 4 2 5 6 10 5 6 9 7 5
17 16 15 14 14 15 14 13 12 12 12 12 12 11 11 11 9 8 8 10 9 7 7 8 8 7 5 6 4 4 6 4 5 8 9 11 8 3 2 10 4 3 3 3 5 6 5
19 18 17 16 15 15 15 14 13 13 13 12 12 12 12 10 7 6 9 10 6 5 7 7 7 6 4 2 1 1 2 5 11 12 8 10 5 3 5 4 3 2 3 3 4 2 3
21 19 18 17 16 16 15 14 13 12 13 13 13 13 11 7 4 7 11 6 3 4 6 4 8 4 5 3 4 3 7 6 7 16 10 5 3 2 1 4 2 3 4 2 3 3 2
23 22 21 19 19 18 17 15 14 13 14 13 14 13 9 3 5 9 13 6 5 3 6 3 3 1 3 7 5 6 10 7 10 5 4 3 3 5 7 7 2 4 4 6 3 3 4
26 25 23 22 20 19 18 16 14 14 14 15 15 12 6 6 8 9 12 9 10 5 4 4 2 2 1 2 5 10 10 3 2 6 7 4 4 4 2 4 4 4 6 5 4 6 1
28 26 24 22 21 20 19 17 15 15 15 15 15 10 6 8 8 5 11 15 14 8 1 3 3 1 1 3 3 9 11 4 3 3 4 7 2 4 5 4 6 3 2 2 2 7 2
28 27 25 24 23 22 20 18 15 15 15 15 13 7 6 7 4 3 7 15 11 6 2 6 2 2 2 2 3 7 9 2 2 4 4 2 2 5 6 5 5 5 4 9 9 7 1
27 28 27 27 25 23 21 19 16 14 14 13 10 4 6 5 2 3 7 14 8 2 3 7 1 2 1 1 4 5 8 2 3 6 4 3 5 5 5 5 8 1 6 9 7 3 3
26 27 28 28 27 25 23 21 17 14 13 11 8 6 5 3 2 4 9 16 4 1 3 2 2 2 0 2 1 4 3 3 2 3 1 4 1 3 3 3 7 13 8 5 4 2 3
25 26 27 28 29 28 25 22 19 14 13 10 6 4 1 4 2 5 11 6 1 3 2 4 2 3 2 3 3 2 3 3 1 2 1 2 2 1 5 8 10 5 7 2 3 4 1
25 26 27 28 29 29 28 24 21 16 13 9 5 5 3 5 5 5 11 1 3 2 2 1 2 1 3 5 3 2 4 2 3 3 3 3 5 9 7 4 7 13 11 3 3 3 2
25 26 27 28 28 29 29 26 22 17 13 8 7 4 4 1 2 6 2 3 1 2 2 2 1 4 3 3 2 2 2 1 2 5 3 3 1 4 7 6 8 6 9 2 0 0 3
24 26 26 27 28 29 29 28 24 19 14 6 6 4 2 1 4 7 1 0 2 3 3 1 2 1 2 5 0 1 1 1 1 2 4 1 2 2 6 8 5 3 8 4 4 3 2
25 26 26 26 27 27 28 29 26 21 13 5 2 3 4 1 5 2 2 1 3 3 3 1 2 2 2 1 2 2 2 2 6 3 2 2 2 3 6 6 7 4 4 2 4 3 2
24 25 26 26 26 26 27 28 28 24 16 6 1 2 5 1 1 2 1 2 4 2 2 2 3 2 2 2 2 1 1 1 8 2 3 2 1 1 2 4 4 3 3 8 6 2 1
23 24 27 27 26 25 25 25 25 23 21 13 6 0 4 1 1 0 2 3 4 2 1 2 2 2 2 2 0 1 2 3 8 1 2 1 1 2 4 2 3 1 2 2 0 0 8
24 26 27 26 26 24 23 23 22 21 18 13 4 1 1 2 4 2 0 2 2 1 2 3 4 2 2 1 2 1 2 2 6 5 4 1 1 2 4 2 1 1 3 2 3 4 6
25 26 27 28 25 24 21 21 21 19 16 9 3 1 1 2 2 2 2 1 3 4 2 1 2 1 3 3 1 2 1 3 0 9 2 1 0 2 0 5 1 2 3 5 1 3 4
25 26 27 28 27 23 20 19 18 17 13 5 3 2 2 1 2 3 3 4 6 4 6 4 4 5 3 3 4 3 1 1 1 3 3 3 1 1 3 3 7 5 5 5 4 3 2
26 27 28 26 26 23 19 17 17 15 12 4 4 3 2 1 2 3 3 2 2 4 2 4 9 5 3 2 4 3 3 5 3 3 2 2 1 1 4 4 6 10 6 2 3 4 3
27 27 27 24 23 22 17 15 15 15 12 6 5 4 2 2 3 4 3 3 6 8 4 6 10 4 4 12 13 8 8 7 7 9 3 2 2 1 4 3 8 3 3 4 1 2 4
27 26 24 22 20 20 17 14 12 13 12 8 6 3 2 3 4 7 6 5 3 5 4 8 8 5 18 7 2 1 0 2 3 4 5 3 2 2 4 6 5 4 4 5 7 7 7
26 24 22 20 18 19 18 14 11 12 12 10 7 6 5 3 4 4 3 2 3 4 3 4 5 16 11 3 2 3 3 1 2 2 2 3 4 4 3 4 6 2 2 2 2 7 15
24 23 21 19 19 18 17 12 10 11 12 9 6 6 5 4 7 3 4 2 2 2 3 4 8 7 6 3 3 3 3 1 3 3 3 1 1 4 4 5 5 1 6 5 8 2 12
23 22 21 18 17 16 12 11 10 10 11 10 7 9 12 6 19 14 8 3 2 2 2 6 5 3 2 3 3 3 4 4 2 1 3 4 4 3 2 4 5 7 5 5 2 7 7
22 21 18 15 12 11 10 11 11 10 11 9 8 8 10 14 11 10 14 15 16 16 5 5 1 4 5 4 2 3 3 3 4 4 2 4 4 1 5 2 2 7 5 6 6 2 3